[[{"header":{"parameterUnit":"m.s-1","parameterCategory":1,"la1":30.6,"la2":28.766,"lo1":-90.7593,"lo2":-88.6598,"dy":0.0162,"dx":0.0183,"nx":116,"ny":114,"refTime":"2023-09-19T12:00:00:Z","depth":0,"parameterNumber":2,"parameterNumberName":"U-component_of_WINDS"},"data":[0.0,0.0,0.0,0.0,0.0,0.0,0.0,0.0,0.0,0.0,0.0,0.0,0.0,0.0,0.0,0.0,0.0,0.0,0.0,0.0,0.0,0.0,0.0,0.0,0.0,0.0,0.0,0.0,0.0,0.0,0.0,0.0,0.0,0.0,0.0,0.0,0.0,0.0,0.0,0.0,0.0,0.0,0.0,0.0,0.0,0.0,0.0,0.0,0.0,0.0,0.0,0.0,0.0,0.0,0.0,0.0,0.0,0.0,0.0,0.0,0.0,0.0,0.0,0.0,0.0,0.0,0.0,0.0,0.0,0.0,0.0,0.0,0.0,0.0,0.0,0.0,0.0,0.0,0.0,0.0,0.0,0.0,0.0,0.0,0.0,0.0,0.0,0.0,0.0,0.0,0.0,0.0,0.0,0.0,0.0,0.0,0.0,0.0,0.0,0.0,0.0,0.0,0.0,0.0,0.0,0.0,0.0,0.0,0.0,0.0,0.0,0.0,0.0,0.0,0.0,0.0,0.0,0.0,0.0,0.0,0.0,0.0,0.0,0.0,0.0,0.0,0.0,0.0,0.0,0.0,0.0,0.0,0.0,0.0,0.0,0.0,0.0,0.0,0.0,0.0,0.0,0.0,0.0,0.0,0.0,0.0,0.0,0.0,0.0,0.0,0.0,0.0,0.0,0.0,0.0,0.0,0.0,0.0,0.0,0.0,0.0,0.0,0.0,0.0,0.0,0.0,0.0,0.0,0.0,0.0,0.0,0.0,0.0,0.0,0.0,0.0,0.0,0.0,0.0,0.0,0.0,0.0,0.0,0.0,0.0,0.0,0.0,0.0,0.0,0.0,0.0,0.0,0.0,0.0,0.0,0.0,0.0,0.0,0.0,0.0,0.0,0.0,0.0,0.0,0.0,0.0,0.0,0.0,0.0,0.0,0.0,0.0,0.0,0.0,0.0,0.0,0.0,0.0,0.0,0.0,0.0,0.0,0.0,0.0,0.0,0.0,0.0,0.0,0.0,0.0,0.0,0.0,0.0,0.0,0.0,0.0,0.0,0.0,0.0,0.0,0.0,0.0,0.0,0.0,0.0,0.0,0.0,0.0,0.0,0.0,0.0,0.0,0.0,0.0,0.0,0.0,0.0,0.0,0.0,0.0,0.0,0.0,0.0,0.0,0.0,0.0,0.0,0.0,0.0,0.0,0.0,0.0,0.0,0.0,0.0,0.0,0.0,0.0,0.0,0.0,0.0,0.0,0.0,0.0,0.0,0.0,0.0,0.0,0.0,0.0,0.0,0.0,0.0,0.0,0.0,0.0,0.0,0.0,0.0,0.0,0.0,0.0,0.0,0.0,0.0,0.0,0.0,0.0,0.0,0.0,0.0,0.0,0.0,0.0,0.0,0.0,0.0,0.0,0.0,0.0,0.0,0.0,0.0,0.0,0.0,0.0,0.0,0.0,0.0,0.0,0.0,0.0,0.0,0.0,0.0,0.0,0.0,0.0,0.0,0.0,0.0,0.0,0.0,0.0,0.0,0.0,0.0,0.0,0.0,0.0,0.0,0.0,0.0,0.0,0.0,0.0,0.0,0.0,0.0,0.0,0.0,0.0,0.0,0.0,0.0,0.0,0.0,0.0,0.0,0.0,0.0,0.0,0.0,0.0,0.0,0.0,0.0,0.0,0.0,0.0,0.0,0.0,0.0,0.0,0.0,0.0,0.0,0.0,0.0,0.0,0.0,0.0,0.0,0.0,0.0,0.0,0.0,0.0,0.0,0.0,0.0,0.0,0.0,0.0,0.0,0.0,0.0,0.0,0.0,0.0,0.0,0.0,0.0,0.0,0.0,0.0,0.0,0.0,0.0,0.0,0.0,0.0,0.0,0.0,0.0,0.0,0.0,0.0,0.0,0.0,0.0,0.0,0.0,0.0,0.0,0.0,0.0,0.0,0.0,0.0,0.0,0.0,0.0,0.0,0.0,0.0,0.0,0.0,0.0,0.0,0.0,0.0,0.0,0.0,0.0,0.0,0.0,0.0,0.0,0.0,0.0,0.0,0.0,0.0,0.0,0.0,0.0,0.0,0.0,0.0,0.0,0.0,0.0,0.0,0.0,0.0,0.0,0.0,0.0,0.0,0.0,0.0,0.0,0.0,0.0,0.0,0.0,0.0,0.0,0.0,0.0,0.0,0.0,0.0,0.0,0.0,0.0,0.0,0.0,0.0,0.0,0.0,0.0,0.0,0.0,0.0,0.0,0.0,0.0,0.0,0.0,0.0,0.0,0.0,0.0,0.0,0.0,0.0,0.0,0.0,0.0,0.0,0.0,0.0,0.0,0.0,0.0,0.0,0.0,0.0,0.0,0.0,0.0,0.0,0.0,0.0,0.0,0.0,0.0,0.0,0.0,0.0,0.0,0.0,0.0,0.0,0.0,0.0,0.0,0.0,0.0,0.0,0.0,0.0,0.0,0.0,0.0,0.0,0.0,0.0,0.0,0.0,0.0,0.0,0.0,0.0,0.0,0.0,0.0,0.0,0.0,0.0,0.0,0.0,0.0,0.0,0.0,0.0,0.0,0.0,0.0,0.0,0.0,0.0,0.0,0.0,0.0,0.0,0.0,0.0,0.0,0.0,0.0,0.0,0.0,0.0,0.0,0.0,0.0,0.0,0.0,0.0,0.0,0.0,0.0,0.0,0.0,0.0,0.0,0.0,0.0,0.0,0.0,0.0,0.0,0.0,0.0,0.0,0.0,0.0,0.0,0.0,0.0,0.0,0.0,0.0,0.0,0.0,0.0,0.0,0.0,0.0,0.0,0.0,0.0,0.0,0.0,0.0,0.0,0.0,0.0,0.0,0.0,0.0,0.0,0.0,0.0,0.0,0.0,0.0,0.0,0.0,0.0,0.0,0.0,0.0,0.0,0.0,0.0,0.0,0.0,0.0,0.0,0.0,0.0,0.0,0.0,0.0,0.0,0.0,0.0,0.0,0.0,0.0,0.0,0.0,0.0,0.0,0.0,0.0,0.0,0.0,0.0,0.0,0.0,0.0,0.0,0.0,0.0,0.0,0.0,0.0,0.0,0.0,0.0,0.0,0.0,0.0,0.0,0.0,0.0,0.0,0.0,0.0,0.0,0.0,0.0,0.0,0.0,0.0,0.0,0.0,0.0,0.0,0.0,0.0,0.0,0.0,0.0,0.0,0.0,0.0,0.0,0.0,0.0,0.0,0.0,0.0,0.0,0.0,0.0,0.0,0.0,0.0,0.0,0.0,0.0,0.0,0.0,0.0,0.0,0.0,0.0,0.0,0.0,0.0,0.0,0.0,0.0,0.0,0.0,0.0,0.0,0.0,0.0,0.0,0.0,0.0,0.0,0.0,0.0,0.0,0.0,0.0,0.0,0.0,0.0,0.0,0.0,0.0,0.0,0.0,0.0,0.0,0.0,0.0,0.0,0.0,0.0,0.0,0.0,0.0,0.0,0.0,0.0,0.0,0.0,0.0,0.0,0.0,0.0,0.0,0.0,0.0,0.0,0.0,0.0,0.0,0.0,0.0,0.0,0.0,0.0,0.0,0.0,0.0,0.0,0.0,0.0,0.0,0.0,0.0,0.0,0.0,0.0,0.0,0.0,0.0,0.0,0.0,0.0,0.0,0.0,0.0,0.0,0.0,0.0,0.0,0.0,0.0,0.0,0.0,0.0,0.0,0.0,0.0,0.0,0.0,0.0,0.0,0.0,0.0,0.0,0.0,0.0,0.0,0.0,0.0,0.0,0.0,0.0,0.0,0.0,0.0,0.0,0.0,0.0,0.0,0.0,0.0,0.0,0.0,0.0,0.0,0.0,0.0,0.0,0.0,0.0,0.0,0.0,0.0,0.0,0.0,0.0,0.0,0.0,0.0,0.0,0.0,0.0,0.0,0.0,0.0,0.0,0.0,0.0,0.0,0.0,0.0,0.0,0.0,0.0,0.0,0.0,0.0,0.0,0.0,0.0,0.0,0.0,0.0,0.0,0.0,0.0,0.0,0.0,0.0,0.0,0.0,0.0,0.0,0.0,0.0,0.0,0.0,0.0,0.0,0.0,0.0,0.0,0.0,0.0,0.0,0.0,0.0,0.0,0.0,0.0,0.0,0.0,0.0,0.0,0.0,0.0,0.0,0.0,0.0,0.0,0.0,0.0,0.0,0.0,0.0,0.0,0.0,0.0,0.0,0.0,0.0,0.0,0.0,0.0,0.0,0.0,0.0,0.0,0.0,0.0,0.0,0.0,0.0,0.0,0.0,0.0,0.0,0.0,0.0,0.0,0.0,0.0,0.0,0.0,0.0,0.0,0.0,0.0,0.0,0.0,0.0,0.0,0.0,0.0,0.0,0.0,0.0,0.0,0.0,0.0,0.0,0.0,0.0,0.0,0.0,0.0,0.0,0.0,0.0,0.0,0.0,0.0,0.0,0.0,0.0,0.0,0.0,0.0,0.0,0.0,0.0,0.0,0.0,0.0,0.0,0.0,0.0,0.0,0.0,0.0,0.0,0.0,0.0,0.0,0.0,0.0,0.0,0.0,0.0,0.0,0.0,0.0,0.0,0.0,0.0,0.0,0.0,0.0,0.0,0.0,0.0,0.0,0.0,0.0,0.0,0.0,0.0,0.0,0.0,0.0,0.0,0.0,0.0,0.0,0.0,0.0,0.0,0.0,0.0,0.0,0.0,0.0,0.0,0.0,0.0,0.0,0.0,0.0,0.0,0.0,0.0,0.0,0.0,0.0,0.0,0.0,0.0,0.0,0.0,0.0,0.0,0.0,0.0,0.0,0.0,0.0,0.0,0.0,0.0,0.0,0.0,0.0,0.0,0.0,0.0,0.0,0.0,0.0,0.0,0.0,0.0,0.0,0.0,0.0,0.0,0.0,0.0,0.0,0.0,0.0,0.0,0.0,0.0,0.0,0.0,0.0,0.0,0.0,0.0,0.0,0.0,0.0,0.0,0.0,0.0,0.0,0.0,0.0,0.0,0.0,0.0,0.0,0.0,0.0,0.0,0.0,0.0,0.0,0.0,0.0,0.0,0.0,0.0,0.0,0.0,0.0,0.0,0.0,0.0,0.0,0.0,0.0,0.0,0.0,0.0,0.0,0.0,0.0,0.0,0.0,0.0,0.0,0.0,0.0,0.0,0.0,0.0,0.0,0.0,0.0,0.0,0.0,0.0,0.0,0.0,0.0,0.0,0.0,0.0,0.0,0.0,0.0,0.0,0.0,0.0,0.0,0.0,0.0,0.0,0.0,0.0,0.0,0.0,0.0,0.0,0.0,0.0,0.0,0.0,0.0,0.0,0.0,0.0,0.0,0.0,0.0,0.0,0.0,0.0,0.0,0.0,0.0,0.0,0.0,0.0,0.0,0.0,0.0,0.0,0.0,0.0,0.0,0.0,0.0,0.0,0.0,0.0,0.0,0.0,0.0,0.0,0.0,0.0,0.0,0.0,0.0,0.0,0.0,0.0,0.0,0.0,0.0,0.0,0.0,0.0,0.0,0.0,0.0,0.0,0.0,0.0,0.0,0.0,0.0,0.0,0.0,0.0,0.0,0.0,0.0,0.0,0.0,0.0,0.0,0.0,0.0,0.0,0.0,0.0,0.0,0.0,0.0,0.0,0.0,0.0,0.0,0.0,0.0,0.0,0.0,0.0,0.0,0.0,0.0,0.0,0.0,0.0,0.0,0.0,0.0,0.0,0.0,0.0,0.0,0.0,0.0,0.0,0.0,0.0,0.0,0.0,0.0,0.0,0.0,0.0,0.0,0.0,0.0,0.0,0.0,0.0,0.0,0.0,0.0,0.0,0.0,0.0,0.0,0.0,0.0,0.0,0.0,0.0,0.0,0.0,0.0,0.0,0.0,0.0,0.0,0.0,0.0,0.0,0.0,0.0,0.0,0.0,0.0,0.0,0.0,0.0,0.0,0.0,0.0,0.0,0.0,0.0,0.0,0.0,0.0,0.0,0.0,0.0,0.0,0.0,0.0,0.0,0.0,0.0,0.0,0.0,0.0,0.0,0.0,0.0,0.0,0.0,0.0,0.0,0.0,0.0,0.0,0.0,0.0,0.0,0.0,0.0,0.0,0.0,0.0,0.0,-0.7917,0.0,0.0,0.0,0.0,0.0,0.0,0.0,0.0,0.0,0.0,0.0,0.0,0.0,0.0,0.0,0.0,0.0,0.0,0.0,0.0,0.0,0.0,0.0,0.0,0.0,0.0,0.0,0.0,0.0,0.0,0.0,0.0,0.0,0.0,0.0,0.0,0.0,0.0,-0.6891,-0.7136,-0.7251,-0.7229,-0.7229,-0.7184,-0.7078,0.0,0.0,0.0,0.0,0.0,0.0,0.0,0.0,0.0,0.0,0.0,0.0,0.0,0.0,0.0,0.0,0.0,0.0,0.0,0.0,0.0,0.0,0.0,0.0,0.0,0.0,0.0,0.0,0.0,0.0,0.0,0.0,0.0,0.0,0.0,0.0,0.0,0.0,0.0,0.0,0.0,0.0,0.0,0.0,0.0,0.0,0.0,0.0,0.0,0.0,0.0,0.0,0.0,0.0,0.0,0.0,0.0,0.0,0.0,0.0,0.0,0.0,0.0,0.0,0.0,0.0,0.0,0.0,0.0,0.0,0.0,-0.7835,0.0,0.0,0.0,0.0,0.0,0.0,0.0,0.0,0.0,0.0,0.0,0.0,0.0,0.0,0.0,0.0,0.0,0.0,0.0,0.0,0.0,0.0,0.0,0.0,-0.7505,-0.7658,-0.7678,-0.7685,0.0,0.0,0.0,0.0,0.0,0.0,0.0,-0.7026,-0.708,-0.7195,-0.7373,-0.7553,-0.7678,-0.7678,-0.7597,-0.7478,-0.7556,0.0,0.0,0.0,0.0,0.0,0.0,0.0,0.0,0.0,0.0,0.0,0.0,0.0,0.0,0.0,0.0,0.0,0.0,0.0,0.0,0.0,0.0,0.0,0.0,0.0,0.0,0.0,0.0,0.0,0.0,0.0,0.0,0.0,0.0,0.0,0.0,0.0,0.0,0.0,0.0,0.0,0.0,0.0,0.0,0.0,0.0,0.0,0.0,0.0,0.0,0.0,0.0,0.0,0.0,0.0,0.0,0.0,0.0,0.0,0.0,0.0,0.0,0.0,-1.0177,-1.0251,-1.0465,-1.0368,-1.024,-0.9933,-0.8733,-0.7866,-0.7226,0.0,0.0,0.0,0.0,0.0,0.0,0.0,0.0,0.0,0.0,0.0,0.0,0.0,0.0,0.0,0.0,0.0,0.0,0.0,0.0,0.0,0.0,-0.7371,-0.7678,-0.7932,-0.7959,-0.8013,0.0,0.0,0.0,0.0,0.0,0.0,-0.7509,-0.7509,-0.7522,-0.7543,-0.7685,-0.781,-0.7959,-0.7959,-0.7878,-0.7746,-0.7645,-0.7567,-0.7523,0.0,0.0,0.0,0.0,0.0,0.0,0.0,0.0,0.0,0.0,0.0,0.0,0.0,0.0,0.0,0.0,0.0,0.0,0.0,0.0,0.0,0.0,0.0,0.0,0.0,0.0,0.0,0.0,0.0,0.0,0.0,0.0,0.0,0.0,0.0,0.0,0.0,0.0,0.0,0.0,0.0,-0.73,-0.7458,0.0,0.0,0.0,0.0,0.0,0.0,0.0,0.0,0.0,0.0,0.0,0.0,0.0,0.0,-1.0193,-1.0432,-1.063,-1.0799,-1.0799,-1.0907,-1.1077,-1.0701,-1.0406,-1.0007,-0.8515,0.0,-0.7543,-0.6206,0.0,0.0,0.0,0.0,0.0,0.0,0.0,0.0,0.0,0.0,0.0,0.0,0.0,0.0,0.0,0.0,0.0,0.0,0.0,0.0,0.0,-0.7546,-0.7912,-0.8147,-0.8167,-0.8201,-0.8294,-0.8065,0.0,0.0,0.0,-0.7678,-0.7604,-0.7678,-0.7801,-0.8002,-0.8119,-0.818,-0.8167,-0.8167,-0.8133,-0.8065,-0.8029,-0.7882,-0.7726,-0.7783,0.0,0.0,0.0,0.0,0.0,0.0,0.0,0.0,0.0,0.0,0.0,0.0,0.0,0.0,0.0,0.0,0.0,0.0,0.0,0.0,0.0,0.0,0.0,0.0,0.0,0.0,0.0,0.0,0.0,0.0,0.0,0.0,0.0,0.0,0.0,0.0,0.0,0.0,0.0,-0.6065,-0.6241,-0.5967,-0.6604,-0.7065,0.0,0.0,0.0,0.0,0.0,0.0,0.0,0.0,0.0,-0.8549,-0.9057,-0.9362,-0.9362,-0.9581,-0.9743,-0.9868,-0.9868,-0.9975,-1.0137,-0.9883,-0.9607,-0.9245,-0.7839,-0.6979,-0.6495,-0.5315,-0.4428,-0.3725,0.0,0.0,0.0,0.0,0.0,0.0,0.0,0.0,0.0,0.0,0.0,0.0,0.0,0.0,0.0,0.0,0.0,0.0,-0.6998,-0.7443,-0.7843,-0.8206,-0.8212,-0.8231,-0.8349,-0.8121,0.0,-0.7851,-0.7844,-0.7797,-0.7712,-0.779,-0.8004,-0.8294,-0.8403,-0.8403,-0.8294,-0.8294,-0.8274,-0.8214,-0.8315,-0.8226,-0.7991,-0.804,-0.7925,-0.7699,0.0,0.0,0.0,0.0,0.0,0.0,0.0,0.0,0.0,0.0,0.0,0.0,0.0,0.0,0.0,0.0,0.0,0.0,0.0,0.0,0.0,0.0,0.0,0.0,0.0,0.0,0.0,0.0,0.0,0.0,0.0,0.0,0.0,0.0,0.0,0.0,0.0,-0.4901,-0.5201,-0.4732,-0.5632,-0.6194,0.0,0.0,0.0,0.0,0.0,0.0,-0.6629,-0.7276,-0.7667,-0.7692,-0.8158,-0.8419,-0.845,-0.8608,-0.8742,-0.8852,-0.8852,-0.8914,-0.9024,-0.8729,-0.8467,-0.821,-0.6741,-0.5726,-0.5047,-0.4192,-0.3588,-0.3105,-0.2334,-0.1694,-0.1142,-0.0946,-0.0517,0.0,0.0,0.0,0.0,0.0,0.0,0.0,0.0,0.0,0.0,0.0,0.0,-0.5841,-0.6563,-0.6761,-0.7199,-0.8033,-0.793,-0.8007,-0.8459,-0.8175,-0.7988,-0.7982,-0.8,-0.7975,-0.7968,-0.7975,-0.8081,-0.8294,-0.8301,-0.8301,-0.8294,-0.8294,-0.8194,-0.804,-0.8343,-0.8492,-0.8464,-0.8342,-0.8167,-0.7979,-0.7824,0.0,0.0,0.0,0.0,0.0,0.0,0.0,0.0,0.0,0.0,0.0,0.0,0.0,0.0,0.0,0.0,0.0,0.0,0.0,0.0,0.0,0.0,0.0,0.0,0.0,0.0,0.0,0.0,0.0,0.0,0.0,0.0,0.0,0.0,0.0,0.0,0.0,0.0,-0.4621,-0.5053,0.0,0.0,0.0,0.0,-0.4862,-0.4929,-0.5011,-0.5017,-0.5957,-0.653,-0.658,-0.745,-0.7976,-0.8045,-0.8085,-0.8179,-0.8246,-0.8246,-0.8266,-0.8328,-0.7553,-0.7178,-0.7068,-0.5083,-0.3972,-0.3496,-0.3057,-0.2647,-0.2178,-0.1387,-0.0839,-0.0536,-0.0544,-0.0287,0.0,0.0,0.0,0.0,0.0,0.0,0.0,0.0,0.0,-0.3444,-0.3795,-0.4456,-0.5034,-0.5339,-0.6032,-0.6615,-0.6903,-0.703,-0.723,-0.7581,-0.7364,-0.7391,-0.7721,-0.7746,-0.7814,-0.7988,-0.814,-0.8214,-0.8294,-0.8389,-0.8389,-0.8294,-0.8294,-0.8267,-0.8201,-0.8417,-0.8533,-0.8628,-0.8574,-0.8465,-0.8309,-0.8167,-0.8018,0.0,0.0,0.0,0.0,0.0,0.0,0.0,0.0,0.0,0.0,0.0,0.0,0.0,0.0,0.0,0.0,0.0,0.0,0.0,0.0,0.0,0.0,0.0,0.0,0.0,0.0,0.0,0.0,0.0,0.0,0.0,0.0,0.0,0.0,0.0,0.0,0.0,-0.2697,-0.3185,0.0,-0.3445,-0.3745,-0.3794,-0.3386,-0.359,-0.3658,-0.3483,-0.4113,-0.4485,-0.4506,-0.4855,-0.5086,-0.5109,-0.5146,-0.5158,-0.5179,-0.5179,-0.5193,-0.5214,-0.4927,-0.4636,-0.4337,-0.3362,-0.2709,-0.2243,-0.1621,-0.1445,-0.1467,-0.1187,-0.0832,-0.0487,-0.049,-0.0293,0.0,0.0,0.0,0.0,0.0,0.0,0.0,0.0,0.0,-0.2354,-0.2534,-0.3231,-0.3816,-0.4164,-0.4875,-0.548,-0.5866,-0.6046,-0.6282,-0.6667,-0.6583,-0.6692,-0.7048,-0.7141,-0.7266,-0.7466,-0.7579,-0.7706,-0.7788,-0.7878,-0.7975,-0.8067,-0.8067,-0.8118,-0.8201,-0.8423,-0.854,-0.8642,-0.8798,-0.8771,-0.8621,-0.8451,-0.8309,-0.8223,0.0,0.0,0.0,0.0,0.0,0.0,0.0,0.0,0.0,0.0,0.0,0.0,0.0,0.0,0.0,0.0,0.0,0.0,0.0,0.0,0.0,0.0,0.0,0.0,0.0,0.0,0.0,0.0,0.0,0.0,0.0,0.0,0.0,0.0,0.0,-0.1695,-0.1471,-0.1923,-0.2227,-0.2091,-0.2366,-0.2436,-0.2126,-0.232,-0.2367,-0.2192,-0.2584,-0.2821,-0.2859,-0.3021,-0.3109,-0.3123,-0.3109,-0.3109,-0.3123,-0.3123,-0.313,-0.314,-0.3,-0.2787,-0.2502,-0.1963,-0.158,-0.1276,-0.0653,-0.0534,-0.0727,-0.0727,-0.0578,-0.0332,-0.0332,-0.0199,0.0,0.0,0.0,0.0,0.0,0.0,0.0,0.0,-0.1077,-0.1275,-0.1776,-0.1857,-0.22,-0.3035,-0.3278,-0.3801,-0.4905,-0.4957,-0.5167,-0.5768,-0.5875,-0.5917,-0.5967,-0.6237,-0.6387,-0.6387,-0.6387,-0.6512,-0.6767,-0.6767,-0.7042,-0.7547,-0.7572,-0.7696,-0.7959,-0.8298,-0.8459,-0.8493,-0.8933,-0.902,-0.8844,-0.8628,-0.8594,-0.871,0.0,0.0,0.0,0.0,0.0,0.0,0.0,0.0,0.0,0.0,0.0,0.0,0.0,0.0,0.0,0.0,0.0,0.0,0.0,0.0,0.0,0.0,0.0,0.0,0.0,0.0,0.0,0.0,0.0,0.0,0.0,0.0,0.0,-0.0877,-0.1176,-0.1292,-0.1094,-0.1366,-0.1411,-0.108,-0.1429,-0.1468,-0.1081,-0.1132,-0.1173,-0.116,-0.1468,-0.1662,-0.1739,-0.2061,-0.2251,-0.2317,-0.2251,-0.2251,-0.2316,-0.2316,-0.2367,-0.239,-0.1952,-0.1741,-0.1701,-0.0922,-0.0584,-0.0547,-0.0144,0.0,0.0,0.0,0.0,0.0,0.0,0.0,0.0,0.0,0.0,0.0,0.0,0.0,0.0,0.0,-0.0477,-0.0648,-0.0784,-0.1158,-0.1474,-0.1712,-0.2129,-0.2515,-0.2817,-0.302,-0.3349,-0.3906,-0.3966,-0.4304,-0.5085,-0.5561,-0.5812,-0.5812,-0.5812,-0.5862,-0.5937,-0.6117,-0.6292,-0.6442,-0.6642,-0.6813,-0.6986,-0.7174,-0.7296,-0.7373,-0.769,-0.7852,-0.7962,-0.8795,-0.9117,-0.9056,0.0,0.0,0.0,0.0,0.0,0.0,0.0,0.0,0.0,0.0,0.0,0.0,0.0,0.0,0.0,0.0,0.0,0.0,0.0,0.0,0.0,0.0,0.0,0.0,0.0,0.0,0.0,0.0,0.0,0.0,0.0,0.0,-0.0071,-0.025,-0.0331,-0.0381,-0.0314,-0.0397,-0.0399,-0.0321,-0.0401,-0.0441,-0.0321,-0.0322,-0.0322,-0.0321,-0.0401,-0.0481,-0.0481,-0.0595,-0.0631,-0.0673,-0.0626,-0.0623,-0.0664,-0.0664,-0.0662,-0.0697,-0.0539,-0.0494,-0.0486,-0.026,-0.0147,-0.0146,-0.0036,0.0,0.0,0.0,0.0,0.0,0.0,0.0,0.0,0.0,0.0,0.0,0.0,0.0,0.0,0.0,0.048,0.0396,0.0404,0.0048,-0.0247,-0.0353,-0.0833,-0.1261,-0.1488,-0.1742,-0.2068,-0.2494,-0.2645,-0.3022,-0.3754,-0.4106,-0.4253,-0.4253,-0.4253,-0.4379,-0.4605,-0.4755,-0.5082,-0.5556,-0.5703,-0.5939,-0.6282,-0.6394,-0.6506,-0.6596,-0.6876,-0.7069,-0.7241,-0.8056,-0.8497,-0.8605,-0.8549,-0.8489,-0.8413,-0.8413,-0.8413,-0.8384,-0.8176,0.0,0.0,0.0,0.0,0.0,0.0,0.0,0.0,0.0,0.0,0.0,0.0,0.0,0.0,0.0,0.0,0.0,0.0,0.0,0.0,0.0,0.0,0.0,0.0,0.0,0.0,0.0,0.0,0.0,0.0,0.0,0.0,0.0,0.0,0.0,0.0,0.0,0.0,0.0,0.0,0.0,0.0,0.0,0.0,0.0,0.0,0.0,0.0,0.0,0.0,0.0,0.0,0.0,0.0,0.0,0.0,0.0,0.0,0.0,0.0,0.0,0.0,0.0,0.0,0.0,0.0,0.0,0.0,0.0,0.0,0.0,0.0,0.0,0.1557,0.159,0.1598,0.1435,0.1239,0.0958,0.0505,0.0025,-0.048,-0.0757,-0.0985,-0.1264,-0.1593,-0.1874,-0.2105,-0.2207,-0.2257,-0.2277,-0.2281,-0.2534,-0.3033,-0.3038,-0.3579,-0.4571,-0.4597,-0.49,-0.5439,-0.5561,-0.5653,-0.573,-0.6036,-0.6198,-0.6266,-0.6465,-0.7019,-0.7694,-0.7579,-0.758,-0.7628,-0.7628,-0.7628,-0.7634,-0.7536,0.0,0.0,0.0,0.0,0.0,0.0,0.0,0.0,0.0,0.0,0.0,0.0,0.0,0.0,0.0,0.0,0.0,0.0,0.0,0.0,0.0,0.0,0.0,0.0,0.0039,0.0081,0.0082,0.0164,0.0206,0.0,0.0,0.0,0.0,0.0,0.0,0.0,0.0,0.0,0.0,0.0,0.0,0.0,0.0,0.0,0.0,0.0,0.0,0.0,0.0,0.0,0.0,0.0,0.0,0.0,0.0,0.0,0.0,0.0,0.0,0.0,0.0,0.0,0.0,0.0,0.0,0.0,0.0,0.0,0.0,0.0,0.0,0.0,0.0,0.2126,0.2171,0.2213,0.2182,0.2061,0.1791,0.1665,0.1488,0.116,0.1085,0.0964,0.0746,0.0026,-0.0389,-0.0395,-0.1054,-0.144,-0.1443,-0.1648,-0.1805,-0.1907,-0.2119,-0.2348,-0.257,-0.2777,-0.299,-0.3233,-0.3233,-0.3288,-0.3377,-0.349,-0.3542,-0.3562,-0.3702,-0.5119,-0.7146,-0.7188,-0.719,-0.7209,-0.7209,-0.7209,-0.7114,-0.6538,-0.6212,-0.5873,-0.4819,-0.4328,0.0,0.0,0.0,0.0,0.0,0.0,0.0,0.0,0.0,0.0,0.0,0.0,0.0,0.0,0.0,0.0,0.0,0.0,0.0,0.0,0.0325,0.0544,0.055,0.1281,0.1324,0.0126,0.0,0.0,0.0,0.0,0.0,0.0,0.0,0.0,0.0,0.0,0.0,0.0,0.0,0.0,0.0,0.0,0.0,0.0,0.0,0.0,0.0,0.0,0.0,0.0,0.0,0.0,0.0,0.0,0.0,0.0,0.0,0.0,0.0,0.0,0.0,0.0,0.0,0.0,0.0,0.0,0.0,0.0,0.0,0.3779,0.383,0.3929,0.376,0.3553,0.3425,0.2922,0.2544,0.2418,0.2212,0.2053,0.1968,0.1567,0.1291,0.1144,0.0745,0.0451,0.0315,0.0,-0.0186,-0.0293,-0.0779,-0.1143,-0.1412,-0.1716,-0.1983,-0.2186,-0.2204,-0.2232,-0.2298,-0.2334,-0.2371,-0.2411,-0.2495,-0.336,-0.4576,-0.4965,-0.5132,-0.5162,-0.5162,-0.5162,-0.5099,-0.4738,-0.4432,-0.4125,-0.3477,-0.3081,-0.277,0.0,0.0,0.0,0.0,0.0,0.0,0.0,0.0,0.0,0.0,0.0,0.0,0.0,0.0,0.0071,0.0,0.0,0.0515,0.102,0.1309,0.1596,0.2069,0.2568,0.2439,0.1243,0.1326,0.1457,0.1465,0.1466,0.1469,0.1433,0.1217,0.1084,0.1122,0.0863,0.0687,0.0722,0.0929,0.0923,0.0667,0.0867,0.0777,0.0366,0.0362,0.0238,0.0,0.0193,0.0306,0.0341,0.0757,0.083,0.0638,0.0596,0.0698,0.0865,0.0848,0.0487,0.0,0.0,0.0102,0.0235,0.0,0.0,0.0,0.0,0.0,0.0,0.0,0.5448,0.5528,0.5664,0.5336,0.5085,0.5035,0.4253,0.3726,0.3676,0.3409,0.3249,0.3297,0.3273,0.3154,0.2905,0.2663,0.2442,0.2216,0.1817,0.1529,0.1298,0.075,0.0198,-0.0348,-0.0611,-0.0969,-0.1338,-0.1342,-0.1414,-0.152,-0.1525,-0.1549,-0.1618,-0.1674,-0.1696,-0.1747,-0.228,-0.2696,-0.2993,-0.2993,-0.2993,-0.2993,-0.2926,-0.267,-0.2385,-0.2245,-0.1953,-0.169,-0.1555,-0.1337,0.0,0.0,0.0,0.0,0.0,0.0,0.0,0.0,0.0143,0.0182,0.0365,0.041,0.0574,0.1056,0.121,0.1535,0.2328,0.2697,0.3135,0.3895,0.4314,0.428,0.3543,0.3265,0.3173,0.318,0.318,0.3183,0.3189,0.2842,0.2579,0.2485,0.205,0.1823,0.1845,0.2188,0.2219,0.1856,0.2132,0.1952,0.1241,0.1137,0.0879,0.0512,0.0858,0.1041,0.1143,0.1939,0.2089,0.1783,0.1681,0.1809,0.2082,0.2054,0.1484,0.0657,0.0482,0.0614,0.0843,0.0,0.0,0.0,0.0,0.0,0.0,0.0,0.0,0.6206,0.6299,0.6251,0.6137,0.5892,0.5766,0.5586,0.5361,0.5451,0.5613,0.5786,0.5429,0.5242,0.5396,0.4303,0.3698,0.3672,0.3092,0.2661,0.2342,0.2322,0.1943,0.1231,0.1277,0.0919,0.0246,0.0249,0.0063,-0.022,-0.0223,-0.0225,-0.0226,-0.0229,-0.023,-0.0231,-0.0334,-0.1176,-0.2322,-0.2322,-0.2322,-0.2255,-0.1885,-0.1748,-0.1612,-0.0942,-0.0705,-0.0601,-0.0297,-0.0197,-0.0163,-0.0161,-0.0099,-0.0034,0.0,0.0,0.0111,0.0,0.0607,0.0855,0.1711,0.1918,0.2094,0.2578,0.3016,0.3291,0.3419,0.4482,0.5365,0.5447,0.6965,0.7988,0.7892,0.566,0.4139,0.4136,0.414,0.4156,0.4151,0.4109,0.3871,0.3483,0.3395,0.3333,0.3341,0.3426,0.358,0.388,0.3535,0.3246,0.3099,0.268,0.2403,0.2312,0.2349,0.253,0.2852,0.3359,0.3573,0.3529,0.3373,0.3339,0.3366,0.3324,0.3205,0.3014,0.2251,0.1989,0.205,0.0,0.0,0.0,0.0,0.0,0.0,0.0,0.0,0.0,0.0,0.7191,0.7067,0.6942,0.6642,0.6367,0.6087,0.6277,0.6505,0.6661,0.6626,0.6622,0.6628,0.6107,0.576,0.5659,0.5045,0.4704,0.464,0.3901,0.3384,0.3103,0.2523,0.2088,0.1773,0.1562,0.1279,0.0927,0.0933,0.0681,0.0294,0.0296,0.0166,0.0,0.0,-0.0368,-0.0932,-0.0906,-0.0904,0.0,-0.0731,-0.0665,-0.0599,-0.0302,-0.0202,-0.0168,-0.0034,0.0,0.0,0.0,0.0206,0.0393,0.0398,0.0831,0.1254,0.145,0.1974,0.2518,0.2891,0.3231,0.3628,0.4403,0.4705,0.5188,0.0,0.7006,0.7695,0.8498,0.9304,0.9927,1.0199,0.9145,0.8228,0.7688,0.7603,0.7614,0.7606,0.7115,0.67,0.6539,0.6006,0.567,0.5651,0.6176,0.6255,0.5762,0.6102,0.5718,0.4547,0.4353,0.3989,0.3421,0.3896,0.4678,0.5639,0.5375,0.5536,0.5919,0.5328,0.5337,0.5709,0.5676,0.5875,0.5901,0.3747,0.3165,0.3497,0.0,0.0,0.0,0.0,0.0,0.0,0.0,0.0,0.0,0.0,0.8063,0.8045,0.8045,0.769,0.7316,0.6986,0.7202,0.7425,0.753,0.7731,0.7881,0.7862,0.7722,0.7572,0.7438,0.689,0.6628,0.6647,0.5689,0.5092,0.4855,0.4096,0.3518,0.3128,0.2902,0.2517,0.2099,0.1968,0.1621,0.1139,0.1035,0.0838,0.0609,0.0607,0.0601,0.0528,0.0133,0.0,0.0,0.0,0.0,0.0,0.0,0.0,0.0033,0.0101,0.0303,0.0469,0.0477,0.0852,0.1223,0.1398,0.1975,0.2586,0.3006,0.3671,0.431,0.4827,0.5258,0.5788,0.6718,0.6993,0.7541,0.8935,0.9393,0.9927,1.0955,1.1355,1.1627,1.1988,1.2121,1.1938,1.1266,1.0688,1.0377,1.0377,0.9749,0.9304,0.9166,0.8546,0.8162,0.81,0.8762,0.8769,0.8132,0.8646,0.8203,0.6748,0.661,0.6187,0.5487,0.6123,0.7018,0.8059,0.7525,0.7631,0.815,0.7471,0.7482,0.7891,0.7864,0.8089,0.8167,0.5936,0.5184,0.534,0.0,0.0,0.0,0.0,0.0,0.0,0.0,0.0,0.0,0.0,0.0,0.0,0.0,0.9137,0.8907,0.8379,0.865,0.8835,0.883,0.8965,0.9209,0.9522,0.9034,0.8756,0.8724,0.84,0.8087,0.7741,0.7789,0.7285,0.6337,0.6295,0.5566,0.4261,0.4227,0.3922,0.3319,0.2945,0.2798,0.2794,0.2344,0.2126,0.2124,0.2131,0.2103,0.1845,0.0494,0.0,0.0,0.0,0.0,0.0,0.0,0.0,0.0065,0.0394,0.1042,0.1658,0.1736,0.2093,0.2594,0.3162,0.3398,0.3829,0.5272,0.5594,0.6165,0.7969,0.8433,0.8757,0.97,1.0234,1.0589,1.0639,1.1449,1.2121,1.2165,1.292,1.3502,1.3546,1.3945,1.421,0.0,1.2476,1.1366,1.1366,1.1316,1.1138,1.0639,1.0594,1.0594,1.0589,1.0634,1.0804,1.1171,1.0729,1.0394,1.0143,0.9672,0.9352,0.9144,0.9382,0.9476,0.955,0.9795,0.9903,0.9925,0.9812,0.9726,0.9601,0.9493,0.9374,0.9266,0.9152,0.8535,0.7733,0.0,0.0,0.0,0.0,0.0,0.0,0.0,0.0,0.0,0.0,0.0,0.0,0.0,0.0,0.0,0.0,0.965,0.9791,0.99,1.0277,1.0672,1.1042,1.0752,1.0721,1.0991,1.0187,0.9747,0.9717,0.903,0.8524,0.8188,0.7726,0.7274,0.6811,0.6639,0.6175,0.5519,0.5467,0.4886,0.3937,0.378,0.3379,0.2873,0.2802,0.2795,0.269,0.0,0.1563,0.0954,0.0732,0.0827,0.0985,0.0985,0.1192,0.1479,0.1917,0.2265,0.2631,0.3014,0.3753,0.45,0.4788,0.5855,0.6945,0.7443,0.8325,0.9211,0.9831,1.0161,1.0533,1.1154,1.1374,1.1725,1.2384,1.2858,1.323,1.3546,1.3856,1.4078,1.4078,1.421,0.0,0.0,0.0,0.0,1.3318,1.3053,1.2787,1.2648,1.2337,1.216,1.216,1.247,1.2499,1.2237,1.2362,1.2056,1.1282,1.0774,1.0572,1.0708,1.0666,1.0867,1.126,1.1061,1.1113,1.1256,1.0943,1.0832,1.0815,1.0773,1.0804,1.0822,1.0822,1.0497,0.9983,0.0,0.0,0.0,0.0,0.0,0.0,0.0,0.0,0.0,0.0,0.0,0.0,0.0,0.0,0.0,0.0,0.0,1.0655,1.0689,1.1109,1.1574,1.2067,1.2022,1.2072,1.2299,1.153,1.1106,1.1051,1.0215,0.9707,0.9543,0.9061,0.8712,0.8451,0.829,0.7873,0.7337,0.7293,0.6716,0.5828,0.5638,0.5214,0.4693,0.4571,0.4529,0.0,0.417,0.364,0.2937,0.2034,0.1884,0.2081,0.2081,0.2486,0.3033,0.3375,0.3988,0.4688,0.5132,0.6017,0.6908,0.7304,0.8307,0.9347,0.9731,1.0544,1.13,1.161,1.1768,1.2018,1.2447,1.2527,1.2718,1.3417,1.3679,1.3885,1.4248,1.4299,1.4299,1.4299,1.4299,1.4319,0.0,0.0,0.0,1.4306,1.4033,1.3876,1.3929,1.3662,1.3483,1.3483,1.3751,1.3723,1.3273,1.358,1.3334,1.2626,1.2185,1.2053,1.2178,1.2043,1.2184,1.2483,1.21,1.2043,1.2148,1.1863,1.1714,1.165,1.165,1.162,1.1577,1.1558,1.1416,1.119,0.0,0.0,0.0,0.0,0.0,0.0,0.0,0.0,0.0,0.0,0.0,0.0,0.0,0.0,0.0,0.0,0.0,0.0,1.138,1.1617,1.2063,1.2713,1.2873,1.2881,1.2812,1.2475,1.2106,1.1767,1.1291,1.0822,1.0402,1.0294,0.9836,0.9166,0.9172,0.9007,0.8747,0.8374,0.8265,0.8272,0.7723,0.7469,0.7408,0.7209,0.7104,0.6952,0.6325,0.6079,0.5728,0.3761,0.318,0.3289,0.3356,0.3979,0.4732,0.4903,0.6147,0.7609,0.7933,0.8781,0.9708,1.0501,1.071,1.1034,1.2036,1.2287,1.2517,1.3247,1.323,1.3216,0.0,0.0,1.3619,1.3761,1.3966,1.4173,1.4285,1.4312,1.4312,0.0,0.0,0.0,0.0,0.0,0.0,1.4346,0.0,1.438,1.4516,1.4523,1.4523,1.4523,1.4516,1.4448,1.4312,1.4306,1.4224,1.4125,1.3926,1.3741,1.3605,1.3485,1.3329,1.3207,1.2881,1.2706,1.2679,1.2576,1.2332,1.2098,1.2098,1.1921,1.1563,1.145,1.1389,1.1382,0.0,0.0,0.0,0.0,0.0,0.0,0.0,0.0,0.0,0.0,0.0,0.0,0.0,0.0,0.0,0.0,0.0,0.0,1.3498,1.3853,1.4299,1.4809,1.4599,1.4499,1.463,1.3614,1.2947,1.2682,1.1945,1.1314,1.0758,1.07,1.0424,1.0006,1.011,0.9946,0.9596,0.9594,0.9267,0.8739,0.858,0.8269,0.792,0.7806,0.7765,0.7739,0.7614,0.7562,0.7225,0.5227,0.5134,0.5969,0.6631,0.7044,0.7424,0.7961,0.859,0.922,0.9838,1.0594,1.1339,1.1573,1.224,1.289,1.3048,1.3335,1.362,1.3583,1.3452,1.3298,1.3315,1.3383,0.0,1.3619,1.3899,0.0,1.4421,1.4455,0.0,1.4572,0.0,1.4593,1.4633,1.4633,0.0,0.0,1.4692,1.4599,1.4633,1.4633,1.4633,1.4633,1.457,1.4496,1.4462,1.4353,1.4278,1.4238,1.4089,1.3994,1.3953,1.3688,1.3485,1.3336,1.3139,1.2935,1.2686,1.2645,1.2433,1.2098,1.2098,1.1921,1.1563,1.145,1.1356,1.1274,0.0,0.0,0.0,0.0,0.0,0.0,0.0,0.0,0.0,0.0,0.0,0.0,0.0,0.0,0.0,0.0,0.0,0.0,0.0,1.4791,1.5193,1.5665,1.5585,1.5562,1.5634,1.4582,1.3877,1.3566,1.2417,1.1591,1.1103,1.0747,1.0391,1.008,1.0161,1.0109,0.9953,1.0038,0.9838,0.0,0.0,0.9201,0.8927,0.8827,0.8815,0.8863,0.8769,0.8822,0.8773,0.7921,0.7742,0.8001,0.8606,0.9075,0.9531,0.9932,1.0532,1.1166,1.1665,1.2338,1.2898,1.2992,1.3437,1.3782,1.374,1.38,1.381,1.358,1.3302,1.3078,1.2996,1.3051,1.32,0.0,0.0,0.0,1.4468,1.457,1.4599,0.0,1.4801,0.0,1.493,1.4944,1.5099,0.0,1.5004,1.4896,1.4978,1.4985,1.5004,1.4936,1.4848,1.4713,1.4516,1.4373,1.4299,1.4299,1.4211,1.418,1.4112,1.3899,1.3709,1.3492,0.0,1.3105,1.2827,1.2759,1.2467,1.2098,1.2098,1.1921,1.1592,1.1369,1.1274,1.1206,0.0,0.0,0.0,0.0,0.0,0.0,0.0,0.0,0.0,0.0,0.0,0.0,0.0,0.0,0.0,0.0,0.0,0.0,0.0,0.0,1.5486,1.5911,1.6138,1.6205,1.6133,1.5279,1.4663,1.4284,1.2767,1.1771,1.1336,1.0636,1.0093,0.9731,0.9731,0.9805,0.9934,0.9954,1.0035,1.0181,1.0035,0.9988,0.9974,0.0,0.99,0.9959,0.9787,0.9863,1.0163,1.0815,1.0423,0.9718,1.0042,1.0641,1.1245,1.1326,1.2115,1.2975,1.3242,1.372,1.4136,1.4265,1.4183,1.4105,1.4021,1.3797,1.3504,1.3349,1.2983,1.2659,1.2659,1.2659,1.2847,1.3295,1.3736,1.4129,1.4462,1.4599,1.4714,1.4775,1.495,1.5132,1.5228,1.5384,1.5533,1.5641,1.5357,1.5235,1.5432,1.5438,1.5364,1.5187,1.5147,1.4923,1.4516,1.4373,1.4299,1.4299,1.4299,1.4231,1.4146,1.4125,1.3933,1.3682,0.0,0.0,1.3016,1.2827,1.2481,1.2098,1.2098,1.1921,1.1586,1.1336,1.1227,1.1227,0.0,0.0,0.0,0.0,0.0,0.0,0.0,0.0,0.0,0.0,0.0,0.0,0.0,0.0,0.0,0.0,0.0,0.0,0.0,0.0,0.0,1.6544,1.6575,1.6484,1.6253,1.5459,1.4777,1.4216,1.3126,1.2064,1.1056,1.0528,1.0011,0.9456,0.9456,0.9469,0.9503,0.9632,0.97,0.9734,0.9792,0.9832,0.9839,0.994,0.0,0.0,1.026,1.0625,1.1047,1.1505,1.1591,1.1632,1.2233,1.2661,1.2987,1.3091,1.3403,1.3676,1.3894,1.4099,1.4265,1.4292,1.4183,1.405,1.3763,1.3566,1.3329,1.2929,1.2684,1.2542,1.2542,1.2542,1.2691,1.318,1.3492,1.3892,1.4434,1.4599,1.4829,0.0,1.5316,1.5391,1.5499,1.5689,0.0,0.0,0.0,1.594,1.5566,1.5553,1.5472,1.5194,1.4943,1.4674,1.4516,1.4373,1.4299,1.4299,1.4299,1.4285,1.4258,1.4129,1.4084,1.398,0.0,0.0,1.3166,1.3023,1.2622,1.2098,1.2098,1.1921,1.1563,1.1416,1.1383,1.1383,0.0,0.0,0.0,0.0,0.0,0.0,0.0,0.0,0.0,0.0,1.5792,1.6059,0.0,0.0,0.0,0.0,0.0,0.0,0.0,0.0,0.0,0.0,1.6641,1.6582,1.63,1.552,1.4865,1.4407,0.0,1.1925,1.1044,1.0364,0.9709,0.915,0.915,0.9191,0.9294,0.9369,0.9462,0.9612,0.9686,0.9724,0.9805,0.0,0.0,0.0,1.0534,1.09,1.1341,1.1708,1.2032,1.2456,1.3031,1.339,1.3661,1.3817,1.3966,1.4095,1.417,1.4245,1.4299,1.4299,1.4122,1.3892,1.3639,1.3329,1.2949,1.2733,1.2381,1.2203,1.2359,1.2393,1.2515,1.2881,1.3329,1.3741,1.4224,1.455,1.4829,1.5248,1.5432,1.5622,1.5845,1.6001,0.0,0.0,0.0,1.6293,1.6001,1.5715,1.5526,1.5425,1.5059,1.4787,1.4586,1.4482,1.4373,1.4299,1.4299,1.4299,1.4299,1.4224,1.4193,1.4105,1.3838,0.0,1.3275,1.3091,1.2737,1.2277,1.2159,1.1925,1.1665,1.1477,1.1389,1.1389,0.0,0.0,0.0,0.0,0.0,0.0,0.0,1.4776,1.512,1.5444,1.5976,1.6351,1.6471,1.6431,0.0,0.0,0.0,0.0,0.0,0.0,0.0,0.0,0.0,0.0,0.0,0.0,0.0,1.4353,1.2759,0.0,0.0,0.0,0.0,0.0,0.8912,0.9001,0.9138,0.9172,0.9342,0.0,0.0,0.9683,0.0,0.0,0.0,0.0,0.0,1.0968,1.1348,1.1638,1.2084,1.2584,1.3105,1.3463,1.3788,1.4014,1.4156,1.4258,1.4292,1.4299,1.4299,1.4299,1.4068,1.3754,1.3578,1.3098,1.2679,1.2645,1.2192,1.1888,1.2237,1.2237,1.2291,1.2589,1.3044,1.3511,1.3878,1.434,1.478,1.514,1.5452,0.0,1.6096,1.6266,0.0,0.0,0.0,0.0,1.632,1.5913,1.5621,1.5593,1.5208,1.4896,1.4694,1.459,1.4441,1.4299,1.4299,1.4299,1.4299,1.4299,1.4238,1.4109,1.3876,0.0,0.0,1.3139,1.2819,1.2474,1.2254,1.1993,1.1766,1.1572,1.1463,1.1443,0.0,0.0,0.0,0.0,0.0,0.0,0.0,1.4776,1.5186,1.5688,1.6072,1.6498,1.7058,1.6859,0.0,0.0,0.0,0.0,0.0,0.0,0.0,0.0,0.0,0.0,0.0,0.0,0.0,1.3506,0.0,0.0,0.0,0.0,0.0,0.0,0.0,0.8919,0.894,0.9124,0.0,0.0,0.0,0.0,0.0,0.0,0.0,0.0,0.0,1.0806,1.1022,1.1455,1.1726,1.1976,1.2571,1.3146,1.366,1.3987,1.4125,1.4122,1.4265,1.4299,1.4299,1.4299,1.4068,1.3727,1.3485,1.3064,1.2652,1.2549,1.2155,1.1888,1.2237,1.206,1.1935,1.2284,1.2603,1.2922,1.3403,1.3966,1.455,1.5113,0.0,0.0,1.6246,1.6415,0.0,0.0,0.0,0.0,1.632,1.6008,1.5771,1.5593,1.5208,1.4896,1.4694,1.459,1.4441,1.4299,1.4299,1.4299,1.4299,1.4299,1.4292,1.4265,0.0,0.0,0.0,1.3139,1.2819,1.2488,1.2332,1.2088,1.1793,1.1766,1.1671,1.1563,0.0,0.0,0.0,0.0,0.0,0.0,0.0,1.4776,1.52,1.5728,1.6233,1.6712,1.7152,1.722,1.7193,0.0,0.0,0.0,0.0,0.0,0.0,0.0,0.0,0.0,0.0,0.0,0.0,1.2856,0.0,0.0,0.0,0.0,0.0,0.0,0.0,0.0,0.8912,0.8973,0.0,0.0,0.0,0.0,0.0,0.0,0.0,0.0,0.0,0.0,1.0968,1.1362,1.1579,1.1775,1.2196,1.2556,1.2935,1.3498,1.3797,1.3966,1.4122,1.4231,1.4278,1.4183,1.4,1.3693,1.3349,1.2983,1.2645,1.2535,1.2216,1.2006,1.2166,1.2054,1.1979,1.2006,1.2338,1.2684,1.2963,1.3587,1.4177,1.4604,1.5072,0.0,0.0,0.0,0.0,0.0,0.0,0.0,1.632,1.594,1.5696,1.5593,1.5289,1.4984,1.4694,1.4633,1.4529,1.4299,1.4299,1.4299,1.4299,1.4299,1.4299,1.4285,0.0,0.0,0.0,1.3275,1.3009,1.2792,1.2515,1.2237,1.1959,1.1827,1.1705,1.1584,0.0,0.0,0.0,0.0,0.0,0.0,1.4461,1.4776,1.52,1.5728,1.6339,1.682,1.7166,1.7434,1.7528,1.7314,0.0,0.0,0.0,0.0,0.0,0.0,0.0,0.0,0.0,0.0,0.0,1.2236,1.1174,1.033,0.0,0.0,0.0,0.0,0.0,0.0,0.0,0.0,0.0,0.0,0.0,0.0,0.0,0.0,0.0,0.0,0.0,0.0,0.0,0.0,0.0,1.1428,1.1751,1.1941,1.2182,1.2969,1.341,1.3688,1.3885,1.4048,1.4136,1.4027,1.3858,1.3614,1.3254,1.2908,1.2591,1.2522,1.2309,1.2098,1.2098,1.2064,1.1945,1.1753,1.2108,1.2427,1.2576,1.32,1.3844,1.419,0.0,1.5364,0.0,0.0,0.0,0.0,0.0,0.0,0.0,1.583,1.5593,1.5593,1.5303,1.4997,1.4694,1.4647,1.455,1.4299,1.4299,1.4299,1.4299,1.4299,1.4299,1.4285,0.0,0.0,0.0,1.3403,1.3173,1.2975,1.2671,1.2386,1.2145,1.1959,1.1809,1.1638,0.0,0.0,0.0,0.0,0.0,0.0,0.0,1.4776,1.52,1.5728,1.6339,1.682,1.7166,1.7434,1.7608,1.7608,0.0,0.0,0.0,0.0,0.0,0.0,0.0,0.0,0.0,0.0,1.2753,1.1618,1.0715,1.0009,0.941,0.9051,0.0,0.0,0.0,0.0,0.0,0.0,0.0,0.0,0.0,0.0,0.0,0.0,0.0,0.0,0.0,0.0,0.0,0.0,0.0,0.0,0.0,1.1308,1.1579,1.2436,1.2949,1.3247,1.3553,1.3693,1.3802,1.3802,1.3578,1.3363,1.3248,1.2827,1.2501,1.2501,1.2309,1.2098,1.2098,1.1938,1.1753,1.1611,1.187,1.2159,1.2271,1.2935,1.3573,0.0,0.0,1.5255,0.0,0.0,0.0,0.0,0.0,0.0,0.0,1.583,1.5593,1.5593,1.5208,1.4896,1.4694,1.459,1.4441,1.4299,1.4299,1.4299,1.4299,1.4299,1.4299,0.0,0.0,0.0,0.0,1.3519,1.3227,1.2982,1.2786,1.2549,1.2271,1.2152,1.1965,1.1773,0.0,0.0,0.0,0.0,0.0,0.0,0.0,1.408,1.4394,1.496,1.5358,1.5945,1.6819,1.7015,1.7121,1.7318,0.0,0.0,0.0,0.0,0.0,0.0,0.0,0.0,0.0,0.0,1.2451,1.1263,1.0394,0.9651,0.9051,0.9091,0.9111,0.9117,0.0,0.0,0.0,0.0,0.0,0.0,0.0,0.0,0.0,0.0,0.0,0.0,0.0,0.0,0.0,0.0,0.0,0.0,0.0,0.0,0.0,1.1572,1.2162,1.2779,1.3091,1.3356,1.3512,1.341,1.3315,1.318,1.2929,1.272,1.263,1.2522,1.2352,1.2227,1.2118,1.1938,1.1746,1.1604,1.187,1.2152,1.2271,0.0,0.0,1.3736,1.4563,1.5357,0.0,0.0,0.0,0.0,0.0,0.0,0.0,1.5771,1.5593,1.5593,1.5208,1.4896,1.4694,1.459,1.4441,1.4299,1.4299,1.4299,1.4299,1.4299,0.0,0.0,0.0,0.0,0.0,1.3519,1.3227,1.2996,1.2948,1.2644,1.2271,1.2159,1.1965,1.1773,0.0,0.0,0.0,0.0,0.0,0.0,0.0,1.338,1.3582,1.4034,1.4446,1.4986,1.5783,1.6049,1.6278,1.6545,0.0,0.0,0.0,0.0,0.0,0.0,0.0,0.0,0.0,1.2871,1.1864,1.0806,1.007,0.9488,0.9022,0.9199,0.9267,0.9274,0.9369,0.0,0.0,0.0,0.0,0.0,0.0,0.0,1.0684,0.0,0.0,0.0,0.0,0.0,0.0,0.0,0.0,0.0,0.0,0.0,0.0,0.0,1.1518,1.2088,1.2547,1.288,1.3037,1.2942,1.2921,1.2793,1.2603,1.2522,1.2447,1.2359,1.2264,1.2193,1.2006,1.1898,1.1746,1.1604,1.187,1.2152,1.2271,0.0,0.0,1.3944,0.0,0.0,0.0,0.0,0.0,0.0,0.0,0.0,0.0,1.5608,1.5466,1.5466,1.5086,1.4808,1.4613,1.4509,1.4387,1.4299,1.4299,1.4299,1.4299,1.4299,0.0,0.0,0.0,0.0,0.0,1.3587,1.3281,1.3003,1.3003,1.2758,1.2352,1.2203,1.2054,1.1898,0.0,0.0,0.0,0.0,0.0,0.0,0.0,0.0,0.0,0.0,1.3461,1.3917,1.4186,1.4732,1.5148,0.0,0.0,0.0,0.0,0.0,0.0,0.0,0.0,0.0,0.0,1.1954,1.1135,1.0257,0.9805,0.9462,0.9214,0.9349,0.9424,0.9424,0.9437,0.9444,0.0,0.0,0.0,0.0,1.0315,1.046,0.0,0.0,0.0,0.0,0.0,0.0,0.0,0.0,0.0,0.0,0.0,0.0,0.0,0.0,0.0,0.0,0.0,1.221,1.2454,1.2454,1.2366,1.2277,1.2277,1.22,0.0,1.2098,1.2091,1.2036,1.182,1.1786,1.1739,1.1604,1.187,1.2159,0.0,1.2834,0.0,0.0,0.0,0.0,0.0,0.0,0.0,0.0,0.0,0.0,0.0,1.5466,1.5174,1.5153,1.4875,1.4613,1.4516,1.4373,1.4299,1.4299,1.4299,1.4299,1.4299,1.4299,0.0,0.0,0.0,0.0,0.0,1.3619,1.3349,1.3003,1.2989,1.2766,1.2481,1.2345,1.2234,1.2077,0.0,0.0,0.0,0.0,0.0,0.0,0.0,0.0,0.0,0.0,0.0,1.2317,1.3336,1.3585,0.0,0.0,0.0,0.0,0.0,0.0,0.0,0.0,0.0,0.0,0.0,1.1137,1.0586,0.9926,0.9693,0.9462,0.9214,0.9429,0.9557,0.9557,0.9673,0.972,0.972,0.0,0.0,0.0,1.0315,1.046,0.0,0.0,0.0,0.0,1.0684,1.0684,0.0,0.0,0.0,0.0,0.0,0.0,0.0,0.0,1.0846,1.0995,1.1137,0.0,1.1949,1.1949,1.2054,1.2152,0.0,1.2125,1.2098,1.2098,1.1965,1.187,1.18,1.1705,1.1624,1.1626,1.187,1.2193,1.2413,0.0,0.0,1.4613,0.0,0.0,0.0,0.0,0.0,0.0,0.0,0.0,0.0,1.5303,1.5079,1.4848,1.4665,1.455,1.4509,1.4373,1.4299,1.4299,1.4299,1.4299,1.4299,1.4299,0.0,0.0,0.0,0.0,1.3612,1.339,1.3193,1.2989,1.2834,1.2671,1.2481,1.2345,1.2234,1.2077,0.0,0.0,0.0,0.0,0.0,0.0,0.0,0.0,0.0,0.0,0.0,0.0,0.0,0.0,0.0,0.0,0.0,0.0,0.0,0.0,0.0,0.0,0.0,1.0636,1.0743,1.0312,0.9954,0.9623,0.9546,0.9431,0.9294,0.9564,0.9707,0.9707,0.9758,0.9792,0.9798,0.9866,1.0059,1.0315,1.0383,0.0,0.0,0.0,0.0,0.0,1.0684,1.0684,0.0,1.0684,1.0684,1.0684,0.0,0.0,0.0,0.0,1.0745,1.0813,1.0813,1.1179,1.1525,1.1525,1.1621,1.1683,1.1683,1.1683,1.1683,1.1683,1.164,1.1626,1.1626,1.1626,1.1604,1.1671,1.1911,0.0,0.0,0.0,1.4143,1.4633,0.0,0.0,0.0,0.0,0.0,0.0,0.0,0.0,0.0,1.6185,1.6074,1.5897,1.5556,1.5075,1.4414,1.434,1.4299,1.4299,1.4299,1.4299,1.4299,1.4231,0.0,0.0,0.0,0.0,1.3505,1.3309,1.3084,1.2847,1.272,1.2637,1.2494,1.2413,1.2288,1.2084,0.0,0.0,0.0,0.0,0.0,0.0,0.0,0.0,0.0,0.0,0.0,0.0,0.0,0.0,0.0,0.0,0.0,0.0,0.0,0.0,0.0,0.0,0.0,0.9857,1.0091,0.9596,0.9327,0.9327,0.9375,0.941,0.9417,0.9686,0.9792,0.9792,0.9792,0.9805,0.9832,0.9961,1.0116,1.0356,1.0446,0.0,0.0,0.0,0.0,0.0,0.0,0.0,0.0,1.0684,1.0684,1.0684,1.0684,0.0,0.0,0.0,0.0,0.0,1.0684,1.0907,1.1138,1.1159,1.1179,1.12,1.12,1.12,1.12,1.12,1.1302,1.1362,1.1389,1.1518,1.1638,0.0,0.0,0.0,1.3322,1.3783,1.4204,0.0,0.0,0.0,0.0,0.0,0.0,0.0,0.0,0.0,0.0,1.7541,1.7497,1.7497,1.7017,1.6078,1.4787,1.455,1.4431,1.4431,1.4323,1.4265,1.4258,1.4109,1.4021,0.0,0.0,0.0,1.3349,1.318,1.2956,1.2686,1.2665,1.2617,1.2501,1.2474,1.2298,1.2091,0.0,0.0,0.0,0.0,0.0,0.0,0.0,0.0,0.0,0.0,0.0,0.0,0.0,0.0,0.0,0.0,0.0,0.0,0.0,0.0,0.0,0.0,0.9092,0.9078,0.9099,0.9023,0.8968,0.8968,0.926,0.941,0.9417,0.9686,0.9792,0.9792,0.9792,0.9859,0.9988,0.9977,1.0177,1.046,1.048,0.0,0.0,0.0,0.0,0.0,0.0,0.0,0.0,1.0684,1.0684,1.0684,1.0684,0.0,0.0,0.0,0.0,0.0,1.0684,1.0751,1.0786,1.0914,1.107,1.12,1.12,1.12,1.12,1.12,1.122,1.1274,1.1369,1.1518,1.1708,0.0,0.0,1.3043,0.0,0.0,0.0,0.0,0.0,0.0,0.0,0.0,0.0,0.0,0.0,0.0,0.0,0.0,1.8476,1.8476,1.8286,1.7808,1.6998,1.5579,1.4911,1.4903,1.4382,1.4153,1.4102,1.3946,1.3768,0.0,0.0,1.3349,1.3227,1.2908,1.2733,1.2679,1.2589,1.2522,1.2488,1.2366,1.221,1.2064,0.0,0.0,0.0,0.0,0.0,0.0,0.0,0.0,0.0,0.0,0.0,0.0,0.0,0.0,0.0,0.0,0.0,0.0,0.0,0.0,0.0,0.8791,0.8791,0.8791,0.8791,0.8791,0.8791,0.8791,0.9198,0.941,0.9417,0.9686,0.9792,0.9792,0.9792,0.9873,1.0021,1.0109,1.0297,1.05,0.0,0.0,0.0,0.0,0.0,0.0,0.0,0.0,0.0,0.0,1.0684,1.0684,1.0684,0.0,0.0,0.0,0.0,0.0,1.0684,1.0684,1.0704,1.0772,1.0873,1.0921,1.0921,1.0989,1.105,1.105,1.1172,1.1342,1.1382,1.1579,1.1884,1.2345,0.0,1.3329,0.0,0.0,0.0,0.0,0.0,0.0,0.0,0.0,0.0,0.0,0.0,0.0,0.0,0.0,2.1544,2.1544,2.0899,2.0267,1.9699,1.7845,1.6294,1.5082,1.4585,1.4162,1.3939,1.3747,1.3605,1.3498,0.0,1.3146,1.2922,1.2747,1.2638,1.2603,1.2528,1.2501,1.2474,1.2288,1.2067,1.1904,0.0,0.0,0.0,0.0,0.0,0.0,0.0,0.0,0.0,0.0,0.0,0.0,0.0,0.0,0.0,0.0,0.0,0.0,0.0,0.0,0.8655,0.8655,0.8628,0.8621,0.8655,0.8655,0.8676,0.871,0.9123,0.941,0.949,0.9713,0.9792,0.9792,0.9792,0.9893,1.0082,1.0229,1.0417,1.0555,0.0,0.0,0.0,0.0,0.0,0.0,0.0,0.0,0.0,0.0,0.0,0.0,0.0,0.0,0.0,1.0684,1.0684,1.0684,1.0684,1.0684,1.0684,1.0684,1.0684,1.0698,1.0732,1.0833,1.0921,1.0955,1.1179,1.1348,1.1382,1.1687,0.0,1.2691,1.3098,0.0,0.0,0.0,0.0,0.0,0.0,0.0,0.0,0.0,0.0,0.0,0.0,0.0,0.0,0.0,2.4136,2.4237,2.3317,2.2507,2.181,2.0125,1.8073,1.5666,1.504,1.4458,1.3863,1.3713,1.352,1.3288,1.3132,1.2942,1.2686,1.2652,1.261,1.2501,1.2501,1.2461,1.2366,1.2101,1.1911,1.1732,0.0,0.0,0.0,0.0,0.0,0.0,0.0,0.0,0.0,0.0,0.0,0.0,0.0,0.0,0.0,0.0,0.0,0.0,0.0,0.0,0.8526,0.8526,0.8396,0.8389,0.8526,0.8526,0.8567,0.871,0.9049,0.941,0.9758,0.9778,0.9792,0.9792,0.9792,0.9985,1.0263,1.0276,1.0446,1.0704,1.0717,0.0,0.0,0.0,0.0,0.0,0.0,0.0,0.0,0.0,0.0,0.0,0.0,0.0,1.0684,1.0684,1.0684,1.0684,1.0684,1.0684,1.0684,1.0684,1.0684,1.0725,1.0867,1.0907,1.0955,1.1152,1.12,1.1254,1.1362,1.1864,1.2406,1.2907,1.3125,0.0,0.0,0.0,0.0,0.0,0.0,0.0,0.0,0.0,0.0,0.0,0.0,0.0,0.0,0.0,0.0,2.4909,2.4532,2.371,2.2434,2.1834,2.0067,1.7027,1.6026,1.4991,1.4053,1.389,1.3498,1.3023,1.2827,1.2713,1.2679,1.2576,1.2515,1.2501,1.2501,1.2332,1.2111,1.1911,1.1719,1.1597,0.0,0.0,0.0,0.0,0.0,0.0,0.0,0.0,0.0,0.0,0.0,0.0,0.0,0.0,0.0,0.0,0.0,0.0,0.0,0.0,0.8376,0.8376,0.8321,0.8274,0.8182,0.8303,0.8451,0.8567,0.9083,0.9429,0.9693,0.9751,0.9792,0.9792,0.9792,0.9907,1.0103,1.0103,1.0278,1.0575,1.0575,1.0575,0.0,0.0,0.0,0.0,0.0,0.0,0.0,0.0,1.0684,1.0684,1.0684,1.0684,1.0684,1.0684,1.0684,1.0684,1.0684,1.0649,1.0602,1.0697,1.0649,1.0643,1.086,1.1056,1.1267,1.1416,1.1518,1.1592,1.1653,0.0,1.2336,1.2745,0.0,0.0,0.0,0.0,0.0,0.0,0.0,0.0,0.0,0.0,0.0,0.0,0.0,0.0,0.0,0.0,0.0,2.6427,2.5705,2.4919,2.4108,2.3016,2.1523,1.9584,1.7611,1.6047,1.4892,1.4308,1.3699,1.3023,1.2734,1.2481,1.2311,1.225,1.2268,1.2268,1.2268,1.2101,1.1911,1.1813,1.1705,1.1584,0.0,0.0,0.0,0.0,0.0,0.0,0.0,0.0,0.0,0.0,0.0,0.0,0.0,0.0,0.0,0.0,0.0,0.0,0.8187,0.8201,0.8201,0.8201,0.8201,0.8147,0.7988,0.814,0.8269,0.8444,0.8967,0.9367,0.9612,0.9707,0.9751,0.9792,0.9792,0.9873,0.9984,0.9984,1.0163,1.0426,1.0426,1.0426,0.0,0.0,0.0,0.0,0.0,0.0,0.0,0.0,1.0644,1.0684,1.0684,1.0684,1.0684,1.0684,1.065,1.0649,1.0649,1.0541,1.046,1.0609,1.0568,1.0582,1.0934,1.1212,1.145,1.1647,1.1726,1.1793,1.1793,1.1918,0.0,0.0,0.0,0.0,0.0,0.0,0.0,0.0,0.0,0.0,0.0,0.0,0.0,0.0,0.0,0.0,0.0,0.0,0.0,0.0,2.6136,2.544,2.4906,2.3701,2.2436,2.1131,1.8934,1.708,1.564,1.4696,1.3776,1.2939,1.2557,1.2288,1.2098,1.2098,1.2098,1.2091,1.2043,1.1925,1.1786,1.1746,1.1665,1.1584,0.0,0.0,0.0,0.0,0.0,0.0,0.0,0.0,0.0,0.0,0.0,0.0,0.0,0.0,0.0,0.0,0.0,0.0,0.7988,0.7988,0.7988,0.7988,0.7988,0.7988,0.7988,0.7988,0.8094,0.8301,0.8696,0.9142,0.9605,0.9605,0.9686,0.9792,0.9792,0.9873,0.9984,0.9984,1.0103,1.0308,1.0308,1.0308,1.0295,0.0,0.0,0.0,0.0,0.0,0.0,0.0,1.0595,1.0684,1.0684,1.0684,1.0684,1.0684,1.0609,1.0493,1.0493,1.0385,1.0342,1.046,1.0493,1.0609,1.1097,1.1315,1.1477,1.1732,1.1793,1.1793,1.1793,1.1793,0.0,0.0,0.0,0.0,0.0,0.0,0.0,0.0,0.0,0.0,0.0,0.0,0.0,0.0,0.0,0.0,0.0,0.0,0.0,0.0,2.5665,2.5181,2.4512,2.3852,2.2744,2.1286,1.9814,1.8067,1.6177,1.4952,1.374,1.2575,1.2247,1.2091,1.2091,1.2091,1.2098,1.2077,1.1891,1.1793,1.1773,1.1638,1.1584,1.1584,0.0,0.0,0.0,0.0,0.0,0.0,0.0,0.0,0.0,0.0,0.0,0.0,0.0,0.0,0.0,0.0,0.0,0.0,0.7988,0.7988,0.7988,0.7988,0.7988,0.7988,0.7988,0.8147,0.8275,0.8444,0.89,0.9186,0.9322,0.951,0.9632,0.968,0.9744,0.9812,0.9859,0.9859,0.9947,1.0089,1.0089,1.0089,1.0082,0.0,0.0,0.0,0.0,0.0,0.0,0.0,0.0,0.0,1.0684,1.0684,1.0684,1.0684,1.0609,1.0493,1.0493,1.031,1.015,1.0432,1.0493,1.0609,1.1097,1.1315,1.1477,1.1732,1.1918,1.1932,1.1685,1.1644,0.0,0.0,0.0,0.0,0.0,0.0,0.0,0.0,0.0,0.0,0.0,0.0,0.0,0.0,0.0,0.0,0.0,0.0,0.0,0.0,2.5358,2.4988,2.4584,2.3925,2.2969,2.1776,1.9883,1.8119,1.6554,1.5072,1.38,1.2685,1.2039,1.1687,1.1599,1.1708,1.1748,1.1748,1.1665,1.1644,1.1644,1.1597,1.1584,1.1584,0.0,0.0,0.0,0.0,0.0,0.0,0.0,0.0,0.0,0.0,0.7988,0.7988,0.0,0.0,0.0,0.0,0.0,0.0,0.0,0.7988,0.7988,0.7988,0.7988,0.804,0.8108,0.8336,0.8486,0.8574,0.8873,0.9063,0.9214,0.9369,0.9462,0.9523,0.9605,0.9646,0.9646,0.9646,0.9704,0.9846,0.9846,0.9879,0.9927,0.0,0.0,0.0,0.0,0.0,0.0,0.0,0.0,0.0,1.0684,1.0684,1.0677,1.0649,1.0527,1.0392,1.0331,1.0157,1.0076,1.0344,1.0493,1.0697,1.1186,1.1416,1.1613,1.1759,1.1904,1.1898,1.1667,1.1572,0.0,0.0,0.0,0.0,0.0,0.0,0.0,0.0,0.0,0.0,0.0,0.0,0.0,0.0,0.0,0.0,0.0,0.0,0.0,0.0,2.4686,2.4476,2.4289,2.3455,2.2441,2.1266,1.9301,1.7521,1.5828,1.4508,1.3344,1.2348,1.1719,1.1389,1.1342,1.1402,1.1436,1.1436,1.1436,1.1436,1.1436,1.1436,1.1477,1.1531,0.0,0.0,0.0,0.0,0.0,0.0,0.0,0.0,0.0,0.0,0.7982,0.7988,0.0,0.0,0.0,0.0,0.0,0.0,0.0,0.0,0.7988,0.7988,0.8027,0.8108,0.8315,0.8567,0.8716,0.873,0.873,0.8872,0.9158,0.9207,0.9254,0.939,0.9403,0.941,0.941,0.941,0.9462,0.9591,0.9591,0.9673,0.9771,0.9771,0.0,0.0,0.0,0.0,0.0,0.0,0.0,0.0,1.0717,1.0677,1.067,1.0534,1.0378,1.0236,1.0076,0.9997,1.0062,1.0276,1.0555,1.0894,1.1314,1.1655,1.1846,1.1773,0.0,1.1746,1.1662,0.0,0.0,0.0,0.0,0.0,0.0,0.0,0.0,0.0,0.0,0.0,0.0,0.0,0.0,0.0,0.0,0.0,0.0,0.0,0.0,0.0,2.3803,2.379,2.3763,2.2717,2.1478,0.0,1.8362,1.6407,1.4403,1.348,1.2534,1.162,1.1317,1.1179,1.1179,1.1193,1.12,1.12,1.12,1.12,1.12,1.12,1.1288,1.1369,0.0,0.0,0.0,0.0,0.0,0.0,0.0,0.0,0.0,0.0,0.0,0.0,0.0,0.0,0.0,0.0,0.0,0.0,0.0,0.0,0.7988,0.7988,0.8153,0.8315,0.8457,0.8615,0.8743,0.8865,0.8865,0.8892,0.896,0.9124,0.9228,0.9233,0.9356,0.941,0.941,0.941,0.943,0.9429,0.9429,0.9517,0.9652,0.9652,0.9697,0.0,0.0,0.0,0.0,0.0,0.0,0.0,1.0683,1.0636,1.0534,1.05,1.0304,1.0089,1.0209,1.0109,1.0109,1.0495,1.0941,1.1307,1.1518,1.1835,1.2028,1.1703,1.1719,1.1821,1.1846,0.0,0.0,0.0,0.0,0.0,0.0,0.0,0.0,0.0,0.0,0.0,0.0,0.0,0.0,0.0,0.0,0.0,0.0,0.0,0.0,2.3803,2.3803,2.3661,2.342,2.2384,2.1192,0.0,1.7678,1.5673,1.3856,1.3164,1.2197,1.1063,1.0995,1.0961,1.0968,1.1118,1.12,1.12,1.12,1.12,1.12,1.12,1.122,1.1247,0.0,0.0,0.0,0.0,0.0,0.0,0.0,0.0,0.0,0.0,0.0,0.0,0.0,0.0,0.0,0.0,0.0,0.0,0.0,0.0,0.7988,0.7988,0.8255,0.843,0.8505,0.8703,0.8831,0.8912,0.8912,0.8912,0.8912,0.9015,0.9049,0.9055,0.9137,0.9171,0.9171,0.9171,0.9211,0.9301,0.9301,0.939,0.9503,0.9503,0.9591,0.969,0.969,0.0,0.0,0.0,0.0,0.0,0.0,0.0,1.041,1.0495,1.0388,1.0315,1.0587,1.0632,1.076,1.134,1.1848,1.2235,1.2366,1.2725,1.3011,1.3003,1.2653,1.2394,0.0,0.0,0.0,0.0,0.0,0.0,0.0,0.0,0.0,0.0,0.0,0.0,0.0,0.0,0.0,0.0,0.0,0.0,0.0,2.2592,2.2752,2.2947,2.2947,2.2846,2.2686,2.1815,2.0619,1.9167,1.7275,1.5144,1.2762,1.2094,1.1413,1.0806,1.0806,1.0806,1.0813,1.0921,1.0948,1.0948,1.0948,1.0948,1.0948,1.0948,1.0995,1.1063,0.0,0.0,0.0,0.0,0.0,0.0,0.0,0.0,0.0,0.0,0.0,0.0,0.0,0.0,0.0,0.0,0.0,0.0,0.0,0.0,0.0,0.7988,0.8323,0.8505,0.8505,0.8757,0.8899,0.8872,0.8899,0.8899,0.8872,0.8899,0.8912,0.8912,0.8912,0.8912,0.8912,0.8912,0.9008,0.9145,0.9145,0.9233,0.9369,0.9369,0.9435,0.9571,0.9571,0.971,0.9947,0.9967,0.0,0.0,0.0,0.0,1.0373,1.0616,1.0707,1.0823,1.1286,1.1586,1.1883,1.2433,1.2959,1.3392,1.3543,1.3967,1.4386,1.4663,1.391,0.0,0.0,0.0,0.0,0.0,0.0,0.0,0.0,0.0,0.0,0.0,0.0,0.0,0.0,0.0,0.0,0.0,0.0,0.0,2.1943,2.1943,2.1937,2.1991,2.1991,2.1991,2.1991,2.1213,2.0084,1.8574,1.6819,1.453,1.185,1.1115,1.075,1.0684,1.0684,1.0684,1.0684,1.0684,1.0684,1.0684,1.0684,1.0684,1.0684,1.0684,1.0765,1.0874,0.0,0.0,0.0,0.0,0.0,0.0,0.0,0.0,0.0,0.0,0.0,0.0,0.0,0.0,0.0,0.0,0.0,0.0,0.7817,0.0,0.0,0.7988,0.8323,0.8505,0.8505,0.8757,0.8845,0.8743,0.8845,0.8845,0.8716,0.8852,0.8912,0.8912,0.8912,0.8912,0.8912,0.8912,0.8919,0.894,0.894,0.9055,0.9241,0.9241,0.9308,0.9437,0.9437,0.9523,0.9656,0.9778,0.992,0.0,0.0,0.0,1.0602,1.1201,1.1486,1.1766,1.2384,1.3053,1.3578,1.3669,1.3987,1.4388,1.4706,1.5345,1.583,0.0,0.0,0.0,0.0,0.0,0.0,0.0,0.0,0.0,0.0,0.0,0.0,0.0,0.0,0.0,0.0,0.0,0.0,0.0,0.0,0.0,2.1622,2.1649,2.1756,2.1977,2.1991,2.1991,2.1991,2.1051,2.003,1.8891,1.5725,1.354,1.2213,1.1479,1.0982,1.0684,1.0684,1.0684,1.0684,1.0684,1.0684,1.0684,1.0684,1.0684,1.0684,1.0684,1.0698,1.0718,0.0,0.0,0.0,0.0,0.0,0.0,0.0,0.0,0.0,0.0,0.0,0.0,0.0,0.0,0.0,0.7105,0.725,0.7472,0.7776,0.7932,0.7988,0.7988,0.8248,0.8389,0.8389,0.8574,0.8648,0.8581,0.8648,0.8696,0.871,0.875,0.8831,0.8912,0.8912,0.8912,0.8912,0.8912,0.8912,0.8912,0.8912,0.8946,0.9035,0.9035,0.9123,0.9281,0.9281,0.9408,0.9648,0.9889,1.0074,1.0268,1.0894,0.0,0.0,0.0,1.2664,1.3066,1.3967,1.4571,1.5043,1.5334,1.5925,1.6533,1.6836,1.7397,1.7874,1.7975,0.0,0.0,0.0,0.0,0.0,0.0,0.0,0.0,0.0,0.0,0.0,0.0,0.0,0.0,0.0,0.0,0.0,0.0,0.0,2.1162,2.1296,2.1309,2.1363,2.1483,2.1496,2.1496,2.1496,2.0863,1.9757,1.8117,1.5636,1.3908,1.2898,1.1975,1.1214,1.0684,1.0684,1.0684,1.0684,1.0684,1.0684,1.0684,1.0684,1.0684,1.0684,1.0684,1.0684,1.0684,0.0,0.0,0.0,0.0,0.0,0.0,0.0,0.0,0.0,0.0,0.0,0.0,0.0,0.0,0.0,0.0,0.6647,0.7084,0.7673,0.7834,0.7939,0.7988,0.8187,0.8294,0.8294,0.8437,0.8492,0.8457,0.8492,0.854,0.8655,0.8696,0.8764,0.8912,0.8912,0.8912,0.8912,0.8912,0.8912,0.8906,0.8872,0.8852,0.8852,0.8811,0.8886,0.9015,0.9056,0.0,0.0,0.0,0.0,1.0464,1.1281,1.1744,0.0,0.0,0.0,1.4811,1.5617,1.6118,1.6556,1.699,1.771,1.839,1.8704,0.0,1.9457,0.0,0.0,0.0,0.0,0.0,0.0,0.0,0.0,0.0,0.0,0.0,0.0,0.0,0.0,0.0,0.0,0.0,0.0,0.0,0.0,2.1029,2.1109,2.1042,2.1002,2.1002,2.1002,2.1002,2.1002,2.0658,1.9571,1.7765,1.6119,1.4762,1.3665,1.2547,1.1584,1.0806,1.0756,1.0664,1.0663,1.0704,1.0664,1.0663,1.0704,1.0684,1.0684,1.0684,1.0684,1.0684,0.0,0.0,0.0,0.0,0.0,0.0,0.0,0.0,0.0,0.0,0.0,0.0,0.5985,0.5829,0.5674,0.549,0.6003,0.6665,0.7463,0.7594,0.7746,0.7988,0.8187,0.0,0.8294,0.8437,0.8444,0.8308,0.8444,0.8512,0.8526,0.8642,0.8764,0.8912,0.8912,0.8912,0.8912,0.8912,0.8912,0.8899,0.875,0.8723,0.871,0.856,0.8539,0.856,0.0,0.0,0.0,0.0,0.0,0.0,0.0,0.0,1.281,0.0,0.0,0.0,1.7197,1.7723,1.8302,1.8378,1.8762,1.9234,1.9647,0.0,0.0,0.0,0.0,0.0,0.0,0.0,0.0,0.0,0.0,0.0,0.0,0.0,0.0,0.0,0.0,0.0,0.0,0.0,0.0,0.0,0.0,2.0815,2.1096,2.0855,2.0726,2.0726,2.0726,2.0726,2.0726,2.0333,1.9603,1.8547,1.7167,1.5821,1.4491,1.3219,1.2099,1.1178,1.0825,1.0636,1.0514,1.0663,1.0636,1.0521,1.0663,1.0684,1.0684,1.0684,1.0684,1.0684,0.0,0.0,0.0,0.0,0.0,0.0,0.0,0.0,0.0,0.0,0.0,0.0,0.0,0.4863,0.461,0.4456,0.5377,0.6396,0.7366,0.7544,0.7721,0.7988,0.8067,0.8101,0.8101,0.8148,0.8148,0.8101,0.8148,0.8248,0.8376,0.843,0.856,0.877,0.8865,0.8912,0.8912,0.8912,0.8912,0.8899,0.8743,0.871,0.8703,0.8648,0.0,0.0,0.0,0.0,0.0,0.0,0.0,0.0,0.0,0.0,0.0,1.5943,1.708,1.7815,1.7958,1.8311,1.8791,1.9384,1.9829,2.0228,2.0732,2.0978,2.113,0.0,0.0,0.0,0.0,0.0,0.0,0.0,0.0,0.0,0.0,0.0,0.0,0.0,0.0,0.0,0.0,0.0,0.0,0.0,0.0,0.0,2.0504,2.0424,2.0388,2.0388,2.0388,2.0388,2.0388,2.0033,1.9547,1.8976,1.7855,1.6721,1.5565,1.4044,1.2792,1.1791,1.1091,1.0598,1.039,1.0419,1.046,1.0493,1.0555,1.0636,1.0684,1.0684,1.0684,1.0684,0.0,0.0,0.0,0.0,0.0,0.0,0.0,0.0,0.0,0.0,0.0,0.0,0.0,0.0,0.3805,0.4074,0.4999,0.6056,0.7227,0.7415,0.7615,0.7988,0.7988,0.7988,0.7988,0.7988,0.7988,0.7988,0.7988,0.8094,0.8294,0.8294,0.8423,0.8635,0.8716,0.8818,0.8912,0.8912,0.8879,0.8825,0.0,0.0,0.856,0.0,0.0,0.0,0.0,0.0,0.0,0.0,0.0,0.0,0.0,0.0,0.0,0.0,1.7695,1.8218,1.8383,1.8706,1.9133,1.9714,2.025,2.0721,2.107,0.0,2.1435,0.0,0.0,0.0,0.0,0.0,0.0,0.0,0.0,0.0,0.0,0.0,0.0,0.0,0.0,0.0,0.0,0.0,0.0,0.0,0.0,0.0,2.0197,2.0104,2.0064,2.0064,2.0064,2.0104,2.0197,1.9998,1.9681,1.9376,1.8514,1.7521,1.6376,1.4858,1.3442,1.2132,1.1339,1.0688,1.0209,1.0256,1.0304,1.0351,1.0453,1.0555,1.0649,1.0671,1.0684,1.0684,0.0,0.0,0.0,0.0,0.0,0.0,0.0,0.0,0.0,0.5629,0.0,0.0,0.0,0.0,0.0,0.4388,0.4864,0.5679,0.7015,0.7162,0.7441,0.7988,0.7988,0.7988,0.7988,0.7988,0.7988,0.7988,0.7988,0.8088,0.8287,0.8287,0.8362,0.8498,0.8498,0.8642,0.8899,0.8899,0.8811,0.8689,0.0,0.8417,0.8294,0.0,0.0,0.0,0.8384,0.8423,0.0,0.9861,0.0,0.0,0.0,0.0,0.0,0.0,0.0,1.8477,0.0,0.0,0.0,1.9388,2.0043,2.0672,2.0686,0.0,0.0,0.0,0.0,0.0,0.0,0.0,0.0,0.0,0.0,0.0,0.0,0.0,0.0,0.0,0.0,0.0,0.0,0.0,0.0,0.0,0.0,1.9907,2.0157,1.9947,1.9786,1.9786,1.9773,1.9907,2.0157,2.0157,2.0006,1.9672,1.9129,1.8182,1.688,1.5658,1.4063,1.2174,1.1571,1.079,1.0021,1.0202,1.0181,1.0017,1.0365,1.0487,1.0507,1.0656,1.0684,1.0684,0.0,0.0,0.0,0.0,0.0,0.0,0.0,0.0,0.5523,0.0,0.0,0.0,0.2222,0.2165,0.2718,0.4019,0.4724,0.5684,0.7075,0.7372,0.764,0.7988,0.7988,0.7988,0.7988,0.7988,0.7988,0.7988,0.7988,0.8033,0.8081,0.8081,0.818,0.8355,0.8355,0.8457,0.8608,0.8608,0.0,0.8533,0.841,0.8328,0.0,0.0,0.0,0.0,0.0,0.8686,0.8896,0.0,1.0827,1.2023,0.0,0.0,0.0,0.0,0.0,0.0,1.8143,0.0,0.0,0.0,0.0,0.0,0.0,0.0,0.0,0.0,0.0,0.0,0.0,0.0,0.0,0.0,0.0,0.0,0.0,0.0,0.0,0.0,0.0,0.0,0.0,0.0,0.0,0.0,1.9522,1.9548,1.9629,1.9562,1.9522,1.9522,1.9279,1.917,1.925,1.9078,1.8915,1.8829,1.8633,1.7993,1.6949,1.591,1.4391,1.2505,1.1661,1.0754,0.9859,0.993,0.9954,0.9997,1.0109,1.0304,1.0493,1.0541,1.0622,1.0684,0.0,0.0,0.0,0.0,0.0,0.0,0.0,0.4954,0.4487,0.0,0.0,0.0,0.1598,0.1658,0.2375,0.3866,0.4712,0.5723,0.7104,0.7441,0.7721,0.7988,0.7988,0.7988,0.7988,0.7988,0.7988,0.7988,0.7988,0.7988,0.7988,0.7988,0.806,0.8174,0.8174,0.8221,0.8296,0.0,0.0,0.0,0.8328,0.0,0.0,0.8362,0.8328,0.0,0.0,0.0,0.8849,0.9893,1.1535,0.0,0.0,0.0,0.0,0.0,0.0,0.0,1.7822,1.8049,1.8384,0.0,0.0,0.0,1.9773,1.993,0.0,0.0,0.0,0.0,0.0,0.0,0.0,0.0,0.0,0.0,0.0,0.0,0.0,0.0,0.0,0.0,0.0,0.0,0.0,1.9401,1.9401,1.9348,1.9185,1.9093,1.9027,1.9027,1.8838,1.8744,1.8744,1.8571,1.849,1.849,1.8455,1.7937,1.6966,1.6181,1.4676,1.2664,1.1842,1.0846,0.9792,0.9792,0.9846,0.9927,0.9994,1.0123,1.0324,1.0446,1.0548,1.0636,0.0,0.0,0.0,0.0,0.0,0.0,0.0,0.0,0.0,0.0,0.2162,0.1613,0.1082,0.1365,0.2214,0.3785,0.474,0.5792,0.7061,0.7466,0.7746,0.7988,0.7988,0.7988,0.7988,0.7988,0.7988,0.7988,0.7988,0.7988,0.7988,0.7988,0.7988,0.7988,0.0,0.0,0.7988,0.0,0.0,0.8274,0.8274,0.816,0.0,0.0,0.8174,0.8033,0.8214,0.8369,0.8649,1.0029,1.2511,0.0,0.0,0.0,0.0,0.0,1.7568,1.7568,1.7595,1.7756,1.7955,0.0,0.0,0.0,1.9227,1.9466,1.9733,0.0,0.0,0.0,0.0,0.0,0.0,0.0,0.0,0.0,0.0,0.0,0.0,0.0,0.0,0.0,0.0,1.9415,1.9401,1.9401,1.9361,1.9185,1.8863,1.8637,1.849,1.849,1.8464,1.8437,1.8437,1.841,1.8384,1.8384,1.8424,1.7914,1.6958,1.6368,1.4876,1.2664,1.2053,1.1027,0.9792,0.9792,0.9792,0.9805,0.994,1.0001,1.0049,1.0344,1.0466,1.0514,0.0,0.0,0.0,0.0,0.0,0.0,0.0,0.0,0.2194,0.1866,0.1182,0.0677,0.055,0.1176,0.2081,0.3257,0.4672,0.5912,0.6817,0.754,0.7939,0.7988,0.7988,0.7988,0.7988,0.7988,0.7988,0.7988,0.7988,0.7988,0.7988,0.7988,0.7988,0.7988,0.0,0.0,0.0,0.0,0.0,0.806,0.806,0.0,0.8033,0.8214,0.8174,0.8033,0.8214,0.847,0.9023,0.0,1.2908,1.4586,0.0,0.0,0.0,0.0,0.0,0.0,0.0,0.0,0.0,0.0,0.0,0.0,1.8597,1.8704,1.8824,0.0,0.0,0.0,0.0,0.0,0.0,0.0,0.0,0.0,0.0,0.0,0.0,0.0,0.0,0.0,0.0,1.9535,1.9401,1.9401,1.9145,1.8878,1.8597,1.8517,1.849,1.849,1.8236,1.8103,1.8103,1.7889,1.7782,1.7796,1.7982,1.759,1.6666,1.6287,1.4876,1.2664,1.2053,1.1027,0.9792,0.9792,0.9792,0.9792,0.9825,0.9907,1.0028,1.0082,1.0251,1.0493,0.0,0.0,0.0,0.0,0.0,0.0,0.0,0.0,0.1312,0.1034,0.0656,0.0454,0.0581,0.1438,0.2421,0.3503,0.496,0.6137,0.6942,0.7615,0.0,0.7988,0.7988,0.0,0.0,0.0,0.7988,0.7988,0.7988,0.7988,0.7988,0.7988,0.7988,0.7988,0.7988,0.0,0.0,0.0,0.7988,0.7988,0.7988,0.0,0.802,0.8101,0.8081,0.8027,0.8126,0.8675,0.9665,1.1409,1.3032,0.0,0.0,1.6053,1.6767,0.0,1.7206,1.7259,0.0,0.0,0.0,1.7769,0.0,0.0,0.0,1.8236,1.8357,1.8651,0.0,0.0,0.0,0.0,0.0,0.0,0.0,0.0,0.0,0.0,0.0,0.0,0.0,0.0,0.0,1.9481,1.9334,1.9158,1.8878,1.8584,1.8263,1.8116,1.8036,1.8036,1.7889,1.7782,1.7782,1.7662,1.7608,1.7608,1.7742,1.7309,1.6378,1.601,1.464,1.2515,1.2012,1.1012,0.9683,0.9683,0.9683,0.969,0.9765,0.9839,0.9913,0.9988,1.0109,1.0258,0.1753,0.0,0.0,0.0,0.0,0.0,0.0,0.0,0.0555,0.0353,0.0379,0.0505,0.0783,0.1767,0.2798,0.383,0.519,0.6317,0.0,0.0,0.0,0.0,0.7988,0.7988,0.0,0.0,0.7988,0.7988,0.7988,0.7988,0.7988,0.7988,0.7988,0.0,0.0,0.0,0.0,0.0,0.0,0.7988,0.0,0.7988,0.7988,0.7988,0.7988,0.8013,0.8113,0.8956,1.0191,1.1565,0.0,1.436,1.5169,1.5936,0.0,0.0,0.0,0.0,0.0,0.0,0.0,0.0,0.0,1.7649,0.0,0.0,0.0,1.8343,0.0,0.0,0.0,0.0,0.0,0.0,0.0,0.0,0.0,0.0,0.0,0.0,0.0,0.0,0.0,1.9428,1.9254,1.8836,1.8624,1.833,1.7942,1.7716,1.7608,1.7608,1.7608,1.7608,1.7608,1.7608,1.7608,1.7608,1.7608,1.7143,1.6284,1.5851,1.4486,1.2489,1.2065,1.1008,0.9653,0.9653,0.9594,0.9578,0.9727,0.9765,0.9805,0.9927,1.0008,1.0096,0.0578,0.053,0.0,0.0,0.0,0.0,0.0,0.0,0.0076,0.005,0.0252,0.0505,0.0783,0.0,0.0,0.0,0.0,0.0,0.6817,0.0,0.0,0.0,0.0,0.0,0.7988,0.0,0.0,0.7988,0.7988,0.7988,0.7988,0.7988,0.7988,0.0,0.7988,0.0,0.0,0.0,0.7988,0.0,0.7988,0.7988,0.0,0.7988,0.7988,0.8063,0.8528,0.927,1.0191,0.0,1.2867,1.4099,0.0,1.5482,1.5968,0.0,0.0,0.0,0.0,0.0,0.0,0.0,1.7608,0.0,0.0,0.0,1.7716,1.8009,0.0,0.0,0.0,0.0,0.0,0.0,0.0,0.0,0.0,0.0,0.0,0.0,0.0,0.0,0.0,0.0,1.916,1.8584,1.8504,1.8237,1.7689,1.7622,1.7608,1.7608,1.7608,1.7608,1.7608,1.7608,1.7608,1.7608,1.7608,1.7263,1.6611,1.6046,1.4742,1.2907,1.2303,1.1215,0.9779,0.9779,0.9634,0.9422,0.9578,0.9707,0.9792,0.9812,1.0019,1.0256,0.0176,0.0177,0.0126,0.0,0.0,0.0,0.0,0.0,0.0,0.0,0.0415,0.0782,0.0,0.0,0.0,0.0,0.0,0.6766,0.0,0.0,0.0,0.0,0.0,0.0,0.0,0.0,0.0,0.7988,0.7988,0.7988,0.7988,0.7988,0.0,0.0,0.7988,0.0,0.7988,0.0,0.7988,0.0,0.0,0.0,0.0,0.7988,0.7988,0.8063,0.8602,0.932,1.0191,0.0,1.2845,0.0,0.0,0.0,0.0,0.0,0.0,0.0,0.0,0.0,0.0,0.0,0.0,0.0,0.0,0.0,1.7622,0.0,0.0,0.0,0.0,0.0,0.0,0.0,0.0,0.0,0.0,0.0,0.0,0.0,0.0,0.0,0.0,0.0,0.0,0.0,0.0,1.8251,1.7635,1.7608,1.7608,1.7608,1.7608,1.7608,1.7608,1.7608,1.7608,1.7608,1.7608,1.7198,1.647,1.6157,1.5038,1.3265,1.2833,1.1788,1.0436,1.0273,0.9938,0.9517,0.9677,0.9712,0.9677,0.9758,0.9927,1.013,0.0,0.0,0.0,0.0,0.0,0.0,0.0,0.0,0.0,0.0,0.0,0.0,0.1624,0.3061,0.0,0.0,0.6282,0.7178,0.0,0.0,0.7988,0.0,0.0,0.0,0.0,0.0,0.0,0.7988,0.7988,0.7988,0.7988,0.7988,0.7988,0.0,0.0,0.7988,0.7988,0.0,0.7988,0.7988,0.7988,0.7988,0.7988,0.7988,0.7988,0.8063,0.8602,0.932,1.0191,1.1565,1.2845,0.0,1.4855,0.0,0.0,0.0,0.0,0.0,1.6898,0.0,0.0,0.0,0.0,0.0,0.0,0.0,0.0,0.0,0.0,0.0,0.0,0.0,0.0,0.0,0.0,0.0,0.0,0.0,0.0,0.0,0.0,0.0,0.0,0.0,0.0,1.8531,1.841,1.8143,1.7635,1.7608,1.7608,1.7608,1.7608,1.7608,1.7608,1.7608,1.7568,1.7488,1.7568,1.7173,1.641,1.6377,1.5444,1.3906,1.358,1.2627,1.1284,1.1022,1.0527,0.9898,0.9932,0.9822,0.9653,0.9754,0.9913,1.0096,0.0,0.0,0.0,0.0,0.0,0.0,0.0,0.0,0.0,0.0,0.0,0.0,0.0,0.0,0.0,0.0,0.0,0.7178,0.7578,0.0,0.7988,0.0,0.0,0.7988,0.0,0.0,0.0,0.0,0.0,0.7988,0.7988,0.7988,0.7988,0.0,0.7988,0.7988,0.7988,0.7988,0.7988,0.7988,0.7988,0.7988,0.7988,0.0,0.7988,0.8063,0.8602,0.0,0.0,1.1565,1.2845,0.0,0.0,0.0,0.0,0.0,0.0,0.0,0.0,0.0,0.0,1.7219,0.0,0.0,0.0,0.0,1.7608,0.0,0.0,0.0,0.0,0.0,0.0,0.0,0.0,0.0,0.0,0.0,0.0,0.0,0.0,0.0,0.0,0.0,0.0,1.8517,1.8196,1.7889,1.7595,1.7608,1.7608,1.7608,1.7608,1.7608,1.7608,1.7608,1.7461,1.7219,1.7474,1.7278,1.6691,1.6674,1.6045,1.4949,1.4676,1.3721,1.2318,1.2064,1.1436,1.0654,1.0374,1.0077,0.98,0.9804,1.0012,1.0308,0.0,0.0,0.0,0.0,0.0,0.0,0.0,0.053,0.0,0.0,0.0,0.0,0.0,0.4354,0.5313,0.0,0.0,0.7433,0.7827,0.7939,0.0,0.0,0.0,0.7988,0.0,0.0,0.0,0.0,0.0,0.7988,0.7988,0.7988,0.7988,0.7988,0.0,0.7988,0.0,0.0,0.0,0.0,0.0,0.7988,0.7988,0.0,0.0,0.8063,0.8602,0.9216,0.0,1.1101,1.2238,1.331,1.4073,1.4626,1.5078,1.5438,1.5752,0.0,0.0,0.0,1.6886,1.6886,0.0,0.0,0.0,0.0,0.0,0.0,0.0,0.0,0.0,0.0,0.0,0.0,0.0,0.0,0.0,0.0,0.0,0.0,0.0,0.0,0.0,0.0,0.0,1.8517,1.8183,1.7889,0.0,1.7608,1.7608,1.7608,1.7608,1.7608,1.7608,1.7421,1.73,1.7206,1.73,1.7119,1.6704,1.6937,1.6604,1.5859,1.5565,1.4842,1.3808,1.3322,1.2409,1.1251,1.0936,1.0416,0.9793,0.9804,1.0012,1.0342,0.0,0.0,0.0,0.0,0.0,0.0,0.0,0.0,0.0,0.0,0.2976,0.0,0.4495,0.0,0.61,0.0,0.7311,0.7668,0.7977,0.7988,0.0,0.7988,0.7988,0.0,0.0,0.0,0.0,0.0,0.0,0.7988,0.7988,0.7988,0.7988,0.7988,0.0,0.7988,0.7988,0.7988,0.7988,0.0,0.0,0.7988,0.0,0.0,0.8088,0.8056,0.0,0.9016,0.9699,1.0674,1.175,1.2825,1.3631,1.4218,1.4698,1.5145,1.5378,1.5578,1.5909,1.6166,0.0,0.0,1.6805,0.0,1.7179,0.0,0.0,0.0,0.0,0.0,0.0,0.0,0.0,0.0,0.0,0.0,0.0,1.7983,0.0,0.0,0.0,0.0,0.0,0.0,1.8463,1.8183,1.7889,1.7635,0.0,0.0,1.7501,1.7608,1.7608,1.7608,1.7608,1.7314,1.7152,1.702,1.7152,1.7024,1.6701,1.7147,1.7067,1.6616,1.643,1.5924,1.5164,1.4589,1.3538,1.231,1.1787,1.0985,1.0077,0.9894,1.0012,1.0356,0.0,0.0,0.0,0.0,0.0264,0.0,0.0,0.0,0.2506,0.0,0.4222,0.5135,0.5628,0.6418,0.7047,0.739,0.7635,0.0,0.7995,0.7988,0.0,0.0,0.7988,0.7988,0.7988,0.0,0.0,0.0,0.0,0.0,0.7988,0.7988,0.7988,0.7988,0.7988,0.0,0.7988,0.7988,0.7988,0.7988,0.7988,0.8013,0.8038,0.8311,0.0,0.8085,0.8209,0.8699,0.9418,1.0296,1.1421,1.2609,1.3549,1.4158,1.4597,1.4892,1.4981,1.5026,1.532,1.5591,1.5848,1.619,0.0,0.0,0.0,0.0,1.7259,0.0,0.0,0.0,0.0,0.0,0.0,0.0,0.0,0.0,0.0,0.0,0.0,0.0,0.0,0.0,0.0,1.8196,1.7889,1.7609,1.7341,1.7206,0.0,0.0,1.7314,1.7595,1.7608,1.7608,1.7608,1.7314,1.7033,1.6727,1.7033,1.7033,1.674,1.7315,1.745,1.7226,1.7226,1.6882,1.6297,1.5752,1.4831,1.3661,1.2833,1.1779,1.0622,1.0035,1.0032,1.0356,0.0,0.0159,0.0378,0.0,0.0731,0.1007,0.0,0.0,0.0,0.0,0.5344,0.6032,0.6845,0.6955,0.718,0.7648,0.768,0.0,0.0,0.0,0.0,0.7988,0.7988,0.7988,0.7988,0.7988,0.0,0.7988,0.0,0.0,0.7988,0.7988,0.7988,0.7988,0.0,0.7988,0.7988,0.7988,0.7988,0.7988,0.7988,0.8113,0.0,0.0,0.8799,0.8978,0.9011,0.9083,0.9309,1.0267,1.1038,1.1772,1.2709,1.3327,1.3819,1.4453,1.4629,1.4696,1.5013,1.5307,1.5524,1.5605,1.6029,1.6431,0.0,0.0,0.0,0.0,0.0,0.0,0.0,0.0,0.0,0.0,0.0,0.0,0.0,0.0,0.0,1.7394,0.0,0.0,1.845,1.821,1.7903,1.7635,1.7341,0.0,0.0,0.0,0.0,1.7595,1.7608,1.7608,1.7608,1.7314,1.7166,1.706,1.7166,1.7166,1.7073,1.7448,1.7556,1.7503,1.7503,1.7305,1.6908,1.635,1.5405,1.4267,1.32,1.1816,1.0373,1.0239,1.0247,1.0356,0.0,0.0,0.0,0.138,0.0,0.0,0.2736,0.0,0.0,0.5819,0.6449,0.0,0.76,0.7597,0.7655,0.7864,0.781,0.0,0.7988,0.0,0.0,0.7988,0.7988,0.7988,0.7988,0.7988,0.0,0.7988,0.0,0.0,0.7988,0.7988,0.7988,0.7988,0.0,0.7988,0.7988,0.7988,0.7988,0.8013,0.8137,0.0,0.0,0.9037,0.9388,0.969,1.0058,0.9925,0.9674,1.0371,1.1053,1.1757,1.2613,1.3179,1.3642,1.4175,1.4335,1.4389,1.4696,1.4897,1.5044,1.52,1.5574,1.5949,1.6046,1.6313,1.6553,0.0,0.0,0.0,0.0,0.0,0.0,0.0,0.0,0.0,0.0,0.0,0.0,0.0,1.7434,0.0,1.8063,1.7929,1.7702,1.7448,1.73,0.0,0.0,0.0,0.0,1.7595,1.7608,1.7608,1.7608,1.7314,1.7139,1.6979,1.6979,1.6913,1.6831,1.7234,1.7421,1.7421,1.7555,1.7503,1.7331,1.6882,1.6145,1.5192,1.3534,1.2001,1.0708,1.0577,1.0435,1.0356,0.0,0.0,0.0,0.0,0.0,0.0,0.0,0.4899,0.0,0.6722,0.0,0.7874,0.8026,0.8175,0.8187,0.8027,0.0,0.7988,0.7988,0.7988,0.7988,0.7988,0.7988,0.7988,0.7988,0.7988,0.0,0.0,0.0,0.0,0.7988,0.7988,0.7988,0.7988,0.0,0.0,0.0,0.8038,0.8063,0.8088,0.8386,0.8676,0.9025,0.9606,1.0038,1.0445,1.1173,1.0949,1.04,1.0718,1.1413,1.2207,1.2924,1.3392,1.3765,1.4018,1.4103,1.4135,1.4367,1.4474,1.4567,1.4865,1.5146,1.5404,1.5635,1.5912,1.6203,1.6433,1.6273,0.0,0.0,0.0,0.0,0.0,0.0,0.0,0.0,0.0,0.0,0.0,0.0,0.0,0.0,1.7582,1.7488,1.7219,1.7206,0.0,0.0,0.0,0.0,1.7595,1.7608,0.0,1.7608,0.0,1.7086,1.6767,1.6767,1.6607,1.6377,1.6951,1.7206,1.7219,1.7488,1.7608,1.7582,1.7305,1.6793,1.594,1.3779,1.2302,1.1316,1.0946,1.0594,1.0356,0.0,0.0,0.0,0.0,0.0,0.5402,0.6056,0.632,0.6735,0.7508,0.7814,0.8046,0.822,0.8123,0.8047,0.7988,0.7988,0.0,0.0,0.0,0.0,0.7988,0.7988,0.7988,0.7988,0.7988,0.7988,0.0,0.0,0.0,0.7988,0.7988,0.7988,0.7988,0.0,0.0,0.8013,0.8237,0.0,0.8386,0.8857,0.9352,0.9846,1.0401,1.105,1.1708,1.2003,1.1696,1.1207,1.1854,1.2293,1.2656,1.3179,1.3498,1.3765,1.4018,1.4103,1.4116,1.417,1.4335,1.4514,1.4567,1.4816,1.5079,1.5133,1.5173,1.5227,1.528,1.5253,1.5236,1.5236,0.0,0.0,0.0,0.0,0.0,0.0,0.0,0.0,0.0,0.0,0.0,0.0,0.0,0.0,0.0,0.0,0.0,0.0,0.0,0.0,0.0,0.0,0.0,0.0,0.0,0.0,1.71,1.71,1.6939,1.6647,1.7045,1.7206,1.7219,1.7488,1.7608,1.7582,1.7305,1.6473,1.5232,1.3819,1.2598,1.1649,1.1047,1.0594,1.0356,0.0,0.0,0.0,0.0,0.0,0.0,0.0,0.7464,0.0,0.8014,0.8176,0.8275,0.8289,0.8133,0.7988,0.7988,0.7988,0.7988,0.7988,0.7988,0.7988,0.7988,0.7988,0.0,0.7988,0.7988,0.7988,0.7988,0.0,0.0,0.0,0.0,0.0,0.8013,0.0,0.8212,0.0,0.0,0.0,0.9072,0.9772,1.0278,1.0687,1.1334,1.1898,1.2417,1.276,1.2733,1.2571,1.2711,1.2966,1.3264,1.3476,1.3722,1.3934,1.406,1.4103,1.4103,1.4103,1.4188,1.4295,1.4295,1.4509,1.4736,1.4736,1.4879,1.5008,1.5008,1.5008,1.5008,1.5008,1.5106,0.0,0.0,0.0,0.0,0.0,0.0,0.0,0.0,0.0,0.0,0.0,0.0,0.0,0.0,0.0,0.0,0.0,0.0,0.0,0.0,0.0,0.0,0.0,0.0,0.0,1.6939,1.6792,1.6565,1.6248,1.6714,1.6939,1.6966,1.7421,1.7608,1.7609,1.7593,1.7036,1.6029,1.4932,1.3699,1.2427,1.1503,1.0903,1.0579,0.0,0.4023,0.0,0.0,0.6619,0.0,0.7956,0.8247,0.838,0.8347,0.8401,0.841,0.826,0.8088,0.7988,0.7988,0.7988,0.7988,0.7988,0.7988,0.7988,0.7988,0.7988,0.7988,0.7988,0.7988,0.7988,0.0,0.0,0.0,0.0,0.0,0.0,0.0,0.0,0.0,0.0,0.0,0.9698,1.0002,1.087,1.1322,1.1606,1.2285,1.271,1.2963,1.3322,1.3603,1.373,1.3413,1.3532,1.3786,1.3786,1.3934,1.4103,1.4103,1.4103,1.4103,1.4103,1.4103,1.4103,1.4103,1.4255,1.4407,1.4407,1.4616,1.4798,1.4798,1.4798,1.4798,1.4798,1.4852,0.0,0.0,0.0,0.0,0.0,0.0,0.0,0.0,0.0,0.0,0.0,0.0,0.0,0.0,0.0,0.0,0.0,0.0,0.0,0.0,0.0,1.7582,1.7515,0.0,1.6993,0.0,1.6404,1.6152,1.5915,1.646,1.674,1.6834,1.7381,1.7622,1.7702,1.7959,1.7707,1.7018,1.6071,1.4719,1.3162,1.2024,1.1253,1.0714,0.0,0.0,0.0,0.0,0.0,0.0,0.0,0.8507,0.8608,0.8493,0.8377,0.826,0.8054,0.802,0.7988,0.7988,0.7988,0.7988,0.7988,0.7988,0.7988,0.7988,0.7988,0.7988,0.7988,0.7988,0.7988,0.0,0.0,0.0,0.0,0.0,0.0,0.0,0.0,0.0,0.0,1.033,1.0806,1.114,1.2131,1.255,1.2619,1.3169,1.3473,1.3608,1.3664,1.3849,1.406,1.4018,1.4018,1.406,1.406,1.4082,1.4103,1.4103,1.4103,1.4103,1.4103,1.4103,1.4103,1.4103,1.4129,1.4143,1.4143,1.417,1.4183,1.4183,1.4183,1.4183,1.4183,1.4389,1.4656,0.0,0.0,0.0,0.0,0.0,0.0,0.0,0.0,0.0,0.0,1.6605,0.0,0.0,0.0,0.0,0.0,0.0,0.0,1.7206,0.0,1.7488,1.7246,1.7219,0.0,1.6337,1.631,1.6284,1.627,1.6567,1.6886,1.7179,1.7474,1.7742,1.7995,1.8261,1.7998,1.7363,1.6434,1.5075,1.3513,1.2353,1.1356,1.052,0.0,0.0,0.0,0.0,0.0,0.0,0.0,0.8447,0.8451,0.8389,0.8328,0.8214,0.8033,0.7988,0.7988,0.7988,0.7988,0.7988,0.7988,0.7988,0.7988,0.7988,0.7988,0.7988,0.7988,0.7988,0.7988,0.0,0.0,0.0,0.0,0.0,0.0,0.0,0.0,1.0314,1.0625,1.1546,1.2106,1.2422,1.3294,1.3543,1.3423,1.3952,1.3973,1.3716,1.3889,1.4018,1.4103,1.4103,1.4103,1.4103,1.4103,1.4103,1.4103,1.4103,1.4103,1.4103,1.4103,1.4103,1.4103,1.4103,1.4103,1.4103,1.4103,1.4103,1.4103,1.4103,1.4103,1.4103,1.4103,1.4175,1.4416,0.0,0.0,0.0,0.0,0.0,0.0,0.0,0.0,0.0,0.0,0.0,1.6233,0.0,0.0,0.0,0.0,0.0,0.0,1.6658,0.0,1.7207,1.6913,1.6739,1.6538,1.6297,1.6086,1.6005,1.6019,1.6486,1.6967,1.7448,1.7729,1.8036,1.8316,1.8576,1.8555,1.825,1.7313,1.6083,1.4659,1.3226,1.2153,1.134,0.7036,0.0,0.7935,0.0,0.838,0.8381,0.8445,0.8362,0.8281,0.8208,0.8201,0.816,0.8027,0.7988,0.7988,0.7988,0.7988,0.7988,0.7988,0.7988,0.7988,0.7988,0.7988,0.0,0.7988,0.7988,0.7988,0.7988,0.7988,0.0,0.0,0.0,0.0,0.0,1.087,1.1458,1.1824,1.2762,1.3342,1.3631,1.4364,1.44,1.4096,1.4546,1.4349,1.3849,1.4018,1.4103,1.4103,1.4103,1.4103,1.4103,1.4103,1.4103,1.4103,1.4103,1.4103,1.4103,1.4103,1.4103,1.4103,1.4103,1.4103,1.4103,1.4103,1.4103,1.4103,1.4103,1.4103,1.4103,1.4103,1.4162,1.4397,0.0,0.0,0.0,0.0,0.0,0.0,0.0,1.5524,1.5364,1.5307,1.5524,0.0,0.0,0.0,0.0,0.0,0.0,0.0,0.0,0.0,0.0,0.0,1.6404,1.6257,1.6139,1.5901,1.5848,1.5979,1.6567,1.7114,1.7635,1.7982,1.8276,1.8517,1.8891,1.8999,1.8823,1.7948,1.685,1.558,1.4152,1.3014,1.2139,0.7878,0.8163,0.8366,0.8656,0.8587,0.8464,0.8321,0.8301,0.824,0.804,0.7995,0.7988,0.7988,0.7988,0.7988,0.7988,0.7988,0.7988,0.7988,0.7988,0.7988,0.0,0.0,0.7988,0.7988,0.7988,0.7988,0.7988,0.0,0.0,0.8411,0.0,1.0265,1.083,1.1907,1.2651,1.3125,1.3932,1.4448,1.4736,1.5261,1.5123,1.4613,1.4896,1.4625,1.4103,1.4103,1.4103,1.4103,1.4103,1.4103,1.4103,1.4103,1.4103,1.4103,1.4103,1.4103,1.4103,1.4103,1.4103,1.4103,1.4103,1.4103,1.4103,1.4103,1.4103,1.4103,1.4103,1.4103,1.4103,1.4103,1.4322,1.4616,1.4932,0.0,0.0,0.0,0.0,0.0,0.0,1.5404,1.5307,1.5013,0.0,0.0,0.0,0.0,0.0,0.0,0.0,0.0,1.6324,1.6898,0.0,1.631,1.6297,1.6126,1.5808,1.5808,1.5955,1.631,1.6924,1.7327,1.7635,1.8223,1.849,1.8558,1.9147,1.9214,1.8823,1.8169,1.7173,1.5965,1.4957,1.3794,1.266,0.8165,0.8392,0.8568,0.8574,0.8457,0.8315,0.8133,0.8088,0.8067,0.7995,0.7988,0.7988,0.7988,0.7988,0.7988,0.0,0.7988,0.7988,0.0,0.7988,0.7988,0.7988,0.7988,0.8088,0.8262,0.8287,0.8361,0.8552,0.0,0.0,0.0,1.0413,1.1272,1.2116,1.3039,1.3715,1.422,1.4843,1.5153,1.5261,1.5594,1.5488,1.5116,1.5044,1.4745,1.4362,1.4162,1.4103,1.4103,1.4103,1.4103,1.4103,1.4103,1.4103,1.4103,1.4103,1.4103,1.4103,1.4103,1.4103,1.4103,1.4103,1.4103,1.4103,1.4103,1.4103,1.4103,1.4103,1.4103,1.417,1.4349,1.4434,1.4661,1.5177,0.0,0.0,0.0,0.0,0.0,0.0,0.0,1.5364,0.0,1.5337,0.0,0.0,0.0,0.0,0.0,0.0,0.0,0.0,1.6672,0.0,1.6297,1.6072,1.5901,1.5808,1.5808,1.5979,1.631,1.6698,1.7033,1.7354,1.817,1.849,1.8558,1.916,1.933,1.9214,1.8765,1.7964,1.695,1.619,1.5213,1.4252,0.8433,0.8535,0.8594,0.8526,0.8389,0.8247,0.804,0.7988,0.7988,0.7988,0.7988,0.7988,0.7988,0.7988,0.0,0.7988,0.7988,0.8038,0.8137,0.8162,0.8237,0.8435,0.846,0.8584,0.8857,0.0,0.0,0.9245,0.9542,1.001,1.0634,1.1507,1.236,1.3184,1.398,1.4592,1.5022,1.5452,1.5618,1.5618,1.5761,1.5635,1.5378,1.5213,1.487,1.4474,1.4309,1.4175,1.4103,1.4103,1.4103,1.4103,1.4103,1.4103,1.4103,1.4103,1.4103,1.4103,1.4103,1.4103,1.4103,1.4103,1.4103,1.4103,1.4103,1.4103,1.4103,1.4103,1.4175,1.4309,1.4461,1.4696,1.4963,1.5337,0.0,1.5595,0.0,0.0,0.0,0.0,0.0,0.0,0.0,1.5337,0.0,0.0,0.0,0.0,0.0,0.0,0.0,1.6471,1.6607,0.0,1.6297,1.5979,1.5808,1.5808,1.5808,1.5979,1.631,1.6567,1.6874,1.7246,1.7983,1.8384,1.8531,1.904,1.9294,1.9372,1.9026,1.8473,1.7772,1.722,1.6514,1.5728,0.8669,0.8587,0.0,0.0,0.8396,0.0,0.8054,0.7995,0.7988,0.7988,0.8013,0.8038,0.8038,0.8063,0.8088,0.8088,0.0,0.0,0.0,0.8478,0.8708,0.9236,0.9286,0.0,0.9698,0.9698,0.9846,1.0142,1.0919,1.1433,1.1736,1.2713,1.3463,1.4028,1.4783,1.5261,1.5547,1.5713,1.5808,1.5808,1.5808,1.5648,1.5431,1.5404,1.5044,1.4527,1.4501,1.4335,1.4103,1.4103,1.4103,1.4103,1.4103,1.4103,1.4103,1.4103,1.4103,1.4103,1.4103,1.4103,1.4103,1.4103,1.4095,1.4122,1.417,1.417,1.417,1.417,1.4362,1.4541,1.4554,1.503,1.5404,1.5418,1.5635,1.5808,1.5808,0.0,0.0,0.0,0.0,0.0,0.0,1.5294,1.5431,0.0,0.0,0.0,0.0,0.0,1.702,1.6714,1.67,1.6567,1.6297,1.5979,1.5808,1.5808,1.5808,1.5955,1.6284,1.6567,1.6886,1.7206,1.7756,1.8196,1.8517,1.8783,1.9092,1.9372,1.9055,1.8735,1.8386,1.8081,1.7613,1.7056,0.0,0.0,0.8655,0.8655,0.8471,0.8281,0.8247,0.8088,0.7988,0.7988,0.8187,0.8311,0.8311,0.8659,0.8914,0.8914,0.8535,0.851,0.8989,0.9196,0.9468,0.9797,1.0019,1.0339,1.0806,1.083,1.1051,1.1541,1.2082,1.2495,1.2762,1.3619,1.4292,1.4831,1.5237,1.5523,1.5737,1.5784,1.5808,1.5808,1.5808,1.5768,1.5675,1.5484,1.5177,1.4852,1.4581,1.4335,1.4103,1.4103,1.4103,1.4103,1.4103,1.4103,1.4103,1.4103,1.4103,1.4103,1.4103,1.4103,1.4103,1.4103,1.4255,1.4482,1.4732,1.4794,1.4794,1.4794,1.4839,1.4946,1.515,1.5297,1.5471,1.5675,1.5768,1.5808,1.5808,0.0,0.0,0.0,1.5701,1.5675,1.5631,1.5661,1.5701,0.0,0.0,0.0,0.0,0.0,1.678,1.6714,1.67,1.6567,1.6297,1.5979,1.5808,1.5808,1.5808,1.5848,1.5952,1.6473,1.674,1.686,1.7662,1.8196,1.8517,1.8783,1.9092,1.9401,1.9301,1.9098,1.8765,1.8706,1.8415,1.8006,0.8498,0.8741,0.8925,0.8925,0.8836,0.8737,0.8685,0.8485,0.8411,0.8535,0.8684,0.8857,0.9105,0.9402,0.9723,1.0068,0.9525,0.9352,0.9895,1.0183,1.0592,1.1204,1.1375,1.1692,1.2228,1.2262,1.2457,1.2869,1.3366,1.3679,1.3859,1.4532,1.4999,1.5285,1.5523,1.5713,1.5808,1.5808,1.5808,1.5808,1.5808,1.5808,1.5781,1.5635,1.5337,1.4981,1.4776,1.4456,1.4103,1.4103,1.4103,1.4103,1.4103,1.4103,1.4108,1.4242,1.4188,1.4103,1.4103,1.4188,1.4322,1.4477,1.4625,1.4785,1.4946,1.5008,1.5008,1.5008,1.5093,1.5227,1.5364,1.5511,1.5621,1.5781,1.5808,1.5808,1.5808,1.5808,0.0,1.5808,1.5808,1.5808,1.5808,1.5808,1.5808,1.5808,0.0,0.0,1.6687,1.6967,1.7073,1.6939,1.678,1.6567,1.6297,1.5979,1.5808,1.5808,1.5808,1.5808,1.5821,1.6299,1.658,1.674,1.7368,1.7956,1.8504,1.8664,1.8985,1.9401,1.9401,1.9301,1.9113,1.9113,1.901,1.8807,0.8564,0.9009,0.9365,0.9365,0.942,0.944,0.9292,0.9125,0.9103,0.9286,0.9434,0.9673,1.0117,1.0314,1.0674,1.136,1.0919,1.0723,1.1066,1.1336,1.1887,1.2823,1.2931,1.3173,1.3655,1.3728,1.3859,1.4076,1.4592,1.4831,1.4831,1.5333,1.5547,1.5547,1.5713,1.5808,1.5808,1.5808,1.5808,1.5808,1.5808,1.5808,1.5808,1.5808,1.5498,1.5053,1.5053,1.4705,1.4236,1.4183,1.4148,1.4148,1.4095,1.4143,1.4202,1.4421,1.4376,1.4236,1.4236,1.4402,1.4656,1.4972,1.5053,1.5066,1.5106,1.512,1.512,1.512,1.5297,1.5458,1.5458,1.5635,1.5808,1.5808,1.5808,1.5808,1.5808,0.0,1.5808,1.5808,1.5808,1.5808,1.5808,1.5808,1.5808,1.5808,1.6262,0.0,0.0,1.7141,1.7314,1.7139,1.6834,1.654,1.623,1.5928,1.5808,1.5808,1.5808,1.5808,1.5821,1.6163,1.6458,1.6727,1.7046,1.7662,1.8424,1.8477,1.8839,1.9334,1.9374,1.9401,1.9401,1.9401,1.9401,1.933,0.9042,0.9667,1.0135,1.0135,1.0232,1.0243,1.0066,1.0059,1.0012,0.9896,1.0462,1.0929,1.1002,1.1765,1.2315,1.2471,1.298,1.3052,1.2436,1.2665,1.3076,1.3679,1.3932,1.4196,1.452,1.4736,1.4868,1.4916,1.5213,1.538,1.538,1.5642,1.5761,1.5761,1.5784,1.5808,1.5808,1.5808,1.5808,1.5808,1.5808,1.5808,1.5808,1.5808,1.5618,1.5347,1.5347,1.5133,1.4812,1.4536,1.4434,1.4394,1.4162,1.4255,1.4447,1.4487,1.4669,1.4852,1.4852,1.4879,1.4986,1.528,1.5347,1.5391,1.5608,1.5675,1.5675,1.5675,1.5701,1.5741,1.5741,1.5781,1.5808,1.5808,1.5808,1.5808,1.5808,0.0,1.5808,1.5808,1.5808,1.5808,1.5808,1.5808,1.5808,1.5808,1.5888,1.6155,1.6673,1.6553,1.6591,1.6767,1.6727,1.6446,1.5875,1.5821,1.5808,1.5808,1.5808,1.5808,1.5821,1.6163,1.6458,1.6727,1.7046,1.7541,1.8103,1.8384,1.8691,1.9011,1.9294,1.9401,1.9401,1.9401,1.9401,1.933,0.9827,1.062,1.1263,1.1419,1.1666,1.1759,1.153,1.1455,1.145,1.1453,1.179,1.2179,1.2603,1.3076,1.3463,1.3763,1.4124,1.4292,1.4208,1.404,1.4196,1.4747,1.4867,1.5034,1.5285,1.5404,1.5475,1.5475,1.5594,1.5666,1.5666,1.5761,1.5808,1.5808,1.5808,1.5808,1.5808,1.5808,1.5808,1.5808,1.5808,1.5808,1.5808,1.5808,1.5621,1.5391,1.5391,1.5227,1.4981,1.4825,1.4656,1.4501,1.4571,1.4536,1.4554,1.4897,1.4977,1.5013,1.5173,1.5227,1.5294,1.5565,1.5631,1.5635,1.5781,1.5808,1.5808,1.5808,1.5808,1.5808,1.5808,1.5808,1.5808,1.5808,1.5808,0.0,0.0,1.5808,1.5808,1.5808,1.5808,1.5808,1.5808,1.5808,1.5808,1.5808,1.5979,1.6192,1.6484,1.6486,1.6524,1.6498,1.6313,1.6075,1.5808,1.5808,1.5808,1.5808,1.5808,1.5808,1.5808,1.5965,1.6192,1.6486,1.6805,1.7274,1.7822,1.8103,1.8489,1.8916,1.9078,1.9225,1.9401,1.9401,1.9401,1.9388,1.0837,1.1783,1.2572,1.277,1.318,1.3372,1.3054,1.2968,1.2958,1.2988,1.31,1.339,1.4028,1.4196,1.4436,1.4855,1.4927,1.5142,1.5547,1.519,1.5142,1.5547,1.5571,1.5642,1.5808,1.5808,1.5808,1.5808,1.5808,1.5808,1.5808,1.5808,1.5808,1.5808,1.5808,1.5808,1.5808,1.5808,1.5808,1.5808,1.5808,1.5808,1.5808,1.5808,1.5675,1.5498,1.5498,1.5351,1.5173,1.5106,1.491,1.475,1.4932,1.4879,1.4794,1.5271,1.5307,1.524,1.5431,1.5498,1.5551,1.5755,1.5808,1.5808,1.5808,1.5808,1.5808,1.5808,1.5808,1.5808,1.5808,1.5808,1.5808,1.5808,0.0,0.0,0.0,1.5808,1.5808,1.5808,1.5808,1.5808,1.5808,1.5808,1.5808,1.5808,1.6046,1.623,1.6297,1.642,1.6406,1.6203,1.5928,1.5808,1.5808,1.5808,1.5808,1.5808,1.5875,1.5875,1.5808,1.5875,1.6099,1.6404,1.6607,1.7034,1.7609,1.7889,1.8262,1.8703,1.877,1.8998,1.9294,1.9294,1.9334,1.9401,1.2125,1.3231,1.4035,1.4062,1.4497,1.4692,1.4242,1.4366,1.4358,1.387,1.4244,1.4592,1.464,1.5094,1.5391,1.5452,1.5618,1.5737,1.5784,1.5737,1.5737,1.5784,1.5784,1.5784,1.5808,1.5808,1.5808,1.5808,1.5808,1.5808,1.5808,1.5808,1.5808,1.5808,1.5808,1.5808,1.5808,1.5808,1.5808,1.5808,1.5808,1.5808,1.5808,1.5808,1.5795,1.5768,1.5768,1.5755,1.5701,1.5458,1.5351,1.5284,1.5066,1.516,1.5337,1.5391,1.5555,1.5741,1.5768,1.5768,1.5781,1.5808,1.5808,1.5808,1.5808,1.5808,1.5808,1.5808,1.5808,1.5808,1.5808,1.5808,1.5808,1.5808,0.0,0.0,1.5808,1.5808,1.5808,1.5808,1.5808,1.5808,1.5808,1.5808,1.5808,1.5808,1.5821,1.5979,1.6284,1.6032,1.5861,1.5835,1.5821,1.5808,1.5808,1.5808,1.5808,1.5808,1.6112,1.6099,1.5821,1.6112,1.6393,1.6673,1.67,1.7034,1.7609,1.7889,1.8022,1.8116,1.841,1.8704,1.893,1.893,1.9132,1.9401,1.3633,1.4562,1.5298,1.5458,1.5805,1.5877,1.5377,1.5379,1.5307,1.4942,1.507,1.5237,1.538,1.5571,1.5689,1.5689,1.5761,1.5808,1.5808,1.5808,1.5808,1.5808,1.5808,1.5808,1.5808,1.5808,1.5808,1.5808,1.5808,1.5808,1.5808,1.5808,1.5808,1.5808,1.5808,1.5808,1.5808,1.5808,1.5808,1.5808,1.5808,1.5808,1.5808,1.5808,1.5808,1.5808,1.5808,1.5808,1.5781,1.5675,1.5551,1.5404,1.5484,1.5458,1.5431,1.5595,1.5715,1.5808,1.5808,1.5808,1.5808,1.5808,1.5808,1.5808,1.5808,1.5808,1.5808,1.5808,1.5808,1.5808,1.5808,1.5808,1.5808,1.5808,0.0,1.5808,1.5808,1.5808,1.5808,1.5808,1.5808,1.5808,1.5808,1.5808,1.5808,1.5808,1.5808,1.5848,1.5992,1.5861,1.5808,1.5808,1.5808,1.5808,1.5808,1.5808,1.5901,1.6112,1.6244,1.6337,1.6355,1.6486,1.6607,1.6714,1.6926,1.7127,1.7367,1.7635,1.7849,1.8009,1.8143,1.8476,1.889,1.889,1.9118,1.9401,1.4992,1.5779,1.6377,1.6563,1.6789,1.6833,1.6394,1.6213,1.6055,1.5792,1.5647,1.5666,1.5784,1.5808,1.5808,1.5808,1.5808,1.5808,1.5808,1.5808,1.5808,1.5808,1.5808,1.5808,1.5808,1.5808,1.5808,1.5808,1.5808,1.5808,1.5808,1.5808,1.5808,1.5808,1.5808,1.5808,1.5808,1.5808,1.5808,1.5808,1.5808,1.5808,1.5808,1.5808,1.5808,1.5808,1.5808,1.5808,1.5808,1.5808,1.5675,1.5565,1.5741,1.5675,1.5555,1.5741,1.5808,1.5808,1.5808,1.5808,1.5808,1.5808,1.5808,1.5808,1.5808,1.5808,1.5808,1.5808,1.5808,1.5808,1.5808,1.5808,1.5808,1.5808,1.5808,1.5808,1.5808,1.5808,1.5808,1.5808,1.5808,1.5808,1.5808,1.5808,1.5808,1.5808,1.5808,1.5808,1.5808,1.5808,1.5808,1.5808,1.5808,1.5808,1.5808,1.5808,1.5979,1.6297,1.6391,1.6513,1.6714,1.6807,1.6872,1.6886,1.7112,1.7246,1.7353,1.7528,1.7702,1.7876,1.7876,1.8183,1.8636,1.8758,1.8971,1.9267,1.6159,1.6802,1.7199,1.7199,1.7437,1.7515,1.7246,1.6926,1.6607,1.6337,1.6019,1.5808,1.5808,1.5808,1.5808,1.5808,1.5808,1.5808,1.5808,1.5808,1.5808,1.5808,1.5808,1.5808,1.5808,1.5808,1.5808,1.5808,1.5808,1.5808,1.5808,1.5808,1.5808,1.5808,1.5808,1.5808,1.5808,1.5808,1.5808,1.5808,1.5808,1.5808,1.5808,1.5808,1.5808,1.5808,1.5808,1.5808,1.5808,1.5808,1.5808,1.5808,1.5808,1.5808,1.5808,1.5808,1.5808,1.5808,1.5808,1.5808,1.5808,1.5808,1.5808,1.5808,1.5808,1.5808,1.5808,1.5808,1.5808,1.5808,1.5808,1.5808,1.5808,1.5808,1.5808,1.5808,1.5808,1.5808,1.5808,1.5808,1.5808,1.5808,1.5808,1.5808,1.5808,1.5808,1.5808,1.5808,1.5808,1.5808,1.5808,1.5808,1.5808,1.5808,1.5808,1.5808,1.5979,1.631,1.6567,1.6714,1.6727,1.7046,1.7206,1.7206,1.7206,1.7341,1.7608,1.7608,1.7608,1.7608,1.7608,1.7769,1.8035,1.8384,1.8677,1.8943,1.651,1.7056,1.7477,1.7477,1.7556,1.7515,1.7246,1.6926,1.6607,1.6337,1.6019,1.5808,1.5808,1.5808,1.5808,1.5808,1.5808,1.5808,1.5808,1.5808,1.5808,1.5808,1.5808,1.5808,1.5808,1.5808,1.5808,1.5808,1.5808,1.5808,1.5808,1.5808,1.5808,1.5808,1.5998,1.6082,1.6106,1.6484,1.665,1.6636,1.68,1.6857,1.6857,1.6857,1.6857,1.6857,1.6857,1.6857,1.6857,1.6857,1.6857,1.6833,1.6683,1.665,1.6579,1.6201,1.6082,1.6045,1.5855,1.5808,1.5808,1.5808,1.5808,1.5808,1.5808,1.5808,1.5808,1.5808,1.5808,1.5808,1.5808,1.5808,1.5808,1.5808,1.5808,1.5808,1.5808,1.5808,1.5808,1.5808,1.5808,1.5808,1.5808,1.5808,1.5808,1.5808,1.5808,1.5808,1.5808,1.5808,1.5808,1.5808,1.5808,1.5808,1.5808,1.5808,1.6061,1.658,1.666,1.6927,1.7328,1.7434,1.7474,1.7474,1.7474,1.7528,1.7608,1.7608,1.7608,1.7608,1.7608,1.7903,1.837,1.8464,1.8811,1.9281,1.6844,1.7277,1.7608,1.7608,1.7608,1.7555,1.7367,1.6967,1.6647,1.6498,1.6061,1.5808,1.5808,1.5808,1.5808,1.5808,1.5808,1.5808,1.5808,1.5808,1.5808,1.5808,1.5808,1.5808,1.5808,1.5808,1.5808,1.5808,1.5808,1.5808,1.5808,1.5903,1.595,1.5974,1.6366,1.6555,1.6659,1.7082,1.734,1.7448,1.7574,1.7606,1.7606,1.7606,1.7606,1.7606,1.7606,1.7606,1.7606,1.7606,1.7606,1.7597,1.7457,1.7364,1.72,1.6894,1.6659,1.6484,1.6305,1.6116,1.595,1.595,1.5879,1.5808,1.5808,1.5808,1.5808,1.5808,1.5808,1.5808,1.5808,1.5808,1.5808,1.5808,1.5808,1.5808,1.5808,1.5808,1.5808,1.5808,1.5808,1.5808,1.5808,1.5808,1.5808,1.5808,1.5808,1.5808,1.5808,1.5808,1.5808,1.5808,1.5808,1.5808,1.5808,1.5928,1.6233,1.67,1.67,1.7007,1.7608,1.7608,1.7608,1.7608,1.7608,1.7608,1.7608,1.7608,1.7608,1.7622,1.7716,1.7996,1.8343,1.8571,1.8891,1.9212,1.7099,1.7367,1.7582,1.7608,1.7608,1.7608,1.7608,1.7088,1.67,1.67,1.6168,1.5808,1.5808,1.5808,1.5808,1.5808,1.5808,1.5808,1.5808,1.5808,1.5808,1.5808,1.5808,1.5808,1.5832,1.5832,1.5832,1.5832,1.5879,1.5903,1.5903,1.6163,1.6319,1.6366,1.6885,1.7246,1.7442,1.7747,1.8025,1.8226,1.8241,1.8264,1.8295,1.8295,1.8311,1.835,1.835,1.835,1.835,1.835,1.835,1.8365,1.8319,1.8141,1.7917,1.7824,1.7489,1.7144,1.7073,1.672,1.6319,1.6272,1.6092,1.5903,1.5832,1.5808,1.5808,1.5808,1.5808,1.5808,1.5808,1.5808,1.5808,1.5808,1.5808,1.5808,1.5808,1.5808,1.5808,1.5808,1.5808,1.5808,1.5808,1.5835,1.5848,1.5848,1.5861,1.5875,1.5848,1.5848,1.5835,1.5808,1.5808,1.5821,1.5848,1.6163,1.6444,1.67,1.6727,1.7034,1.7608,1.7608,1.7608,1.7608,1.7608,1.7608,1.7608,1.7608,1.7595,1.7649,1.7876,1.8009,1.8116,1.8663,1.8876,1.8943,1.674,1.7073,1.7341,1.7568,1.7608,1.7608,1.7608,1.7088,1.67,1.67,1.6168,1.5808,1.5808,1.5808,1.5808,1.5808,1.5808,1.5808,1.5808,1.5808,1.5808,1.5808,1.5808,1.5903,1.6106,1.6106,1.6106,1.6106,1.6532,1.6744,1.6744,1.6965,1.7162,1.7396,1.7885,1.8241,1.8503,1.8991,1.9234,1.9268,1.9329,1.9551,1.9829,1.9829,2.0045,2.0371,2.0371,2.0371,2.0371,2.0371,2.0371,2.032,1.9934,1.9791,1.9569,1.8796,1.8496,1.8288,1.7722,1.7466,1.7279,1.6932,1.6791,1.6565,1.595,1.5808,1.5808,1.5808,1.5808,1.5808,1.5808,1.5808,1.5808,1.5808,1.5808,1.5808,1.5808,1.5808,1.5808,1.5808,1.5808,1.5808,1.5808,1.6046,1.6203,1.6203,1.6393,1.642,1.6217,1.6203,1.6072,1.5808,1.5808,1.5939,1.6203,1.627,1.6444,1.6714,1.6966,1.726,1.7608,1.7608,1.7608,1.7608,1.7608,1.7608,1.7608,1.7608,1.7729,1.7902,1.7756,1.7969,1.841,1.8544,1.8731,1.8943,1.6647,1.6966,1.7286,1.7555,1.7608,1.7608,1.7608,1.7088,1.67,1.67,1.6168,1.5808,1.5808,1.5808,1.5808,1.5808,1.5808,1.5808,1.5808,1.5808,1.5855,1.5998,1.5998,1.6163,1.6579,1.68,1.6847,1.673,1.7129,1.741,1.7527,1.7862,1.8079,1.8265,1.898,1.9333,1.9423,1.9911,2.007,1.9985,2.0004,2.0164,2.0361,2.0602,2.0821,2.1045,2.1045,2.1045,2.1081,2.1279,2.1329,2.1289,2.106,2.0902,2.0704,2.019,1.978,1.9432,1.9065,1.8588,1.8172,1.7909,1.7582,1.7106,1.6187,1.5998,1.595,1.5832,1.5808,1.5808,1.5808,1.5808,1.5808,1.5808,1.5808,1.5808,1.5808,1.5808,1.5808,1.5808,1.5808,1.5861,1.6032,1.6203,1.6351,1.6498,1.662,1.6647,1.6511,1.6473,1.6406,1.6222,1.6222,1.6302,1.6473,1.6645,1.6792,1.6939,1.7125,1.7353,1.7608,1.7608,1.7608,1.7608,1.7608,1.7608,1.7622,1.7742,1.7876,1.7995,1.8023,1.821,1.849,1.849,1.8584,1.8744,1.658,1.6899,1.7193,1.7488,1.7582,1.7595,1.7541,1.7048,1.6687,1.6633,1.6142,1.5808,1.5808,1.5808,1.5832,1.5855,1.5879,1.5903,1.5998,1.6021,1.6116,1.639,1.6423,1.6683,1.7223,1.7699,1.7816,1.7489,1.787,1.8195,1.8504,1.8957,1.9209,1.9285,2.007,2.0353,2.0259,2.0595,2.0641,2.0476,2.0444,2.0483,2.0576,2.0969,2.1213,2.1346,2.125,2.129,2.138,2.171,2.1876,2.1932,2.1887,2.1776,2.1624,2.1535,2.1087,2.0586,2.0518,1.9888,1.9209,1.9094,1.8588,1.787,1.6871,1.6494,1.6319,1.6069,1.6021,1.5974,1.5879,1.5879,1.5855,1.5808,1.5808,1.5808,1.5808,1.5808,1.5808,1.5808,1.5848,1.5981,1.627,1.6391,1.6551,1.6767,1.682,1.6834,1.678,1.678,1.6754,1.67,1.67,1.6727,1.678,1.7046,1.7233,1.7273,1.7273,1.7367,1.7608,1.7608,1.7608,1.7608,1.7608,1.7608,1.7635,1.7836,1.7969,1.8009,1.8263,1.837,1.841,1.841,1.845,1.849,1.6297,1.6591,1.686,1.7206,1.7448,1.7528,1.73,1.6953,1.662,1.6391,1.6046,1.5808,1.5808,1.5808,1.5879,1.613,1.6153,1.6343,1.6815,1.6838,1.6918,1.7138,1.7372,1.7722,1.821,1.8719,1.8742,1.8241,1.9163,1.9735,2.0019,2.0478,2.0822,2.1047,2.1017,2.1076,2.1198,2.0976,2.0859,2.0825,2.0641,2.0779,2.1106,2.1145,2.1649,2.227,2.1923,2.2039,2.2328,2.2364,2.2616,2.2882,2.2706,2.2618,2.253,2.2109,2.1932,2.1776,2.1356,2.1154,2.0907,2.0252,2.0019,1.9683,1.868,1.7792,1.7106,1.6885,1.6838,1.6697,1.6224,1.6153,1.6069,1.5832,1.5808,1.5808,1.5808,1.5808,1.5808,1.5808,1.6059,1.6257,1.6297,1.6752,1.7099,1.7139,1.7354,1.7381,1.7152,1.7139,1.6993,1.6714,1.67,1.6834,1.7139,1.7179,1.7326,1.7555,1.7555,1.7568,1.7608,1.7608,1.7608,1.7608,1.7608,1.7608,1.7608,1.7622,1.7782,1.7969,1.7796,1.7876,1.8076,1.8076,1.8236,1.849,1.6244,1.6513,1.6794,1.7152,1.73,1.7353,1.7219,1.6792,1.6444,1.631,1.6019,1.5808,1.5808,1.5927,1.6116,1.64,1.6659,1.6988,1.7387,1.7527,1.7784,1.8126,1.8241,1.868,1.9432,1.9797,2.0053,2.024,2.0439,2.0704,2.1082,2.1463,2.1536,2.1405,2.1612,2.1485,2.1116,2.1082,2.0934,2.0722,2.0644,2.0703,2.0898,2.1113,2.1601,2.2207,2.2459,2.2537,2.2518,2.2771,2.2945,2.3079,2.2991,2.2969,2.2925,2.2728,2.2574,2.2441,2.2242,2.1998,2.1709,2.1396,2.1127,2.0794,2.0348,1.9803,1.9026,1.7854,1.7504,1.7326,1.7068,1.6824,1.6602,1.6494,1.6211,1.6021,1.6021,1.5879,1.5861,1.6059,1.6217,1.6431,1.6777,1.7045,1.7273,1.7408,1.7541,1.7555,1.7421,1.7421,1.7354,1.7194,1.7194,1.7261,1.7421,1.7569,1.7716,1.7822,1.8009,1.7943,1.7608,1.7608,1.7608,1.7608,1.7608,1.7608,1.7622,1.7769,1.7889,1.7996,1.7862,1.7796,1.7782,1.7782,1.7876,1.801]},{"header":{"parameterUnit":"m.s-1","parameterCategory":1,"la1":30.6,"la2":28.766,"lo1":-90.7593,"lo2":-88.6598,"dy":0.0162,"dx":0.0183,"nx":116,"ny":114,"refTime":"2023-09-19T12:00:00:Z","depth":0,"parameterNumber":3,"parameterNumberName":"V-component_of_WINDS"},"data":[0.0,0.0,0.0,0.0,0.0,0.0,0.0,0.0,0.0,0.0,0.0,0.0,0.0,0.0,0.0,0.0,0.0,0.0,0.0,0.0,0.0,0.0,0.0,0.0,0.0,0.0,0.0,0.0,0.0,0.0,0.0,0.0,0.0,0.0,0.0,0.0,0.0,0.0,0.0,0.0,0.0,0.0,0.0,0.0,0.0,0.0,0.0,0.0,0.0,0.0,0.0,0.0,0.0,0.0,0.0,0.0,0.0,0.0,0.0,0.0,0.0,0.0,0.0,0.0,0.0,0.0,0.0,0.0,0.0,0.0,0.0,0.0,0.0,0.0,0.0,0.0,0.0,0.0,0.0,0.0,0.0,0.0,0.0,0.0,0.0,0.0,0.0,0.0,0.0,0.0,0.0,0.0,0.0,0.0,0.0,0.0,0.0,0.0,0.0,0.0,0.0,0.0,0.0,0.0,0.0,0.0,0.0,0.0,0.0,0.0,0.0,0.0,0.0,0.0,0.0,0.0,0.0,0.0,0.0,0.0,0.0,0.0,0.0,0.0,0.0,0.0,0.0,0.0,0.0,0.0,0.0,0.0,0.0,0.0,0.0,0.0,0.0,0.0,0.0,0.0,0.0,0.0,0.0,0.0,0.0,0.0,0.0,0.0,0.0,0.0,0.0,0.0,0.0,0.0,0.0,0.0,0.0,0.0,0.0,0.0,0.0,0.0,0.0,0.0,0.0,0.0,0.0,0.0,0.0,0.0,0.0,0.0,0.0,0.0,0.0,0.0,0.0,0.0,0.0,0.0,0.0,0.0,0.0,0.0,0.0,0.0,0.0,0.0,0.0,0.0,0.0,0.0,0.0,0.0,0.0,0.0,0.0,0.0,0.0,0.0,0.0,0.0,0.0,0.0,0.0,0.0,0.0,0.0,0.0,0.0,0.0,0.0,0.0,0.0,0.0,0.0,0.0,0.0,0.0,0.0,0.0,0.0,0.0,0.0,0.0,0.0,0.0,0.0,0.0,0.0,0.0,0.0,0.0,0.0,0.0,0.0,0.0,0.0,0.0,0.0,0.0,0.0,0.0,0.0,0.0,0.0,0.0,0.0,0.0,0.0,0.0,0.0,0.0,0.0,0.0,0.0,0.0,0.0,0.0,0.0,0.0,0.0,0.0,0.0,0.0,0.0,0.0,0.0,0.0,0.0,0.0,0.0,0.0,0.0,0.0,0.0,0.0,0.0,0.0,0.0,0.0,0.0,0.0,0.0,0.0,0.0,0.0,0.0,0.0,0.0,0.0,0.0,0.0,0.0,0.0,0.0,0.0,0.0,0.0,0.0,0.0,0.0,0.0,0.0,0.0,0.0,0.0,0.0,0.0,0.0,0.0,0.0,0.0,0.0,0.0,0.0,0.0,0.0,0.0,0.0,0.0,0.0,0.0,0.0,0.0,0.0,0.0,0.0,0.0,0.0,0.0,0.0,0.0,0.0,0.0,0.0,0.0,0.0,0.0,0.0,0.0,0.0,0.0,0.0,0.0,0.0,0.0,0.0,0.0,0.0,0.0,0.0,0.0,0.0,0.0,0.0,0.0,0.0,0.0,0.0,0.0,0.0,0.0,0.0,0.0,0.0,0.0,0.0,0.0,0.0,0.0,0.0,0.0,0.0,0.0,0.0,0.0,0.0,0.0,0.0,0.0,0.0,0.0,0.0,0.0,0.0,0.0,0.0,0.0,0.0,0.0,0.0,0.0,0.0,0.0,0.0,0.0,0.0,0.0,0.0,0.0,0.0,0.0,0.0,0.0,0.0,0.0,0.0,0.0,0.0,0.0,0.0,0.0,0.0,0.0,0.0,0.0,0.0,0.0,0.0,0.0,0.0,0.0,0.0,0.0,0.0,0.0,0.0,0.0,0.0,0.0,0.0,0.0,0.0,0.0,0.0,0.0,0.0,0.0,0.0,0.0,0.0,0.0,0.0,0.0,0.0,0.0,0.0,0.0,0.0,0.0,0.0,0.0,0.0,0.0,0.0,0.0,0.0,0.0,0.0,0.0,0.0,0.0,0.0,0.0,0.0,0.0,0.0,0.0,0.0,0.0,0.0,0.0,0.0,0.0,0.0,0.0,0.0,0.0,0.0,0.0,0.0,0.0,0.0,0.0,0.0,0.0,0.0,0.0,0.0,0.0,0.0,0.0,0.0,0.0,0.0,0.0,0.0,0.0,0.0,0.0,0.0,0.0,0.0,0.0,0.0,0.0,0.0,0.0,0.0,0.0,0.0,0.0,0.0,0.0,0.0,0.0,0.0,0.0,0.0,0.0,0.0,0.0,0.0,0.0,0.0,0.0,0.0,0.0,0.0,0.0,0.0,0.0,0.0,0.0,0.0,0.0,0.0,0.0,0.0,0.0,0.0,0.0,0.0,0.0,0.0,0.0,0.0,0.0,0.0,0.0,0.0,0.0,0.0,0.0,0.0,0.0,0.0,0.0,0.0,0.0,0.0,0.0,0.0,0.0,0.0,0.0,0.0,0.0,0.0,0.0,0.0,0.0,0.0,0.0,0.0,0.0,0.0,0.0,0.0,0.0,0.0,0.0,0.0,0.0,0.0,0.0,0.0,0.0,0.0,0.0,0.0,0.0,0.0,0.0,0.0,0.0,0.0,0.0,0.0,0.0,0.0,0.0,0.0,0.0,0.0,0.0,0.0,0.0,0.0,0.0,0.0,0.0,0.0,0.0,0.0,0.0,0.0,0.0,0.0,0.0,0.0,0.0,0.0,0.0,0.0,0.0,0.0,0.0,0.0,0.0,0.0,0.0,0.0,0.0,0.0,0.0,0.0,0.0,0.0,0.0,0.0,0.0,0.0,0.0,0.0,0.0,0.0,0.0,0.0,0.0,0.0,0.0,0.0,0.0,0.0,0.0,0.0,0.0,0.0,0.0,0.0,0.0,0.0,0.0,0.0,0.0,0.0,0.0,0.0,0.0,0.0,0.0,0.0,0.0,0.0,0.0,0.0,0.0,0.0,0.0,0.0,0.0,0.0,0.0,0.0,0.0,0.0,0.0,0.0,0.0,0.0,0.0,0.0,0.0,0.0,0.0,0.0,0.0,0.0,0.0,0.0,0.0,0.0,0.0,0.0,0.0,0.0,0.0,0.0,0.0,0.0,0.0,0.0,0.0,0.0,0.0,0.0,0.0,0.0,0.0,0.0,0.0,0.0,0.0,0.0,0.0,0.0,0.0,0.0,0.0,0.0,0.0,0.0,0.0,0.0,0.0,0.0,0.0,0.0,0.0,0.0,0.0,0.0,0.0,0.0,0.0,0.0,0.0,0.0,0.0,0.0,0.0,0.0,0.0,0.0,0.0,0.0,0.0,0.0,0.0,0.0,0.0,0.0,0.0,0.0,0.0,0.0,0.0,0.0,0.0,0.0,0.0,0.0,0.0,0.0,0.0,0.0,0.0,0.0,0.0,0.0,0.0,0.0,0.0,0.0,0.0,0.0,0.0,0.0,0.0,0.0,0.0,0.0,0.0,0.0,0.0,0.0,0.0,0.0,0.0,0.0,0.0,0.0,0.0,0.0,0.0,0.0,0.0,0.0,0.0,0.0,0.0,0.0,0.0,0.0,0.0,0.0,0.0,0.0,0.0,0.0,0.0,0.0,0.0,0.0,0.0,0.0,0.0,0.0,0.0,0.0,0.0,0.0,0.0,0.0,0.0,0.0,0.0,0.0,0.0,0.0,0.0,0.0,0.0,0.0,0.0,0.0,0.0,0.0,0.0,0.0,0.0,0.0,0.0,0.0,0.0,0.0,0.0,0.0,0.0,0.0,0.0,0.0,0.0,0.0,0.0,0.0,0.0,0.0,0.0,0.0,0.0,0.0,0.0,0.0,0.0,0.0,0.0,0.0,0.0,0.0,0.0,0.0,0.0,0.0,0.0,0.0,0.0,0.0,0.0,0.0,0.0,0.0,0.0,0.0,0.0,0.0,0.0,0.0,0.0,0.0,0.0,0.0,0.0,0.0,0.0,0.0,0.0,0.0,0.0,0.0,0.0,0.0,0.0,0.0,0.0,0.0,0.0,0.0,0.0,0.0,0.0,0.0,0.0,0.0,0.0,0.0,0.0,0.0,0.0,0.0,0.0,0.0,0.0,0.0,0.0,0.0,0.0,0.0,0.0,0.0,0.0,0.0,0.0,0.0,0.0,0.0,0.0,0.0,0.0,0.0,0.0,0.0,0.0,0.0,0.0,0.0,0.0,0.0,0.0,0.0,0.0,0.0,0.0,0.0,0.0,0.0,0.0,0.0,0.0,0.0,0.0,0.0,0.0,0.0,0.0,0.0,0.0,0.0,0.0,0.0,0.0,0.0,0.0,0.0,0.0,0.0,0.0,0.0,0.0,0.0,0.0,0.0,0.0,0.0,0.0,0.0,0.0,0.0,0.0,0.0,0.0,0.0,0.0,0.0,0.0,0.0,0.0,0.0,0.0,0.0,0.0,0.0,0.0,0.0,0.0,0.0,0.0,0.0,0.0,0.0,0.0,0.0,0.0,0.0,0.0,0.0,0.0,0.0,0.0,0.0,0.0,0.0,0.0,0.0,0.0,0.0,0.0,0.0,0.0,0.0,0.0,0.0,0.0,0.0,0.0,0.0,0.0,0.0,0.0,0.0,0.0,0.0,0.0,0.0,0.0,0.0,0.0,0.0,0.0,0.0,0.0,0.0,0.0,0.0,0.0,0.0,0.0,0.0,0.0,0.0,0.0,0.0,0.0,0.0,0.0,0.0,0.0,0.0,0.0,0.0,0.0,0.0,0.0,0.0,0.0,0.0,0.0,0.0,0.0,0.0,0.0,0.0,0.0,0.0,0.0,0.0,0.0,0.0,0.0,0.0,0.0,0.0,0.0,0.0,0.0,0.0,0.0,0.0,0.0,0.0,0.0,0.0,0.0,0.0,0.0,0.0,0.0,0.0,0.0,0.0,0.0,0.0,0.0,0.0,0.0,0.0,0.0,0.0,0.0,0.0,0.0,0.0,0.0,0.0,0.0,0.0,0.0,0.0,0.0,0.0,0.0,0.0,0.0,0.0,0.0,0.0,0.0,0.0,0.0,0.0,0.0,0.0,0.0,0.0,0.0,0.0,0.0,0.0,0.0,0.0,0.0,0.0,0.0,0.0,0.0,0.0,0.0,0.0,0.0,0.0,0.0,0.0,0.0,0.0,0.0,0.0,0.0,0.0,0.0,0.0,0.0,0.0,0.0,0.0,0.0,0.0,0.0,0.0,0.0,0.0,0.0,0.0,0.0,0.0,0.0,0.0,0.0,0.0,0.0,0.0,0.0,0.0,0.0,0.0,0.0,0.0,0.0,0.0,0.0,0.0,0.0,0.0,0.0,0.0,0.0,0.0,0.0,0.0,0.0,0.0,0.0,0.0,0.0,0.0,0.0,0.0,0.0,0.0,0.0,0.0,0.0,0.0,0.0,0.0,0.0,0.0,0.0,0.0,0.0,0.0,0.0,0.0,0.0,0.0,0.0,0.0,0.0,0.0,0.0,0.0,0.0,0.0,0.0,0.0,0.0,0.0,0.0,0.0,0.0,0.0,0.0,0.0,0.0,0.0,0.0,0.0,0.0,0.0,0.0,0.0,0.0,0.0,0.0,0.0,0.0,0.0,0.0,0.0,0.0,0.0,0.0,0.0,0.0,0.0,0.0,0.0,0.0,0.0,0.0,0.0,0.0,0.0,0.0,0.0,0.0,0.0,0.0,0.0,0.0,0.0,0.0,0.0,0.0,0.0,0.0,0.0,0.0,0.0,0.0,0.0,0.0,0.0,0.0,0.0,0.0,0.0,0.0,0.0,0.0,0.0,0.0,0.0,0.0,0.0,0.0,0.0,0.0,0.0,0.0,0.0,0.0,0.0,0.0,0.0,0.0,0.0,0.0,0.0,0.0,0.0,0.0,0.0,0.0,0.0,0.0,0.0,0.0,0.0,0.0,0.0,0.0,0.0,0.0,0.0,0.0,0.0,0.0,0.0,0.0,0.0,0.0,0.0,0.0,0.0,0.0,0.0,0.0,0.0,0.0,0.0,0.0,0.0,0.0,0.0,0.0,0.0,0.0,0.0,5.1069,0.0,0.0,0.0,0.0,0.0,0.0,0.0,0.0,0.0,0.0,0.0,0.0,0.0,0.0,0.0,0.0,0.0,0.0,0.0,0.0,0.0,0.0,0.0,0.0,0.0,0.0,0.0,0.0,0.0,0.0,0.0,0.0,0.0,0.0,0.0,0.0,0.0,0.0,3.9204,4.0469,4.1123,4.1127,4.1127,4.1135,4.1193,0.0,0.0,0.0,0.0,0.0,0.0,0.0,0.0,0.0,0.0,0.0,0.0,0.0,0.0,0.0,0.0,0.0,0.0,0.0,0.0,0.0,0.0,0.0,0.0,0.0,0.0,0.0,0.0,0.0,0.0,0.0,0.0,0.0,0.0,0.0,0.0,0.0,0.0,0.0,0.0,0.0,0.0,0.0,0.0,0.0,0.0,0.0,0.0,0.0,0.0,0.0,0.0,0.0,0.0,0.0,0.0,0.0,0.0,0.0,0.0,0.0,0.0,0.0,0.0,0.0,0.0,0.0,0.0,0.0,0.0,0.0,5.282,0.0,0.0,0.0,0.0,0.0,0.0,0.0,0.0,0.0,0.0,0.0,0.0,0.0,0.0,0.0,0.0,0.0,0.0,0.0,0.0,0.0,0.0,0.0,0.0,4.2427,4.3431,4.3547,4.3585,0.0,0.0,0.0,0.0,0.0,0.0,0.0,3.9973,4.0281,4.0935,4.1816,4.2696,4.3547,4.3547,4.3085,4.2273,4.2854,0.0,0.0,0.0,0.0,0.0,0.0,0.0,0.0,0.0,0.0,0.0,0.0,0.0,0.0,0.0,0.0,0.0,0.0,0.0,0.0,0.0,0.0,0.0,0.0,0.0,0.0,0.0,0.0,0.0,0.0,0.0,0.0,0.0,0.0,0.0,0.0,0.0,0.0,0.0,0.0,0.0,0.0,0.0,0.0,0.0,0.0,0.0,0.0,0.0,0.0,0.0,0.0,0.0,0.0,0.0,0.0,0.0,0.0,0.0,0.0,0.0,0.0,0.0,5.7901,5.8325,5.916,5.9177,5.9595,6.0162,5.8216,5.6644,5.5351,0.0,0.0,0.0,0.0,0.0,0.0,0.0,0.0,0.0,0.0,0.0,0.0,0.0,0.0,0.0,0.0,0.0,0.0,0.0,0.0,0.0,0.0,4.1935,4.3547,4.5128,4.5282,4.559,0.0,0.0,0.0,0.0,0.0,0.0,4.2585,4.2585,4.2662,4.2777,4.3585,4.4436,4.5282,4.5282,4.4821,4.3932,4.3355,4.3051,4.294,0.0,0.0,0.0,0.0,0.0,0.0,0.0,0.0,0.0,0.0,0.0,0.0,0.0,0.0,0.0,0.0,0.0,0.0,0.0,0.0,0.0,0.0,0.0,0.0,0.0,0.0,0.0,0.0,0.0,0.0,0.0,0.0,0.0,0.0,0.0,0.0,0.0,0.0,0.0,0.0,0.0,4.9583,5.0467,0.0,0.0,0.0,0.0,0.0,0.0,0.0,0.0,0.0,0.0,0.0,0.0,0.0,0.0,5.7621,5.9165,6.0479,6.1441,6.1441,6.1858,6.2621,6.2687,6.2816,6.296,6.2824,0.0,5.8027,5.7243,0.0,0.0,0.0,0.0,0.0,0.0,0.0,0.0,0.0,0.0,0.0,0.0,0.0,0.0,0.0,0.0,0.0,0.0,0.0,0.0,0.0,4.3491,4.5013,4.6201,4.6317,4.6509,4.6889,4.574,0.0,0.0,0.0,4.3547,4.3124,4.3547,4.4239,4.5235,4.6047,4.6394,4.6317,4.6317,4.6124,4.574,4.5389,4.4701,4.3816,4.4282,0.0,0.0,0.0,0.0,0.0,0.0,0.0,0.0,0.0,0.0,0.0,0.0,0.0,0.0,0.0,0.0,0.0,0.0,0.0,0.0,0.0,0.0,0.0,0.0,0.0,0.0,0.0,0.0,0.0,0.0,0.0,0.0,0.0,0.0,0.0,0.0,0.0,0.0,0.0,5.0536,5.2246,5.3143,5.2831,5.2338,0.0,0.0,0.0,0.0,0.0,0.0,0.0,0.0,0.0,5.6782,5.9273,6.0609,6.0609,6.1801,6.2843,6.3654,6.3654,6.4111,6.4916,6.4442,6.4523,6.501,6.4722,6.372,6.2122,5.9999,5.7878,5.5892,0.0,0.0,0.0,0.0,0.0,5.2422,0.0,0.0,0.0,0.0,0.0,0.0,0.0,0.0,0.0,0.0,0.0,0.0,4.3266,4.4776,4.6095,4.7142,4.7023,4.698,4.7197,4.6206,0.0,4.4667,4.4628,4.4359,4.3739,4.4321,4.5393,4.6889,4.7505,4.7505,4.6889,4.6889,4.6774,4.6586,4.7005,4.6504,4.5316,4.5744,4.509,4.3662,0.0,0.0,0.0,0.0,0.0,0.0,0.0,0.0,0.0,0.0,0.0,0.0,0.0,0.0,0.0,0.0,0.0,0.0,0.0,0.0,0.0,0.0,0.0,0.0,0.0,0.0,0.0,0.0,0.0,0.0,0.0,0.0,0.0,0.0,0.0,0.0,0.0,5.2702,5.4636,5.6207,5.5928,5.5436,0.0,0.0,0.0,0.0,0.0,0.0,5.7077,5.8731,5.9744,5.9938,6.1965,6.3152,6.3384,6.4033,6.4764,6.5577,6.5577,6.6042,6.6854,6.6027,6.5982,6.6566,6.5867,6.5453,6.5039,6.2398,6.0284,5.8629,5.7804,5.6459,5.5105,5.5968,5.574,5.5039,0.0,0.0,0.0,0.0,0.0,0.0,0.0,0.0,0.0,0.0,0.0,4.257,4.4242,4.524,4.6437,4.8004,4.7388,4.7216,4.7971,4.6513,4.5594,4.5556,4.5513,4.5518,4.5479,4.5518,4.5975,4.6889,4.6928,4.6928,4.6889,4.6889,4.6471,4.5744,4.7317,4.8005,4.7851,4.7158,4.6317,4.5398,4.4513,0.0,0.0,0.0,0.0,0.0,0.0,0.0,0.0,0.0,0.0,0.0,0.0,0.0,0.0,0.0,0.0,0.0,0.0,0.0,0.0,0.0,0.0,0.0,0.0,0.0,0.0,0.0,0.0,0.0,0.0,0.0,0.0,0.0,0.0,0.0,0.0,0.0,0.0,5.9547,5.8493,0.0,0.0,0.0,0.0,5.7372,5.8935,5.9908,5.9986,6.1509,6.2786,6.3606,6.4453,6.5256,6.6114,6.6148,6.6609,6.7466,6.7466,6.7936,6.8755,6.7941,6.7588,6.76,6.6916,6.6131,6.5336,6.438,6.2991,6.1407,6.0531,5.9174,5.781,5.8669,5.8437,5.7812,0.0,0.0,0.0,0.0,0.0,0.0,0.0,0.0,4.091,4.2056,4.2619,4.3341,4.4485,4.5815,4.6879,4.743,4.7214,4.7144,4.7366,4.6332,4.5695,4.568,4.5676,4.5625,4.5594,4.6163,4.6586,4.6889,4.7428,4.7428,4.6889,4.6889,4.6735,4.6509,4.7582,4.8394,4.8933,4.8625,4.8009,4.7124,4.6317,4.547,0.0,0.0,0.0,0.0,0.0,0.0,0.0,0.0,0.0,0.0,0.0,0.0,0.0,0.0,0.0,0.0,0.0,0.0,0.0,0.0,0.0,0.0,0.0,0.0,0.0,0.0,0.0,0.0,0.0,0.0,0.0,0.0,0.0,0.0,0.0,0.0,0.0,6.2559,6.2732,0.0,6.3109,6.2348,6.2032,6.2643,6.3218,6.3801,6.4437,6.5496,6.6215,6.6527,6.7325,6.7935,6.8246,6.8244,6.8399,6.8672,6.8672,6.8867,6.9139,6.8847,6.8437,6.7869,6.769,6.7094,6.629,6.6035,6.4593,6.2522,6.2176,6.101,5.9568,5.9842,5.9765,5.9492,0.0,0.0,0.0,0.0,0.0,0.0,0.0,0.0,4.1457,4.2581,4.316,4.3897,4.5042,4.6385,4.7183,4.7136,4.7114,4.7122,4.7069,4.6292,4.5803,4.5789,4.5735,4.5715,4.5683,4.6219,4.6514,4.654,4.708,4.7024,4.6493,4.6493,4.6484,4.6509,4.762,4.8432,4.9009,4.9894,4.974,4.8894,4.7774,4.7124,4.6783,0.0,0.0,0.0,0.0,0.0,0.0,0.0,0.0,0.0,0.0,0.0,0.0,0.0,0.0,0.0,0.0,0.0,0.0,0.0,0.0,0.0,0.0,0.0,0.0,0.0,0.0,0.0,0.0,0.0,0.0,0.0,0.0,0.0,0.0,0.0,6.3415,6.5765,6.6495,6.6916,6.7233,6.6716,6.6635,6.7193,6.7499,6.7771,6.809,6.8623,6.8927,6.8925,6.9192,6.9462,6.9774,6.9462,6.9462,6.9774,6.9774,6.993,7.0164,6.9584,6.9006,6.8431,6.7901,6.7364,6.6824,6.6559,6.5271,6.3433,6.3433,6.238,6.0858,6.0858,6.0859,6.0664,0.0,0.0,0.0,0.0,0.0,0.0,0.0,4.1119,4.1738,4.3401,4.3632,4.4281,4.5915,4.6878,4.7308,4.7167,4.7162,4.7179,4.7188,4.6387,4.5909,4.5903,4.5827,4.5807,4.5807,4.5807,4.5789,4.5792,4.5792,4.575,4.5709,4.5705,4.5684,4.5719,4.7364,4.8129,4.8322,5.0822,5.1481,5.064,4.8933,4.874,4.9394,0.0,0.0,0.0,0.0,0.0,0.0,0.0,0.0,0.0,0.0,0.0,0.0,0.0,0.0,0.0,0.0,0.0,0.0,0.0,0.0,0.0,0.0,0.0,0.0,0.0,0.0,0.0,0.0,0.0,0.0,0.0,0.0,0.0,6.1869,6.3387,6.5768,6.9132,6.9557,6.9907,7.0734,7.0806,7.0805,7.0812,7.1592,7.1709,7.0889,7.0805,7.084,7.0838,6.9969,6.9925,7.0782,6.9925,6.9925,7.0743,7.0743,7.1132,7.1796,7.0168,6.9392,6.9276,6.765,6.6911,6.6834,6.5976,6.5117,6.4297,6.4258,6.3203,6.1719,6.1719,6.1719,6.1445,0.0,0.0,0.0,0.0,0.0,0.0,0.0,4.1677,4.2417,4.3548,4.4203,4.5015,4.614,4.6435,4.6534,4.6477,4.6464,4.6442,4.6398,4.6197,4.601,4.5969,4.5914,4.5883,4.5883,4.5883,4.5877,4.5867,4.5883,4.5859,4.5838,4.581,4.6101,4.6746,4.7824,4.8635,4.9335,5.1262,5.2344,5.2683,5.2035,5.1543,5.1197,0.0,0.0,0.0,0.0,0.0,0.0,0.0,0.0,0.0,0.0,0.0,0.0,0.0,0.0,0.0,0.0,0.0,0.0,0.0,0.0,0.0,0.0,0.0,0.0,0.0,0.0,0.0,0.0,0.0,0.0,0.0,0.0,6.5469,6.5468,6.746,6.9764,7.1952,7.2772,7.3241,7.3515,7.3514,7.3514,7.3515,7.3749,7.3788,7.3554,7.3514,7.3514,7.3514,7.2693,7.2341,7.2575,7.1716,7.1403,7.1637,7.1637,7.1442,7.1012,7.0545,6.9686,6.8514,6.8046,6.7461,6.6875,6.664,6.5664,6.4258,6.3594,6.2695,6.1719,6.1719,6.1719,6.1445,0.0,0.0,0.0,0.0,0.0,0.0,0.0,4.1872,4.2693,4.3592,4.4453,4.5312,4.6209,4.6281,4.6233,4.6226,4.6256,4.6204,4.6143,4.6135,4.6112,4.6097,4.6067,4.6015,4.6015,4.6015,4.6003,4.5981,4.5966,4.6166,4.6505,4.6448,4.6891,4.7713,4.8565,4.9417,5.0312,5.2008,5.3244,5.4088,5.4723,5.4419,5.3571,5.3224,5.3036,5.2929,5.2929,5.2929,5.2934,5.2927,0.0,0.0,0.0,0.0,0.0,0.0,0.0,0.0,0.0,0.0,0.0,0.0,0.0,0.0,0.0,0.0,0.0,0.0,0.0,0.0,0.0,0.0,0.0,0.0,6.7109,6.9726,7.0078,7.1406,7.2851,7.4219,7.5156,7.5703,7.5703,7.5703,7.5703,7.5703,7.5703,7.5547,7.5156,7.5156,7.4961,7.4609,7.4101,7.3828,7.3828,7.2969,7.2539,7.2539,7.2187,7.1523,7.0703,7.0351,6.9453,0.0,6.7812,6.7383,6.6875,6.6523,6.5742,0.0,0.0,0.0,0.0,0.0,6.1719,6.1445,0.0,0.0,0.0,0.0,0.0,0.0,0.0,4.1963,4.2861,4.3721,4.4586,4.5413,4.6201,4.6286,4.6289,4.6286,4.6283,4.6318,4.635,4.634,4.6407,4.6476,4.6471,4.6469,4.635,4.6428,4.6415,4.6268,4.6346,4.6777,4.7476,4.7473,4.7875,4.8681,4.9532,5.0348,5.1282,5.2977,5.4138,5.4996,5.6742,5.6912,5.6076,5.5461,5.5697,5.6282,5.6282,5.6282,5.6321,5.6295,0.0,0.0,0.0,0.0,0.0,0.0,0.0,0.0,0.0,0.0,0.0,0.0,0.0,0.0,0.0,0.0,0.0,0.0,0.0,0.0,0.0,0.0,0.0,0.0,7.1055,7.4023,7.4922,7.5117,7.539,7.5976,7.6719,7.7226,7.7344,7.7344,7.7383,7.7461,7.7461,7.7109,7.625,0.0,0.0,0.0,0.0,7.4765,7.4765,7.3867,7.3398,7.3281,7.2539,7.164,7.0664,6.9961,6.914,6.8281,6.7539,6.7148,6.6992,6.6211,6.5781,6.5508,6.4531,6.3203,6.1836,6.1758,6.1719,0.0,0.0,0.0,0.0,0.0,0.0,0.0,0.0,4.2799,4.3696,4.4554,4.5416,4.6048,4.6215,4.622,4.6226,4.6235,4.6237,4.6513,4.7181,4.7266,4.7576,4.828,4.8309,4.7986,4.7243,4.794,4.7935,4.7227,4.7922,4.8341,4.8526,4.8436,4.8893,4.9739,5.06,5.1457,5.2391,5.4145,5.4964,5.5276,5.695,5.7428,5.7172,5.7757,5.8033,5.8188,5.8188,5.8188,5.82,5.8228,5.7595,5.6767,5.6866,5.6162,0.0,0.0,0.0,0.0,0.0,0.0,0.0,0.0,0.0,0.0,0.0,0.0,0.0,0.0,0.0,0.0,0.0,0.0,0.0,7.164,7.453,7.6717,7.7537,7.8271,7.827,7.7109,7.7109,7.7461,7.8164,7.8242,7.8515,7.918,7.9219,7.8867,7.8047,7.8008,0.0,7.6719,7.6015,7.5664,7.5664,7.4765,7.3984,7.3281,0.0,0.0,7.0703,7.0547,7.0,6.914,6.8984,6.8555,6.793,6.7773,6.6875,6.543,6.3867,6.3047,6.2656,6.1953,6.1719,6.1562,0.0,0.0,0.0,0.0,0.0,0.0,0.0,4.292,4.3778,4.4632,4.5548,4.6113,4.6084,4.6118,4.6141,4.6147,4.6588,4.7025,4.7459,4.7865,4.8303,4.8776,4.8783,4.8592,4.8163,4.8594,4.8789,4.8788,4.9252,4.9909,5.0761,5.0713,5.1172,5.2024,5.2454,5.3117,5.3974,5.4833,5.5692,5.6628,5.7876,5.8615,5.8963,5.9363,5.978,6.013,6.013,6.013,6.0175,6.0204,5.964,5.8996,5.9508,5.8786,5.7668,0.0,0.0,0.0,0.0,0.0,0.0,0.0,0.0,0.0,0.0,0.0,0.0,0.0,0.0,6.5469,0.0,0.0,7.2693,7.4837,7.7411,7.9085,7.8996,7.9763,7.9845,7.8584,7.8426,7.858,7.901,7.9049,7.9205,7.9635,7.9678,7.9524,7.9132,7.9097,7.8708,7.7848,7.7377,7.6947,7.6481,7.5659,7.4996,7.4608,7.371,7.2617,7.1328,7.0898,7.0234,6.9413,6.941,6.9175,6.8786,6.8318,6.7379,6.6088,6.476,6.3748,6.2969,6.25,6.207,6.1562,0.0,0.0,0.0,0.0,0.0,0.0,0.0,4.3016,4.3832,4.4721,4.5508,4.5969,4.5975,4.6015,4.606,4.6064,4.6907,4.7584,4.7894,4.8718,4.9352,4.972,4.9772,4.9706,4.9521,4.9693,5.0055,5.0608,5.0932,5.1835,5.3202,5.3356,5.3819,5.4515,5.4671,5.5138,5.5721,5.5917,5.6776,5.8141,5.9,5.978,6.0404,6.0543,6.0995,6.1607,6.1607,6.1607,6.1607,6.161,6.1153,6.0695,6.1404,6.0672,5.9585,5.9394,5.8344,0.0,0.0,0.0,0.0,0.0,0.0,0.0,0.0,6.5468,6.6836,6.6835,6.8358,7.0154,7.1672,7.3935,7.6078,7.7582,7.972,8.0916,8.0179,8.0627,8.0824,8.0156,7.9777,7.9663,7.9819,7.9819,7.9897,8.0054,8.0145,8.0115,7.9922,7.9934,7.9549,7.865,7.8641,7.8211,7.7321,7.6611,7.6147,7.5849,7.4444,7.3237,7.2225,7.1518,7.0695,6.9873,6.9699,6.9617,6.9547,6.8495,6.7671,6.696,6.6062,6.4788,6.3434,6.3084,6.2536,6.1791,0.0,0.0,0.0,0.0,0.0,0.0,0.0,0.0,4.4688,4.5543,4.5747,4.5841,4.5912,4.5928,4.5911,4.5938,4.6714,4.7875,4.9349,5.0333,5.1492,5.3007,5.3186,5.2879,5.2097,5.2917,5.298,5.233,5.3856,5.477,5.5025,5.5727,5.6164,5.6327,5.7109,5.75,5.7656,5.8437,5.8867,5.9101,5.9921,6.0312,6.0468,6.1249,6.159,6.1675,6.1675,6.1675,6.1677,6.169,6.1616,6.1541,6.1672,6.1558,6.1247,6.0468,6.0117,5.9804,5.9101,6.0508,6.2383,6.3476,6.5703,6.7617,0.0,6.9528,7.1284,7.1268,7.3256,7.5244,7.6206,7.7832,7.9346,8.0318,8.1283,8.1855,8.1733,8.1656,8.1563,8.1494,8.0308,7.9814,8.0597,8.0675,8.0987,8.177,8.1811,8.151,8.0784,8.0788,8.036,7.95,7.9457,7.902,7.8107,7.8045,7.7236,7.5718,7.5577,7.4649,7.3049,7.297,7.2456,7.1584,7.074,7.0378,7.0263,6.8667,6.7965,6.7768,6.691,6.5977,6.4969,6.3476,6.2859,6.2623,0.0,0.0,0.0,0.0,0.0,0.0,0.0,0.0,0.0,0.0,4.5727,4.5746,4.5765,4.581,4.5849,4.5848,4.7083,4.8393,4.9554,5.0977,5.2278,5.3497,5.3598,5.3676,5.3844,5.4258,5.4798,5.547,5.6232,5.6852,5.7416,5.7796,5.797,5.802,5.8416,5.8619,5.8625,5.8977,5.9449,5.9921,6.0273,6.0703,6.1211,6.1562,6.1405,6.1008,6.1517,6.136,0.0,6.0933,6.0934,6.1013,6.1523,6.1718,6.1718,6.1875,6.1172,6.043,6.0625,6.2929,6.5467,6.6366,6.9253,7.1864,7.186,7.3841,7.5661,7.5687,7.6885,7.8197,7.9057,7.9783,8.0497,0.0,8.1614,8.1787,8.1708,8.1659,8.1586,8.1591,8.1048,8.0832,8.1238,8.1286,8.1402,8.1795,8.184,8.1718,8.1378,8.1419,8.1091,8.0192,8.0153,7.9481,7.8108,7.8082,7.7524,7.6388,7.593,7.5324,7.4609,7.3569,7.2584,7.1653,7.1282,7.0839,7.0298,6.964,6.8777,6.7807,6.7418,6.6734,6.579,6.4735,6.371,6.2793,0.0,0.0,0.0,0.0,0.0,0.0,0.0,0.0,0.0,0.0,4.5581,4.5624,4.5624,4.5646,4.5707,4.5719,4.7306,4.8774,4.9825,5.173,5.3327,5.4435,5.4731,5.5186,5.5795,5.5866,5.6527,5.7783,5.8081,5.8568,5.9215,5.9508,5.9662,5.9684,5.9734,5.9908,6.0119,6.0124,6.0642,6.1435,6.1202,6.1479,6.2028,6.1794,6.1169,6.0466,6.1093,6.0781,6.0078,6.0078,6.0078,6.0195,6.082,6.1015,6.1172,6.2031,6.1718,6.1365,6.2459,6.5111,6.7919,6.9244,7.2395,7.5229,7.5448,7.7296,7.8945,7.8915,7.9553,8.026,8.0854,8.0948,8.1095,8.1582,8.1649,8.1586,8.1493,8.1439,8.144,8.1427,8.1407,8.1395,8.1451,8.1529,8.1569,8.1569,8.1607,8.1659,8.1635,8.1742,8.1506,8.0884,8.0815,8.0068,7.8604,7.8549,7.8046,7.7127,7.6512,7.5959,7.5504,7.3691,7.2473,7.1775,7.1598,7.1115,7.0507,7.0346,6.9363,6.7942,6.7709,6.7092,6.6217,6.5787,6.4518,6.3016,0.0,0.0,0.0,0.0,0.0,0.0,0.0,0.0,0.0,0.0,0.0,0.0,0.0,4.5418,4.5424,4.5485,4.7103,4.8856,5.0563,5.3037,5.5214,5.6904,5.7853,5.837,5.8375,5.8383,5.8467,5.8553,5.9413,5.9871,5.9979,6.0847,6.131,6.1415,6.1417,6.1907,6.2685,6.2743,6.3297,6.4001,6.316,6.2855,6.2776,6.1994,6.1175,6.0401,6.0428,5.9922,5.9258,5.9258,5.9258,5.9258,5.9258,5.9297,5.9414,6.0233,6.1632,6.3298,6.4938,6.7311,6.9913,7.2431,7.5001,7.7092,7.7829,7.9373,8.0585,8.0465,8.1086,8.1602,8.1574,8.1508,8.1463,8.1496,8.1465,8.1407,8.14,8.1284,8.1229,8.1222,8.1154,8.1108,0.0,8.1353,8.1516,8.1516,8.1483,8.1508,8.1496,8.1502,8.1502,8.1463,8.1457,8.1041,8.0123,8.0144,7.9282,7.77,7.7721,7.6855,7.5149,7.3426,7.2587,7.2538,7.1677,7.1308,7.1186,7.0374,6.9479,6.8589,6.7815,6.6964,6.619,6.6167,6.5107,6.3555,0.0,0.0,0.0,0.0,0.0,0.0,0.0,0.0,0.0,0.0,0.0,0.0,0.0,0.0,0.0,0.0,4.6908,4.8394,4.9488,5.1962,5.4114,5.5832,5.6804,5.7843,5.8945,5.9089,5.944,6.0078,6.0423,6.0654,6.0661,6.0997,6.117,6.1263,6.1871,6.2351,6.2687,6.328,6.3406,6.3237,6.2933,6.2526,6.1925,6.1108,6.0248,5.9392,0.0,5.8456,5.8273,5.8316,5.8314,5.8273,5.8273,5.905,6.0255,6.165,6.2889,6.4282,6.6533,6.943,7.2282,7.4299,7.7082,7.9384,7.9574,8.0469,8.1237,8.1164,8.0927,8.0682,8.0638,8.0608,8.0557,8.0459,8.0898,8.1234,8.1222,8.1169,8.1131,8.1131,8.1108,0.0,0.0,0.0,0.0,8.122,8.1263,8.1305,8.1287,8.1335,8.1362,8.1362,8.1315,8.0915,8.0086,8.0027,7.9481,7.8411,7.7891,7.7051,7.5889,7.4711,7.3537,7.2371,7.2125,7.1683,7.1067,7.0839,6.9868,6.8527,6.8257,6.7263,6.5993,6.5993,6.4899,6.3477,0.0,0.0,0.0,0.0,0.0,0.0,0.0,0.0,0.0,0.0,0.0,0.0,0.0,0.0,0.0,0.0,0.0,4.7691,4.8844,5.1031,5.3169,5.514,5.6109,5.7257,5.8646,5.8802,5.9202,5.9808,6.0234,6.0436,6.0462,6.0852,6.1022,6.1098,6.1672,6.2159,6.2579,6.3095,6.3238,6.3051,6.248,6.1929,6.1344,6.0178,5.9202,0.0,5.7818,5.7463,5.7229,5.7347,5.7547,5.7775,5.7775,5.9166,6.1057,6.2448,6.4056,6.6005,6.8558,7.1466,7.4289,7.6292,7.8625,8.0474,8.0704,8.1114,8.1367,8.1008,8.0235,7.9526,7.9144,7.9092,7.918,7.9382,8.013,8.0808,8.1062,8.1093,8.1093,8.1093,8.1093,8.1208,0.0,0.0,0.0,8.1131,8.1139,8.1285,8.1593,8.1638,8.1668,8.1668,8.1623,8.1192,8.0396,8.0345,7.995,7.9155,7.8315,7.7466,7.6616,7.5767,7.4558,7.3122,7.2552,7.1968,7.1396,7.1127,7.0003,6.8469,6.8469,6.7404,6.5865,6.5551,6.4743,6.3871,0.0,0.0,0.0,0.0,0.0,0.0,0.0,0.0,0.0,0.0,0.0,0.0,0.0,0.0,0.0,0.0,0.0,0.0,4.8567,5.0317,5.2379,5.4794,5.576,5.664,5.7496,5.761,5.7729,5.7838,5.8769,5.9294,5.9369,6.0299,6.0811,6.0876,6.0915,6.1413,6.224,6.2291,6.2778,6.3368,6.1785,6.1108,6.0879,5.925,5.8122,5.7393,5.7465,5.6942,5.6272,5.6437,5.7099,5.7914,5.7989,5.9711,6.185,6.2738,6.5336,6.8445,7.1003,7.3501,7.5984,7.8441,7.9674,8.0418,8.1143,8.1303,8.1031,7.9965,7.9057,7.8188,0.0,0.0,7.7484,7.8292,7.9208,8.0123,8.1016,8.117,8.117,0.0,0.0,0.0,0.0,0.0,0.0,8.1362,0.0,8.1554,8.2324,8.2362,8.2362,8.2362,8.2324,8.1939,8.117,8.1131,8.0669,7.9854,7.8977,7.8176,7.7407,7.6476,7.5592,7.4661,7.3053,7.229,7.2136,7.1321,6.9937,6.8391,6.8391,6.7391,6.5788,6.4936,6.4589,6.4551,0.0,0.0,0.0,0.0,0.0,0.0,0.0,0.0,0.0,0.0,0.0,0.0,0.0,0.0,0.0,0.0,0.0,0.0,4.7169,4.8814,5.0596,5.2401,5.3432,5.4349,5.5203,5.5503,5.5662,5.5763,5.6804,5.7371,5.7518,5.8443,5.8929,5.9001,5.9617,6.0041,6.0375,6.1008,6.1098,6.0742,6.033,5.9782,5.916,5.8071,5.7525,5.7331,5.7348,5.7197,5.7044,5.7223,5.8682,6.0605,6.1794,6.3045,6.4535,6.6635,6.8723,7.0927,7.3485,7.5984,7.8205,7.9514,8.0402,8.0814,8.0393,8.0227,7.9783,7.8283,7.7275,7.639,7.5515,7.5899,0.0,7.7484,7.8823,0.0,8.1785,8.1977,0.0,8.2909,0.0,8.3024,8.3255,8.3255,0.0,0.0,8.3324,8.3062,8.3255,8.3255,8.3255,8.3255,8.2631,8.2208,8.2016,8.14,8.0977,8.0746,7.99,7.9361,7.9131,7.763,7.6476,7.563,7.4514,7.336,7.2175,7.1944,7.0514,6.8391,6.8391,6.7391,6.5788,6.4936,6.4199,6.3737,0.0,0.0,0.0,0.0,0.0,0.0,0.0,0.0,0.0,0.0,0.0,0.0,0.0,0.0,0.0,0.0,0.0,0.0,0.0,4.7271,4.8742,5.0354,5.1277,5.2223,5.3098,5.3031,5.318,5.3663,5.4462,5.5123,5.5661,5.6606,5.7109,5.7165,5.7627,5.8072,5.8495,5.8996,5.9188,0.0,0.0,5.8302,5.7791,5.6937,5.686,5.7168,5.7183,5.8163,5.9592,6.042,6.1664,6.3167,6.4822,6.6414,6.8086,6.9844,7.181,7.3887,7.6064,7.7896,7.9468,8.0323,8.0567,8.0469,7.9961,7.9276,7.8323,7.7015,7.5438,7.4168,7.3707,7.4014,7.4861,0.0,0.0,0.0,8.2054,8.2631,8.3062,0.0,8.3939,0.0,8.467,8.5025,8.5632,0.0,8.5093,8.4478,8.5217,8.5255,8.5093,8.4709,8.4209,8.3439,8.2324,8.1516,8.1093,8.1093,8.0592,8.0162,7.9777,7.8823,7.7746,7.6515,0.0,7.4322,7.2745,7.236,7.0706,6.8391,6.8391,6.7391,6.5743,6.4474,6.3737,6.3352,0.0,0.0,0.0,0.0,0.0,0.0,0.0,0.0,0.0,0.0,0.0,0.0,0.0,0.0,0.0,0.0,0.0,0.0,0.0,0.0,4.7048,4.843,4.9301,5.006,5.078,5.0268,5.0411,5.129,5.193,5.2685,5.3619,5.4718,5.5297,5.5362,5.5362,5.5785,5.6516,5.6632,5.7093,5.7742,5.7093,5.6824,5.6747,0.0,5.6324,5.7027,5.7335,5.954,6.2618,6.4411,6.5346,6.6007,6.7697,6.9898,7.2018,7.2796,7.4648,7.6763,7.8342,7.933,8.0169,8.09,8.0439,7.9738,7.9515,7.8246,7.683,7.5707,7.363,7.2021,7.2021,7.2021,7.286,7.5399,7.79,8.0131,8.2016,8.3062,8.3717,8.4063,8.4786,8.5547,8.6363,8.7248,8.8094,8.8987,8.7094,8.6401,8.7517,8.7555,8.7132,8.6132,8.5901,8.4632,8.2324,8.1516,8.1093,8.1093,8.1093,8.0708,7.9969,7.9854,7.9015,7.7592,0.0,0.0,7.3584,7.2745,7.0783,6.8391,6.8391,6.7391,6.5705,6.4083,6.3468,6.3468,0.0,0.0,0.0,0.0,0.0,0.0,0.0,0.0,0.0,0.0,0.0,0.0,0.0,0.0,0.0,0.0,0.0,0.0,0.0,0.0,0.0,4.6396,4.7297,4.7535,4.7037,4.7139,4.7316,4.761,4.9419,5.0493,5.0923,5.2629,5.3525,5.3626,5.3626,5.3703,5.3895,5.4626,5.5011,5.5203,5.5708,5.5939,5.5978,5.6555,0.0,0.0,5.8561,6.0837,6.346,6.5878,6.8122,7.0215,7.1896,7.3686,7.5334,7.6188,7.7244,7.8307,7.93,8.0215,8.09,8.1054,8.0439,7.9431,7.8054,7.6938,7.5592,7.3322,7.1937,7.1129,7.1129,7.1129,7.1975,7.4507,7.6515,7.8784,8.1862,8.3062,8.4371,0.0,8.6863,8.7286,8.8179,8.8979,0.0,0.0,0.0,9.0402,8.8564,8.8487,8.7748,8.617,8.4747,8.3486,8.2324,8.1516,8.1093,8.1093,8.1093,8.1016,8.0862,8.0131,7.9623,7.9285,0.0,0.0,7.443,7.3623,7.1353,6.8391,6.8391,6.7391,6.5788,6.4743,6.4352,6.4352,0.0,0.0,0.0,0.0,0.0,0.0,0.0,0.0,0.0,0.0,4.3387,4.4121,0.0,0.0,0.0,0.0,0.0,0.0,0.0,0.0,0.0,0.0,4.6112,4.6424,4.611,4.5884,4.6264,4.7308,0.0,4.908,5.0206,5.1228,5.1753,5.1895,5.1895,5.2125,5.2544,5.2967,5.3664,5.4511,5.4934,5.5324,5.5785,0.0,0.0,0.0,5.9742,6.182,6.432,6.6397,6.9117,7.2017,7.4137,7.5938,7.7476,7.8361,7.9208,7.9939,8.0362,8.0785,8.1093,8.1093,8.0092,7.8784,7.7599,7.5592,7.3675,7.2444,7.0443,6.9206,7.009,7.0283,7.0975,7.3053,7.5592,7.8176,8.0669,8.2516,8.4371,8.6478,8.7517,8.8594,8.9863,9.0748,0.0,0.0,0.0,9.2402,9.0748,8.941,8.8333,8.7478,8.5401,8.3862,8.2986,8.2131,8.1516,8.1093,8.1093,8.1093,8.1093,8.0669,8.0239,7.9738,7.8477,0.0,7.5284,7.4007,7.2007,6.9629,6.8737,6.7628,6.6365,6.5089,6.4589,6.4589,0.0,0.0,0.0,0.0,0.0,0.0,0.0,4.0598,4.147,4.2433,4.3819,4.4847,4.5177,4.5067,0.0,0.0,0.0,0.0,0.0,0.0,0.0,0.0,0.0,0.0,0.0,0.0,0.0,4.7691,4.7617,0.0,0.0,0.0,0.0,0.0,5.0707,5.1048,5.1659,5.1851,5.2813,0.0,0.0,5.5093,0.0,0.0,0.0,0.0,0.0,6.2204,6.4359,6.6211,6.8751,7.1598,7.4322,7.6599,7.8446,7.9477,8.0285,8.0862,8.1054,8.1093,8.1093,8.1093,7.9785,7.8253,7.7253,7.4522,7.2136,7.1944,6.9366,6.7635,6.9398,6.9398,6.9706,7.1398,7.4214,7.6868,7.8707,8.1323,8.3824,8.5863,8.7632,0.0,9.1287,9.2249,0.0,0.0,0.0,0.0,9.2556,9.0248,8.8872,8.8718,8.6247,8.4478,8.3601,8.2747,8.19,8.1093,8.1093,8.1093,8.1093,8.1093,8.0746,8.0015,7.8946,0.0,0.0,7.4276,7.2469,7.0744,6.9276,6.8013,6.6942,6.5628,6.5013,6.4897,0.0,0.0,0.0,0.0,0.0,0.0,0.0,4.0598,4.1654,4.3176,4.4158,4.525,4.6709,4.6241,0.0,0.0,0.0,0.0,0.0,0.0,0.0,0.0,0.0,0.0,0.0,0.0,0.0,4.7004,0.0,0.0,0.0,0.0,0.0,0.0,0.0,5.0745,5.0861,5.1582,0.0,0.0,0.0,0.0,0.0,0.0,0.0,0.0,0.0,6.1479,6.271,6.5173,6.6712,6.8135,7.1521,7.4791,7.7715,7.9323,7.9854,8.0092,8.09,8.1093,8.1093,8.1093,7.9785,7.8099,7.6476,7.4091,7.1982,7.1168,6.8936,6.7635,6.9398,6.8398,6.7904,6.9667,7.1475,7.3521,7.6015,7.9208,8.2516,8.5709,0.0,0.0,9.2133,9.3095,0.0,0.0,0.0,0.0,9.2556,9.0787,8.944,8.8718,8.6247,8.4478,8.3601,8.2747,8.19,8.1093,8.1093,8.1093,8.1093,8.1093,8.1054,8.09,0.0,0.0,0.0,7.4514,7.2469,7.0821,6.9937,6.8552,6.7096,6.6942,6.6404,6.5788,0.0,0.0,0.0,0.0,0.0,0.0,0.0,4.0598,4.169,4.3286,4.4599,4.5838,4.6966,4.7232,4.7159,0.0,0.0,0.0,0.0,0.0,0.0,0.0,0.0,0.0,0.0,0.0,0.0,4.7874,0.0,0.0,0.0,0.0,0.0,0.0,0.0,0.0,5.0707,5.1053,0.0,0.0,0.0,0.0,0.0,0.0,0.0,0.0,0.0,0.0,6.2403,6.4436,6.5667,6.6782,6.9167,7.1206,7.336,7.6553,7.8246,7.9208,8.0092,8.0708,8.0977,8.0439,7.94,7.7907,7.5707,7.363,7.1944,7.1091,6.9283,6.809,6.8776,6.8359,6.7936,6.809,6.9975,7.1937,7.3514,7.7053,8.04,8.2824,8.5478,0.0,0.0,0.0,0.0,0.0,0.0,0.0,9.2556,9.0402,8.9017,8.8718,8.6709,8.4978,8.3601,8.3255,8.2401,8.1093,8.1093,8.1093,8.1093,8.1093,8.1093,8.1016,0.0,0.0,0.0,7.5284,7.3546,7.2315,7.0975,6.9398,6.7821,6.7289,6.6596,6.5904,0.0,0.0,0.0,0.0,0.0,0.0,3.9798,4.0598,4.169,4.3286,4.4892,4.6214,4.7003,4.7819,4.8076,4.7489,0.0,0.0,0.0,0.0,0.0,0.0,0.0,0.0,0.0,0.0,0.0,4.8963,4.9256,4.9799,0.0,0.0,0.0,0.0,0.0,0.0,0.0,0.0,0.0,0.0,0.0,0.0,0.0,0.0,0.0,0.0,0.0,0.0,0.0,0.0,0.0,6.5019,6.6429,6.7507,6.909,7.3553,7.6053,7.763,7.8746,7.9669,8.0169,7.9554,7.8592,7.7207,7.5168,7.3206,7.1636,7.1014,6.9584,6.8391,6.8391,6.8199,6.7744,6.6865,6.8667,7.0475,7.1321,7.5099,7.8515,8.0477,0.0,8.6855,0.0,0.0,0.0,0.0,0.0,0.0,0.0,9.0064,8.8718,8.8718,8.6786,8.5055,8.3601,8.3332,8.2516,8.1093,8.1093,8.1093,8.1093,8.1093,8.1093,8.1016,0.0,0.0,0.0,7.6015,7.4469,7.3353,7.186,7.0244,6.866,6.7821,6.6974,6.6211,0.0,0.0,0.0,0.0,0.0,0.0,0.0,4.0598,4.169,4.3286,4.4892,4.6214,4.7003,4.7819,4.8296,4.8296,0.0,0.0,0.0,0.0,0.0,0.0,0.0,0.0,0.0,0.0,4.8871,5.0076,5.0277,5.0462,5.0617,5.0682,0.0,0.0,0.0,0.0,0.0,0.0,0.0,0.0,0.0,0.0,0.0,0.0,0.0,0.0,0.0,0.0,0.0,0.0,0.0,0.0,0.0,6.3929,6.5667,7.0751,7.3437,7.513,7.6861,7.7907,7.8523,7.8523,7.7253,7.5784,7.4892,7.2745,7.0898,7.0898,6.9584,6.8391,6.8391,6.7705,6.6865,6.6058,6.7321,6.8737,6.959,7.336,7.6976,0.0,0.0,8.6239,0.0,0.0,0.0,0.0,0.0,0.0,0.0,9.0064,8.8718,8.8718,8.6247,8.4478,8.3601,8.2747,8.19,8.1093,8.1093,8.1093,8.1093,8.1093,8.1093,0.0,0.0,0.0,0.0,7.6669,7.5014,7.3392,7.2514,7.1168,6.959,6.8699,6.7859,6.6981,0.0,0.0,0.0,0.0,0.0,0.0,0.0,4.039,4.1728,4.2689,4.4288,4.582,4.7086,4.7472,4.7849,4.8401,0.0,0.0,0.0,0.0,0.0,0.0,0.0,0.0,0.0,0.0,4.9594,5.0157,5.0384,5.0532,5.0682,5.1231,5.1505,5.1543,0.0,0.0,0.0,0.0,0.0,0.0,0.0,0.0,0.0,0.0,0.0,0.0,0.0,0.0,0.0,0.0,0.0,0.0,0.0,0.0,0.0,6.5628,6.8975,7.2476,7.4245,7.5745,7.663,7.6053,7.5515,7.4745,7.3322,7.2367,7.1629,7.1014,7.0052,6.9122,6.8507,6.7705,6.6827,6.6019,6.7321,6.8699,6.959,0.0,0.0,7.79,8.2593,8.6816,0.0,0.0,0.0,0.0,0.0,0.0,0.0,8.944,8.8718,8.8718,8.6247,8.4478,8.3601,8.2747,8.19,8.1093,8.1093,8.1093,8.1093,8.1093,0.0,0.0,0.0,0.0,0.0,7.6669,7.5014,7.3469,7.3199,7.1706,6.959,6.8737,6.7859,6.6981,0.0,0.0,0.0,0.0,0.0,0.0,0.0,4.0133,4.1341,4.2097,4.3648,4.5197,4.6413,4.6776,4.7276,4.8134,0.0,0.0,0.0,0.0,0.0,0.0,0.0,0.0,0.0,4.9325,5.0018,5.0298,5.0769,5.1039,5.1164,5.2005,5.239,5.2428,5.2967,0.0,0.0,0.0,0.0,0.0,0.0,0.0,6.0787,0.0,0.0,0.0,0.0,0.0,0.0,0.0,0.0,0.0,0.0,0.0,0.0,0.0,6.532,6.8552,7.093,7.2815,7.3937,7.3399,7.3046,7.2552,7.1475,7.1014,7.0591,7.009,6.9552,6.893,6.809,6.7475,6.6827,6.6019,6.7321,6.8699,6.959,0.0,0.0,7.9331,0.0,0.0,0.0,0.0,0.0,0.0,0.0,0.0,0.0,8.8517,8.7709,8.7709,8.5555,8.3978,8.3139,8.2285,8.1593,8.1093,8.1093,8.1093,8.1093,8.1093,0.0,0.0,0.0,0.0,0.0,7.7053,7.5322,7.3507,7.3507,7.2122,7.0052,6.9206,6.8359,6.7475,0.0,0.0,0.0,0.0,0.0,0.0,0.0,0.0,0.0,0.0,4.3103,4.4393,4.525,4.5938,4.6707,0.0,0.0,0.0,0.0,0.0,0.0,0.0,0.0,0.0,0.0,4.9555,5.0226,5.0412,5.1338,5.1839,5.1923,5.2851,5.3274,5.3274,5.3351,5.339,0.0,0.0,0.0,0.0,5.8313,5.9319,0.0,0.0,0.0,0.0,0.0,0.0,0.0,0.0,0.0,0.0,0.0,0.0,0.0,0.0,0.0,0.0,0.0,6.9244,7.0629,7.0629,7.0129,6.9629,6.9629,6.8968,0.0,6.8391,6.8353,6.8045,6.725,6.7058,6.6789,6.6019,6.7321,6.8737,0.0,7.2783,0.0,0.0,0.0,0.0,0.0,0.0,0.0,0.0,0.0,0.0,0.0,8.7432,8.6055,8.594,8.4362,8.3139,8.2324,8.1516,8.1093,8.1093,8.1093,8.1093,8.1093,8.1093,0.0,0.0,0.0,0.0,0.0,7.7484,7.5707,7.3507,7.343,7.2399,7.0783,7.0014,6.9161,6.8276,0.0,0.0,0.0,0.0,0.0,0.0,0.0,0.0,0.0,0.0,0.0,4.4134,4.5386,4.5679,0.0,0.0,0.0,0.0,0.0,0.0,0.0,0.0,0.0,0.0,0.0,5.0105,5.0344,5.0478,5.1359,5.1839,5.1923,5.3472,5.4203,5.4203,5.4857,5.5126,5.5126,0.0,0.0,0.0,5.8313,5.9319,0.0,0.0,0.0,0.0,6.0787,6.0787,0.0,0.0,0.0,0.0,0.0,0.0,0.0,0.0,6.171,6.2557,6.3364,0.0,6.7981,6.7981,6.8359,6.8699,0.0,6.8545,6.8391,6.8391,6.7859,6.7321,6.7135,6.6596,6.6134,6.5936,6.7321,6.893,7.0398,0.0,0.0,8.3139,0.0,0.0,0.0,0.0,0.0,0.0,0.0,0.0,0.0,8.6786,8.5517,8.4209,8.317,8.2516,8.2285,8.1516,8.1093,8.1093,8.1093,8.1093,8.1093,8.1093,0.0,0.0,0.0,0.0,7.7445,7.5938,7.4584,7.343,7.2783,7.186,7.0783,7.0014,6.9161,6.8276,0.0,0.0,0.0,0.0,0.0,0.0,0.0,0.0,0.0,0.0,0.0,0.0,0.0,0.0,0.0,0.0,0.0,0.0,0.0,0.0,0.0,0.0,0.0,4.9375,5.0271,5.0401,5.0473,5.0537,5.1823,5.248,5.2544,5.4241,5.5049,5.5049,5.5516,5.5708,5.5747,5.6132,5.7049,5.8313,5.8698,0.0,0.0,0.0,0.0,0.0,6.0787,6.0787,0.0,6.0787,6.0787,6.0787,0.0,0.0,0.0,0.0,6.1133,6.1518,6.1518,6.3397,6.5359,6.5359,6.5699,6.6045,6.6045,6.6045,6.6045,6.6045,6.6013,6.5936,6.5936,6.5936,6.6019,6.6404,6.7552,0.0,0.0,0.0,8.0208,8.3255,0.0,0.0,0.0,0.0,0.0,0.0,0.0,0.0,0.0,8.4996,8.3665,8.2744,8.1935,8.1587,8.1747,8.1323,8.1093,8.1093,8.1093,8.1093,8.1093,8.0708,0.0,0.0,0.0,0.0,7.6592,7.5238,7.3969,7.286,7.2367,7.1668,7.086,7.0398,6.9468,6.8314,0.0,0.0,0.0,0.0,0.0,0.0,0.0,0.0,0.0,0.0,0.0,0.0,0.0,0.0,0.0,0.0,0.0,0.0,0.0,0.0,0.0,0.0,0.0,4.9696,5.0446,5.0542,5.0632,5.0632,5.2331,5.3197,5.3236,5.4934,5.5708,5.5708,5.5708,5.5785,5.5939,5.667,5.7555,5.8544,5.9242,0.0,0.0,0.0,0.0,0.0,0.0,0.0,0.0,6.0787,6.0787,6.0787,6.0787,0.0,0.0,0.0,0.0,0.0,6.0787,6.1858,6.2968,6.3083,6.3198,6.3314,6.3314,6.3314,6.3314,6.3314,6.3891,6.4436,6.4589,6.532,6.6211,0.0,0.0,0.0,7.5553,7.8169,8.0554,0.0,0.0,0.0,0.0,0.0,0.0,0.0,0.0,0.0,0.0,8.297,8.1662,8.1662,8.0925,8.0599,8.0767,8.0968,8.1069,8.1069,8.0969,8.09,8.0862,8.0015,7.9515,0.0,0.0,0.0,7.5707,7.4745,7.3476,7.2175,7.2059,7.1552,7.0898,7.0744,6.9744,6.8353,0.0,0.0,0.0,0.0,0.0,0.0,0.0,0.0,0.0,0.0,0.0,0.0,0.0,0.0,0.0,0.0,0.0,0.0,0.0,0.0,0.0,0.0,5.0437,5.0519,5.0634,5.0687,5.0697,5.0697,5.2351,5.3197,5.3236,5.4934,5.5708,5.5708,5.5708,5.6093,5.6824,5.6945,5.7901,5.9319,5.9435,0.0,0.0,0.0,0.0,0.0,0.0,0.0,0.0,6.0787,6.0787,6.0787,6.0787,0.0,0.0,0.0,0.0,0.0,6.0787,6.0973,6.1364,6.2095,6.2781,6.3314,6.3314,6.3314,6.3314,6.3314,6.3429,6.3737,6.4474,6.532,6.6397,0.0,0.0,7.3738,0.0,0.0,0.0,0.0,0.0,0.0,0.0,0.0,0.0,0.0,0.0,0.0,0.0,0.0,8.1446,8.1446,8.0608,7.9915,7.9332,8.0379,8.0943,8.0904,8.0284,8.0008,7.9977,7.9092,7.833,0.0,0.0,7.5707,7.4776,7.3206,7.2444,7.2136,7.1398,7.1014,7.0821,7.0129,6.9244,6.8199,0.0,0.0,0.0,0.0,0.0,0.0,0.0,0.0,0.0,0.0,0.0,0.0,0.0,0.0,0.0,0.0,0.0,0.0,0.0,0.0,0.0,5.0014,5.0014,5.0014,5.0014,5.0014,5.0014,5.0014,5.2164,5.3197,5.3236,5.4934,5.5708,5.5708,5.5708,5.617,5.7016,5.7517,5.8396,5.955,0.0,0.0,0.0,0.0,0.0,0.0,0.0,0.0,0.0,0.0,6.0787,6.0787,6.0787,0.0,0.0,0.0,0.0,0.0,6.0787,6.0787,6.0902,6.1287,6.1666,6.1935,6.1935,6.232,6.2666,6.2666,6.3358,6.4122,6.4551,6.5667,6.7398,7.0014,0.0,7.5592,0.0,0.0,0.0,0.0,0.0,0.0,0.0,0.0,0.0,0.0,0.0,0.0,0.0,0.0,7.988,7.988,7.9203,7.8722,7.8463,7.8865,7.9201,7.944,7.9175,7.9054,7.9054,7.8215,7.7407,7.6553,0.0,7.4553,7.3283,7.2521,7.1905,7.1475,7.1052,7.0898,7.0744,6.9468,6.8436,6.7513,0.0,0.0,0.0,0.0,0.0,0.0,0.0,0.0,0.0,0.0,0.0,0.0,0.0,0.0,0.0,0.0,0.0,0.0,0.0,0.0,4.9086,4.9086,4.8933,4.8894,4.9086,4.9086,4.9202,4.9394,5.1741,5.3197,5.3818,5.5088,5.5708,5.5708,5.5708,5.6285,5.7363,5.8011,5.889,5.9858,0.0,0.0,0.0,0.0,0.0,0.0,0.0,0.0,0.0,0.0,0.0,0.0,0.0,0.0,0.0,6.0787,6.0787,6.0787,6.0787,6.0787,6.0787,6.0787,6.0787,6.0864,6.1056,6.1633,6.2133,6.2326,6.3397,6.4359,6.4551,6.6282,0.0,7.1975,7.4284,0.0,0.0,0.0,0.0,0.0,0.0,0.0,0.0,0.0,0.0,0.0,0.0,0.0,0.0,0.0,7.8032,7.8205,7.7628,7.7216,7.701,7.6781,7.7129,7.8092,7.8056,7.8007,7.7877,7.7031,7.6192,7.5361,7.4476,7.3399,7.2175,7.1982,7.1514,7.0898,7.0898,7.0667,7.0129,6.8629,6.7552,6.675,0.0,0.0,0.0,0.0,0.0,0.0,0.0,0.0,0.0,0.0,0.0,0.0,0.0,0.0,0.0,0.0,0.0,0.0,0.0,0.0,4.8197,4.8197,4.7466,4.7428,4.8197,4.8197,4.8586,4.9394,5.1159,5.3197,5.5516,5.5631,5.5708,5.5708,5.5708,5.6626,5.8204,5.828,5.9242,6.0704,6.0781,0.0,0.0,0.0,0.0,0.0,0.0,0.0,0.0,0.0,0.0,0.0,0.0,0.0,6.0787,6.0787,6.0787,6.0787,6.0787,6.0787,6.0787,6.0787,6.0787,6.1018,6.1826,6.2056,6.2326,6.3045,6.3314,6.3622,6.4436,6.7282,7.036,7.2969,7.4199,0.0,0.0,0.0,0.0,0.0,0.0,0.0,0.0,0.0,0.0,0.0,0.0,0.0,0.0,0.0,0.0,7.7091,7.6351,7.5342,7.41,7.4157,7.5383,7.7807,7.7261,7.6673,7.6056,7.5173,7.4411,7.3623,7.2745,7.2329,7.2136,7.1321,7.0975,7.0898,7.0898,6.9937,6.8468,6.7552,6.6673,6.5981,0.0,0.0,0.0,0.0,0.0,0.0,0.0,0.0,0.0,0.0,0.0,0.0,0.0,0.0,0.0,0.0,0.0,0.0,0.0,0.0,4.7351,4.7351,4.7043,4.6774,4.6552,4.7086,4.7774,4.8586,5.1351,5.3472,5.4972,5.5478,5.5708,5.5708,5.5708,5.6362,5.7478,5.7478,5.8478,5.9973,5.9973,5.9973,0.0,0.0,0.0,0.0,0.0,0.0,0.0,0.0,6.0787,6.0787,6.0787,6.0787,6.0787,6.0787,6.0787,6.0787,6.0787,6.0396,6.0127,6.0666,6.0396,6.0358,6.1787,6.2903,6.3897,6.4743,6.532,6.5743,6.609,0.0,6.9738,7.2283,0.0,0.0,0.0,0.0,0.0,0.0,0.0,0.0,0.0,0.0,0.0,0.0,0.0,0.0,0.0,0.0,0.0,7.5674,7.4519,7.3673,7.3244,7.2447,7.266,7.3894,7.4068,7.4103,7.4024,7.3821,7.3023,7.1797,7.1532,7.0783,6.9821,6.9475,6.9353,6.9353,6.9353,6.8629,6.7552,6.7212,6.6596,6.5904,0.0,0.0,0.0,0.0,0.0,0.0,0.0,0.0,0.0,0.0,0.0,0.0,0.0,0.0,0.0,0.0,0.0,0.0,4.6432,4.6509,4.6509,4.6509,4.6509,4.6201,4.5594,4.6163,4.6894,4.7735,5.0856,5.3126,5.4511,5.5049,5.5478,5.5708,5.5708,5.617,5.6983,5.6983,5.7824,5.9127,5.9127,5.9127,0.0,0.0,0.0,0.0,0.0,0.0,0.0,0.0,6.0556,6.0787,6.0787,6.0787,6.0787,6.0787,6.0594,6.0396,6.0396,5.9781,5.9319,6.0165,5.9935,6.0012,6.2012,6.3589,6.4936,6.6051,6.6712,6.7096,6.7096,6.759,0.0,0.0,0.0,0.0,0.0,0.0,0.0,0.0,0.0,0.0,0.0,0.0,0.0,0.0,0.0,0.0,0.0,0.0,0.0,0.0,7.2545,7.1839,7.1696,7.058,7.009,7.0209,7.051,7.1142,7.2032,7.2231,7.1497,7.0025,7.0095,6.9468,6.8391,6.8391,6.8391,6.8353,6.8084,6.7628,6.7058,6.6827,6.6365,6.5904,0.0,0.0,0.0,0.0,0.0,0.0,0.0,0.0,0.0,0.0,0.0,0.0,0.0,0.0,0.0,0.0,0.0,0.0,4.5594,4.5594,4.5594,4.5594,4.5594,4.5594,4.5594,4.5594,4.6052,4.6928,4.9476,5.2015,5.4472,5.4472,5.4934,5.5708,5.5708,5.617,5.6983,5.6983,5.7478,5.8275,5.8275,5.8275,5.8198,0.0,0.0,0.0,0.0,0.0,0.0,0.0,6.0089,6.0787,6.0787,6.0787,6.0787,6.0787,6.0165,5.9511,5.9511,5.8896,5.8467,5.9319,5.9511,6.0165,6.2737,6.3968,6.5089,6.675,6.7096,6.7096,6.7096,6.7096,0.0,0.0,0.0,0.0,0.0,0.0,0.0,0.0,0.0,0.0,0.0,0.0,0.0,0.0,0.0,0.0,0.0,0.0,0.0,0.0,7.0513,6.9775,6.9101,6.8422,6.7852,6.7382,6.6893,6.7871,7.0071,7.0342,6.9673,6.8265,6.8365,6.8353,6.8353,6.8353,6.8391,6.8276,6.7436,6.7096,6.6981,6.6211,6.5904,6.5904,0.0,0.0,0.0,0.0,0.0,0.0,0.0,0.0,0.0,0.0,0.0,0.0,0.0,0.0,0.0,0.0,0.0,0.0,4.5594,4.5594,4.5594,4.5594,4.5594,4.5594,4.5594,4.6201,4.6932,4.7735,5.0313,5.1928,5.2697,5.3933,5.4626,5.4895,5.5439,5.5824,5.6093,5.6093,5.6593,5.7401,5.7401,5.7401,5.7363,0.0,0.0,0.0,0.0,0.0,0.0,0.0,0.0,0.0,6.0787,6.0787,6.0787,6.0787,6.0165,5.9511,5.9511,5.8473,5.7747,5.9165,5.9511,6.0165,6.2737,6.3968,6.5089,6.675,6.759,6.7667,6.6481,6.625,0.0,0.0,0.0,0.0,0.0,0.0,0.0,0.0,0.0,0.0,0.0,0.0,0.0,0.0,0.0,0.0,0.0,0.0,0.0,0.0,6.9669,6.8889,6.8121,6.7445,6.6827,6.628,6.5934,6.6603,6.8135,6.8518,6.7829,6.6417,6.6576,6.6282,6.5782,6.6397,6.6628,6.6628,6.6365,6.625,6.625,6.5981,6.5904,6.5904,0.0,0.0,0.0,0.0,0.0,0.0,0.0,0.0,0.0,0.0,4.5594,4.5594,0.0,0.0,0.0,0.0,0.0,0.0,0.0,4.5594,4.5594,4.5594,4.5594,4.5744,4.6129,4.7278,4.8125,4.8625,5.0159,5.1236,5.1923,5.2967,5.3664,5.401,5.4472,5.4703,5.4703,5.4703,5.5208,5.6016,5.6016,5.6209,5.6478,0.0,0.0,0.0,0.0,0.0,0.0,0.0,0.0,0.0,6.0787,6.0787,6.0748,6.0396,5.9704,5.8934,5.8588,5.7786,5.7324,5.8665,5.9511,6.0666,6.3237,6.4743,6.5859,6.6904,6.7513,6.7475,6.6167,6.5628,0.0,0.0,0.0,0.0,0.0,0.0,0.0,0.0,0.0,0.0,0.0,0.0,0.0,0.0,0.0,0.0,0.0,0.0,0.0,0.0,6.771,6.7247,6.6733,6.6119,6.5521,6.4967,6.4641,6.4822,6.5457,6.6122,6.5769,6.4652,6.4808,6.4589,6.4122,6.4666,6.4859,6.4859,6.4859,6.4859,6.4859,6.4859,6.5089,6.5397,0.0,0.0,0.0,0.0,0.0,0.0,0.0,0.0,0.0,0.0,4.5556,4.5594,0.0,0.0,0.0,0.0,0.0,0.0,0.0,0.0,4.5594,4.5594,4.5667,4.6129,4.7005,4.8586,4.9433,4.951,4.951,5.0317,5.1774,5.1885,5.2313,5.3082,5.3159,5.3197,5.3197,5.3197,5.3664,5.4395,5.4395,5.4857,5.5593,5.5593,0.0,0.0,0.0,0.0,0.0,0.0,0.0,0.0,6.0781,6.0748,6.0512,5.9742,5.8858,5.805,5.7324,5.706,5.7247,5.828,5.9858,6.1781,6.4166,6.5891,6.6968,6.6981,0.0,6.6827,6.5929,0.0,0.0,0.0,0.0,0.0,0.0,0.0,0.0,0.0,0.0,0.0,0.0,0.0,0.0,0.0,0.0,0.0,0.0,0.0,0.0,0.0,6.5288,6.5251,6.5178,6.4598,6.4074,0.0,6.3126,6.2734,6.2542,6.3587,6.374,6.3079,6.3174,6.3198,6.3198,6.3275,6.3314,6.3314,6.3314,6.3314,6.3314,6.3314,6.3814,6.4474,0.0,0.0,0.0,0.0,0.0,0.0,0.0,0.0,0.0,0.0,0.0,0.0,0.0,0.0,0.0,0.0,0.0,0.0,0.0,0.0,4.5594,4.5594,4.624,4.7005,4.7812,4.8856,4.9745,5.0438,5.0438,5.0592,5.0976,5.1582,5.2,5.2197,5.289,5.3197,5.3197,5.3197,5.3313,5.3472,5.3472,5.3972,5.4741,5.4741,5.517,0.0,0.0,0.0,0.0,0.0,0.0,0.0,6.0589,6.0319,5.9742,5.955,5.8434,5.7401,5.7896,5.7517,5.7517,5.971,6.205,6.4128,6.532,6.5859,6.6102,6.616,6.6673,6.6615,6.5103,0.0,0.0,0.0,0.0,0.0,0.0,0.0,0.0,0.0,0.0,0.0,0.0,0.0,0.0,0.0,0.0,0.0,0.0,0.0,0.0,6.5288,6.5288,6.5007,6.4347,6.3763,6.3222,0.0,6.1778,6.1431,6.1705,6.2775,6.293,6.2346,6.2358,6.2364,6.2403,6.3051,6.3314,6.3314,6.3314,6.3314,6.3314,6.3314,6.3429,6.3583,0.0,0.0,0.0,0.0,0.0,0.0,0.0,0.0,0.0,0.0,0.0,0.0,0.0,0.0,0.0,0.0,0.0,0.0,0.0,0.0,4.5594,4.5594,4.6817,4.7658,4.8082,4.9356,5.0245,5.0707,5.0707,5.0707,5.0707,5.1125,5.1318,5.1356,5.1818,5.201,5.201,5.201,5.2241,5.2582,5.2582,5.3082,5.3895,5.3895,5.4395,5.5131,5.5131,0.0,0.0,0.0,0.0,0.0,0.0,0.0,5.8852,5.84,5.7626,5.7043,5.747,5.7541,5.8233,6.1184,6.3156,6.4633,6.5523,6.5653,6.5597,6.5559,6.5667,6.5478,0.0,0.0,0.0,0.0,0.0,0.0,0.0,0.0,0.0,0.0,0.0,0.0,0.0,0.0,0.0,0.0,0.0,0.0,0.0,6.2071,6.2511,6.2939,6.2939,6.2768,6.2328,6.2141,6.1849,6.1373,6.0999,6.0879,6.1023,6.1677,6.1767,6.1479,6.1479,6.1479,6.1518,6.1935,6.2089,6.2089,6.2089,6.2089,6.2089,6.2089,6.2358,6.2743,0.0,0.0,0.0,0.0,0.0,0.0,0.0,0.0,0.0,0.0,0.0,0.0,0.0,0.0,0.0,0.0,0.0,0.0,0.0,0.0,0.0,4.5594,4.7201,4.8082,4.8082,4.9822,5.063,5.0476,5.063,5.063,5.0476,5.063,5.0707,5.0707,5.0707,5.0707,5.0707,5.0707,5.1087,5.1697,5.1697,5.2197,5.2967,5.2967,5.351,5.428,5.428,5.5247,5.6593,5.6709,0.0,0.0,0.0,0.0,5.7906,5.7107,5.6733,5.6671,5.6899,5.7915,5.9568,6.2327,6.3695,6.4563,6.529,6.536,6.5229,6.4967,6.4573,0.0,0.0,0.0,0.0,0.0,0.0,0.0,0.0,0.0,0.0,0.0,0.0,0.0,0.0,0.0,0.0,0.0,0.0,0.0,6.0187,6.0187,6.0272,6.0419,6.0419,6.0419,6.0419,6.0531,6.0462,6.0167,6.0519,6.0667,6.061,6.071,6.0775,6.0787,6.0787,6.0787,6.0787,6.0787,6.0787,6.0787,6.0787,6.0787,6.0787,6.0787,6.1248,6.1864,0.0,0.0,0.0,0.0,0.0,0.0,0.0,0.0,0.0,0.0,0.0,0.0,0.0,0.0,0.0,0.0,0.0,0.0,4.4474,0.0,0.0,4.5594,4.7201,4.8082,4.8082,4.9822,5.0322,4.9586,5.0322,5.0322,4.9591,5.0361,5.0707,5.0707,5.0707,5.0707,5.0707,5.0707,5.0745,5.0861,5.0861,5.1356,5.2077,5.2077,5.262,5.3351,5.3351,5.401,5.4939,5.5631,5.6439,0.0,0.0,0.0,5.7031,5.6797,5.6142,5.5804,5.719,5.9803,6.2207,6.2627,6.3917,6.5069,6.5158,6.501,6.4693,0.0,0.0,0.0,0.0,0.0,0.0,0.0,0.0,0.0,0.0,0.0,0.0,0.0,0.0,0.0,0.0,0.0,0.0,0.0,0.0,0.0,5.9306,5.938,5.9673,6.0382,6.0419,6.0419,6.0419,5.9967,5.9863,6.0027,6.0126,6.0295,6.0538,6.0642,6.0734,6.0787,6.0787,6.0787,6.0787,6.0787,6.0787,6.0787,6.0787,6.0787,6.0787,6.0787,6.0864,6.0979,0.0,0.0,0.0,0.0,0.0,0.0,0.0,0.0,0.0,0.0,0.0,0.0,0.0,0.0,0.0,4.2456,4.2749,4.3345,4.4244,4.5128,4.5594,4.5594,4.6778,4.7428,4.7428,4.8625,4.9048,4.8663,4.9048,4.9317,4.9394,4.9784,5.0245,5.0707,5.0707,5.0707,5.0707,5.0707,5.0707,5.0707,5.0707,5.0899,5.1241,5.1241,5.1741,5.2467,5.2467,5.3356,5.4544,5.4858,5.5539,5.6258,5.6538,0.0,0.0,0.0,5.5407,5.5354,5.6945,5.9129,6.1186,6.2079,6.314,6.4073,6.4519,6.4087,6.3509,6.3075,0.0,0.0,0.0,0.0,0.0,0.0,0.0,0.0,0.0,0.0,0.0,0.0,0.0,0.0,0.0,0.0,0.0,0.0,0.0,5.8143,5.851,5.8547,5.8694,5.9024,5.9061,5.9061,5.9061,5.8915,5.9048,5.949,5.9786,6.0091,6.0356,6.0546,6.0691,6.0787,6.0787,6.0787,6.0787,6.0787,6.0787,6.0787,6.0787,6.0787,6.0787,6.0787,6.0787,6.0787,0.0,0.0,0.0,0.0,0.0,0.0,0.0,0.0,0.0,0.0,0.0,0.0,0.0,0.0,0.0,0.0,4.1819,4.2618,4.4222,4.5146,4.5603,4.5594,4.6432,4.6889,4.6889,4.7697,4.8005,4.7812,4.8005,4.8432,4.9086,4.9317,4.9861,5.0707,5.0707,5.0707,5.0707,5.0707,5.0707,5.0668,5.0476,5.0361,5.0361,5.013,5.0394,5.0966,5.1197,0.0,0.0,0.0,0.0,5.495,5.4987,5.481,0.0,0.0,0.0,5.5155,5.6312,5.7997,5.97,6.0877,6.1891,6.2711,6.327,0.0,6.2183,0.0,0.0,0.0,0.0,0.0,0.0,0.0,0.0,0.0,0.0,0.0,0.0,0.0,0.0,0.0,0.0,0.0,0.0,0.0,0.0,5.7776,5.7997,5.7813,5.7703,5.7703,5.7703,5.7703,5.7703,5.8034,5.8492,5.9025,5.9253,5.9485,5.9786,5.9831,5.9945,6.013,6.0615,6.0671,6.0473,6.0704,6.0671,6.0473,6.0704,6.0787,6.0787,6.0787,6.0787,6.0787,0.0,0.0,0.0,0.0,0.0,0.0,0.0,0.0,0.0,0.0,0.0,0.0,4.1919,4.1309,4.0858,4.0843,4.1561,4.2686,4.4298,4.5226,4.5676,4.5594,4.6432,0.0,4.6889,4.7697,4.7735,4.6966,4.7735,4.812,4.8197,4.9009,4.9861,5.0707,5.0707,5.0707,5.0707,5.0707,5.0707,5.063,4.9784,4.9471,4.9394,4.8548,4.8274,4.8389,0.0,0.0,0.0,0.0,0.0,0.0,0.0,0.0,5.2724,0.0,0.0,0.0,5.5277,5.7077,5.8942,5.896,6.019,6.1352,6.1262,0.0,0.0,0.0,0.0,0.0,0.0,0.0,0.0,0.0,0.0,0.0,0.0,0.0,0.0,0.0,0.0,0.0,0.0,0.0,0.0,0.0,0.0,5.7189,5.796,5.7299,5.6847,5.6847,5.6847,5.6847,5.6847,5.7818,5.8481,5.8825,5.8306,5.8281,5.8666,5.8125,5.8009,5.8353,6.0048,6.0319,5.9627,6.0473,6.0319,5.9665,6.0473,6.0787,6.0787,6.0787,6.0787,6.0787,0.0,0.0,0.0,0.0,0.0,0.0,0.0,0.0,0.0,0.0,0.0,0.0,0.0,4.1474,4.1463,4.0891,4.208,4.328,4.4314,4.5234,4.568,4.5594,4.5898,4.609,4.609,4.636,4.636,4.609,4.636,4.6778,4.7351,4.7658,4.8548,4.9899,5.0438,5.0707,5.0707,5.0707,5.0707,5.063,4.9745,4.9394,4.9356,4.9048,0.0,0.0,0.0,0.0,0.0,0.0,0.0,0.0,0.0,0.0,0.0,5.1944,5.2568,5.3437,5.3965,5.5124,5.657,5.8143,5.8941,5.959,6.0532,6.0282,5.9773,0.0,0.0,0.0,0.0,0.0,0.0,0.0,0.0,0.0,0.0,0.0,0.0,0.0,0.0,0.0,0.0,0.0,0.0,0.0,0.0,0.0,5.6429,5.6209,5.6014,5.6014,5.6014,5.6014,5.6014,5.6474,5.6768,5.692,5.6954,5.7135,5.746,5.7529,5.77,5.7953,5.8767,5.8977,5.8736,5.9088,5.9319,5.9511,5.9858,6.0319,6.0787,6.0787,6.0787,6.0787,0.0,0.0,0.0,0.0,0.0,0.0,0.0,0.0,0.0,0.0,0.0,0.0,0.0,0.0,4.1662,4.1362,4.2834,4.396,4.4376,4.5216,4.5658,4.5594,4.5594,4.5594,4.5594,4.5594,4.5594,4.5594,4.5594,4.6052,4.6889,4.6889,4.762,4.8971,4.9591,5.0168,5.0707,5.0707,5.0515,5.0207,0.0,0.0,4.8548,0.0,0.0,0.0,0.0,0.0,0.0,0.0,0.0,0.0,0.0,0.0,0.0,0.0,5.1209,5.1895,5.2458,5.338,5.4596,5.6255,5.7184,5.8012,5.909,0.0,5.8792,0.0,0.0,0.0,0.0,0.0,0.0,0.0,0.0,0.0,0.0,0.0,0.0,0.0,0.0,0.0,0.0,0.0,0.0,0.0,0.0,0.0,5.5585,5.5328,5.5218,5.5218,5.5218,5.5328,5.5585,5.5698,5.577,5.5876,5.5839,5.5995,5.6299,5.6436,5.667,5.6925,5.7167,5.7491,5.7896,5.8165,5.8434,5.8704,5.9281,5.9858,6.0396,6.071,6.0787,6.0787,0.0,0.0,0.0,0.0,0.0,0.0,0.0,0.0,0.0,4.3307,0.0,0.0,0.0,0.0,0.0,4.2194,4.3754,4.464,4.445,4.5218,4.5687,4.5594,4.5594,4.5594,4.5594,4.5594,4.5594,4.5594,4.5594,4.6013,4.6851,4.6851,4.7274,4.8043,4.8043,4.9009,5.063,5.063,5.013,4.9279,0.0,4.7582,4.6889,0.0,0.0,0.0,4.7548,4.762,0.0,4.9576,0.0,0.0,0.0,0.0,0.0,0.0,0.0,5.0765,0.0,0.0,0.0,5.3177,5.4976,5.6701,5.6737,0.0,0.0,0.0,0.0,0.0,0.0,0.0,0.0,0.0,0.0,0.0,0.0,0.0,0.0,0.0,0.0,0.0,0.0,0.0,0.0,0.0,0.0,5.4693,5.5475,5.4803,5.4363,5.4363,5.4326,5.4693,5.5475,5.5475,5.553,5.5649,5.497,5.4838,5.5212,5.4718,5.4746,5.5197,5.5326,5.6001,5.7016,5.7857,5.7742,5.7176,5.8781,5.9473,5.9588,6.0435,6.0787,6.0787,0.0,0.0,0.0,0.0,0.0,0.0,0.0,0.0,4.399,0.0,0.0,0.0,4.3302,4.311,4.3274,4.3996,4.4476,4.4876,4.531,4.5579,4.5654,4.5594,4.5594,4.5594,4.5594,4.5594,4.5594,4.5594,4.5594,4.5706,4.5975,4.5975,4.6394,4.7235,4.7235,4.7812,4.8817,4.8817,0.0,4.8394,4.7543,4.7081,0.0,0.0,0.0,0.0,0.0,4.8486,4.7852,0.0,4.8213,4.7889,0.0,0.0,0.0,0.0,0.0,0.0,4.9931,0.0,0.0,0.0,0.0,0.0,0.0,0.0,0.0,0.0,0.0,0.0,0.0,0.0,0.0,0.0,0.0,0.0,0.0,0.0,0.0,0.0,0.0,0.0,0.0,0.0,0.0,0.0,5.3544,5.3618,5.3838,5.3654,5.3544,5.3544,5.2968,5.2758,5.2978,5.2417,5.2144,5.2175,5.2618,5.3006,5.3349,5.4034,5.4661,5.5123,5.5307,5.565,5.6093,5.6319,5.6632,5.706,5.7517,5.8434,5.9511,5.9781,6.0242,6.0787,0.0,0.0,0.0,0.0,0.0,0.0,0.0,4.5237,4.505,0.0,0.0,0.0,4.3721,4.4031,4.439,4.4755,4.5067,4.5383,4.5661,4.5687,4.568,4.5594,4.5594,4.5594,4.5594,4.5594,4.5594,4.5594,4.5594,4.5594,4.5594,4.5594,4.5859,4.6355,4.6355,4.6624,4.7048,0.0,0.0,0.0,4.7081,0.0,0.0,4.7274,4.7081,0.0,0.0,0.0,4.7026,4.7177,4.7365,0.0,0.0,0.0,0.0,0.0,0.0,0.0,4.905,4.9674,5.0508,0.0,0.0,0.0,5.4326,5.4851,0.0,0.0,0.0,0.0,0.0,0.0,0.0,0.0,0.0,0.0,0.0,0.0,0.0,0.0,0.0,0.0,0.0,0.0,0.0,5.3214,5.3214,5.3067,5.2711,5.237,5.2186,5.2186,5.1756,5.1499,5.1499,5.1022,5.0802,5.0802,5.1313,5.191,5.2605,5.3342,5.418,5.5127,5.5269,5.5473,5.5708,5.5708,5.6016,5.6478,5.6863,5.7594,5.855,5.9242,5.9819,6.0319,0.0,0.0,0.0,0.0,0.0,0.0,0.0,0.0,0.0,0.0,4.5535,4.4776,4.4088,4.4667,4.5063,4.4958,4.5574,4.5925,4.5708,4.5683,4.5676,4.5594,4.5594,4.5594,4.5594,4.5594,4.5594,4.5594,4.5594,4.5594,4.5594,4.5594,4.5594,4.5594,0.0,0.0,4.5594,0.0,0.0,4.6774,4.6774,4.6278,0.0,0.0,4.6355,4.5706,4.6586,4.6281,4.5553,4.6069,4.6794,0.0,0.0,0.0,0.0,0.0,4.8186,4.8186,4.826,4.8866,4.95,0.0,0.0,0.0,5.2737,5.3482,5.4216,0.0,0.0,0.0,0.0,0.0,0.0,0.0,0.0,0.0,0.0,0.0,0.0,0.0,0.0,0.0,0.0,5.3251,5.3214,5.3214,5.3104,5.2711,5.1914,5.1206,5.0802,5.0802,5.0729,5.0655,5.0655,5.0582,5.0508,5.0508,5.0618,5.1298,5.2484,5.2713,5.3639,5.5127,5.5223,5.5437,5.5708,5.5708,5.5708,5.5785,5.6555,5.6901,5.717,5.8665,5.9358,5.9627,0.0,0.0,0.0,0.0,0.0,0.0,0.0,0.0,4.6198,4.6212,4.6118,4.5971,4.5817,4.5883,4.5929,4.5861,4.5896,4.5871,4.5784,4.5671,4.5603,4.5594,4.5594,4.5594,4.5594,4.5594,4.5594,4.5594,4.5594,4.5594,4.5594,4.5594,4.5594,4.5594,0.0,0.0,0.0,0.0,0.0,4.5859,4.5859,0.0,4.5706,4.6586,4.6355,4.5706,4.6586,4.6262,4.5361,0.0,4.5388,4.5738,0.0,0.0,0.0,0.0,0.0,0.0,0.0,0.0,0.0,0.0,0.0,0.0,5.1096,5.1389,5.172,0.0,0.0,0.0,0.0,0.0,0.0,0.0,0.0,0.0,0.0,0.0,0.0,0.0,0.0,0.0,0.0,5.3581,5.3214,5.3214,5.2601,5.1867,5.1096,5.0875,5.0802,5.0802,5.0188,4.9821,4.9821,4.915,4.8773,4.881,4.949,5.0459,5.1676,5.2451,5.3639,5.5127,5.5223,5.5437,5.5708,5.5708,5.5708,5.5708,5.5901,5.6362,5.7055,5.7363,5.8325,5.9511,0.0,0.0,0.0,0.0,0.0,0.0,0.0,0.0,4.6231,4.6238,4.6284,4.6287,4.6285,4.6228,4.6187,4.6117,4.5983,4.5841,4.5765,4.5658,0.0,4.5594,4.5594,0.0,0.0,0.0,4.5594,4.5594,4.5594,4.5594,4.5594,4.5594,4.5594,4.5594,4.5594,0.0,0.0,0.0,4.5594,4.5594,4.5594,0.0,4.5629,4.609,4.5975,4.5667,4.6086,4.5827,4.5229,4.4821,4.4986,0.0,0.0,4.541,4.6067,0.0,4.7113,4.7259,0.0,0.0,0.0,4.882,0.0,0.0,0.0,5.0188,5.0435,5.1242,0.0,0.0,0.0,0.0,0.0,0.0,0.0,0.0,0.0,0.0,0.0,0.0,0.0,0.0,0.0,5.3434,5.3031,5.2637,5.1867,5.1059,5.0261,4.9774,4.9554,4.9554,4.915,4.894,4.894,4.8526,4.8296,4.8296,4.8746,4.9565,5.0784,5.176,5.3016,5.4479,5.5032,5.5201,5.5093,5.5093,5.5093,5.5131,5.5555,5.5978,5.6401,5.6824,5.7517,5.8363,4.5904,0.0,0.0,0.0,0.0,0.0,0.0,0.0,4.6286,4.6288,4.6287,4.6286,4.6282,4.6255,4.6165,4.6091,4.5997,4.5856,0.0,0.0,0.0,0.0,4.5594,4.5594,0.0,0.0,4.5594,4.5594,4.5594,4.5594,4.5594,4.5594,4.5594,0.0,0.0,0.0,0.0,0.0,0.0,4.5594,0.0,4.5594,4.5594,4.5594,4.5594,4.559,4.5573,4.5414,4.5153,4.4821,0.0,4.5031,4.4848,4.5079,0.0,0.0,0.0,0.0,0.0,0.0,0.0,0.0,0.0,4.8489,0.0,0.0,0.0,5.0398,0.0,0.0,0.0,0.0,0.0,0.0,0.0,0.0,0.0,0.0,0.0,0.0,0.0,0.0,0.0,5.3287,5.281,5.184,5.1169,5.0362,4.938,4.8673,4.8296,4.8296,4.8296,4.8296,4.8296,4.8296,4.8296,4.8296,4.8296,4.8919,5.0116,5.0951,5.2126,5.3563,5.4421,5.4565,5.4226,5.4226,5.4236,5.4318,5.5164,5.5555,5.5785,5.6478,5.694,5.744,4.609,4.6286,0.0,0.0,0.0,0.0,0.0,0.0,4.6289,4.6289,4.6288,4.6286,4.6282,0.0,0.0,0.0,0.0,0.0,4.5784,0.0,0.0,0.0,0.0,0.0,4.5594,0.0,0.0,4.5594,4.5594,4.5594,4.5594,4.5594,4.5594,0.0,4.5594,0.0,0.0,0.0,4.5594,0.0,4.5594,4.5594,0.0,4.5594,4.5594,4.5581,4.5457,4.5311,4.5153,0.0,4.4505,4.4212,0.0,4.3872,4.3947,0.0,0.0,0.0,0.0,0.0,0.0,0.0,4.8296,0.0,0.0,0.0,4.8673,4.9564,0.0,0.0,0.0,0.0,0.0,0.0,0.0,0.0,0.0,0.0,0.0,0.0,0.0,0.0,0.0,0.0,5.2553,5.1059,5.0839,5.0105,4.8517,4.8333,4.8296,4.8296,4.8296,4.8296,4.8296,4.8296,4.8296,4.8296,4.8296,4.8918,5.0008,5.0316,5.1201,5.2499,5.2764,5.3046,5.325,5.325,5.3276,5.3433,5.4318,5.5049,5.5708,5.5824,5.6819,5.8165,4.621,4.6289,4.6289,0.0,0.0,0.0,0.0,0.0,4.7031,4.7031,4.7498,4.7806,0.0,0.0,0.0,0.0,0.0,4.6305,0.0,0.0,0.0,0.0,0.0,0.0,0.0,0.0,0.0,4.5594,4.5594,4.5594,4.5594,4.5594,0.0,0.0,4.5594,0.0,4.5594,0.0,4.5594,0.0,0.0,0.0,0.0,4.5594,4.5594,4.5581,4.5443,4.5301,4.5153,0.0,4.443,0.0,0.0,0.0,0.0,0.0,0.0,0.0,0.0,0.0,0.0,0.0,0.0,0.0,0.0,0.0,4.8416,0.0,0.0,0.0,0.0,0.0,0.0,0.0,0.0,0.0,0.0,0.0,0.0,0.0,0.0,0.0,0.0,0.0,0.0,0.0,0.0,5.0058,4.837,4.8296,4.8296,4.8296,4.8296,4.8296,4.8296,4.8296,4.8296,4.8296,4.8296,4.8651,4.9314,4.9911,5.0667,5.1523,5.2196,5.2361,5.2169,5.2242,5.2346,5.2464,5.3348,5.4215,5.5054,5.5516,5.6478,5.7632,4.6289,4.6289,4.6289,0.0,0.0,0.0,0.0,0.0,0.0,0.0,0.0,0.0,4.8801,4.8732,0.0,0.0,4.7122,4.6638,0.0,0.0,4.5594,0.0,0.0,0.0,0.0,0.0,0.0,4.5594,4.5594,4.5594,4.5594,4.5594,4.5594,0.0,0.0,4.5594,4.5594,0.0,4.5594,4.5594,4.5594,4.5594,4.5594,4.5594,4.5594,4.5581,4.5443,4.5301,4.5153,4.4821,4.443,0.0,4.3841,0.0,0.0,0.0,0.0,0.0,4.6269,0.0,0.0,0.0,0.0,0.0,0.0,0.0,0.0,0.0,0.0,0.0,0.0,0.0,0.0,0.0,0.0,0.0,0.0,0.0,0.0,0.0,0.0,0.0,0.0,0.0,0.0,5.0912,5.0582,4.9848,4.837,4.8296,4.8296,4.8296,4.8296,4.8296,4.8296,4.8296,4.8186,4.7966,4.8186,4.8328,4.8428,4.9304,4.9931,5.0463,5.1239,5.1361,5.1033,5.117,5.1314,5.1519,5.2626,5.3481,5.4226,5.5318,5.6401,5.744,4.6289,4.6289,0.0,0.0,0.0,0.0,0.0,0.0,0.0,0.0,0.0,0.0,0.0,0.0,0.0,0.0,0.0,4.6638,4.5744,0.0,4.5594,0.0,0.0,4.5594,0.0,0.0,0.0,0.0,0.0,4.5594,4.5594,4.5594,4.5594,0.0,4.5594,4.5594,4.5594,4.5594,4.5594,4.5594,4.5594,4.5594,4.5594,0.0,4.5594,4.5581,4.5443,0.0,0.0,4.4821,4.443,0.0,0.0,0.0,0.0,0.0,0.0,0.0,0.0,0.0,0.0,4.7149,0.0,0.0,0.0,0.0,4.8296,0.0,0.0,0.0,0.0,0.0,0.0,0.0,0.0,0.0,0.0,0.0,0.0,0.0,0.0,0.0,0.0,0.0,0.0,5.0875,5.0078,4.9233,4.8343,4.8296,4.8296,4.8296,4.8296,4.8296,4.8296,4.8296,4.7893,4.7149,4.7929,4.7959,4.738,4.8255,4.8838,4.9184,4.9348,4.9582,4.9868,5.0011,5.0158,5.053,5.2301,5.3075,5.3365,5.5072,5.678,5.8275,0.0,4.6289,0.0,0.0,0.0,0.0,0.0,4.8552,0.0,0.0,0.0,0.0,0.0,4.9771,4.901,0.0,0.0,4.6598,4.5702,4.5603,0.0,0.0,0.0,4.5594,0.0,0.0,0.0,0.0,0.0,4.5594,4.5594,4.5594,4.5594,4.5594,0.0,4.5594,0.0,0.0,0.0,0.0,0.0,4.5594,4.5594,0.0,0.0,4.5581,4.5443,4.4924,0.0,4.4012,4.3304,4.2537,4.229,4.2102,4.2067,4.256,4.3277,0.0,0.0,0.0,4.6315,4.6315,0.0,0.0,0.0,0.0,0.0,0.0,0.0,0.0,0.0,0.0,0.0,0.0,0.0,0.0,0.0,0.0,0.0,0.0,0.0,0.0,0.0,0.0,0.0,5.0875,5.0041,4.9233,0.0,4.8296,4.8296,4.8296,4.8296,4.8296,4.8296,4.7783,4.7369,4.7113,4.7369,4.7435,4.7334,4.8163,4.8651,4.8899,4.8993,4.9217,4.9476,4.961,4.9886,5.036,5.2147,5.297,5.3327,5.5072,5.678,5.8467,4.6289,0.0,0.0,0.0,0.0,0.0,0.0,0.0,0.0,0.0,5.0929,0.0,5.0739,0.0,4.9233,0.0,4.7329,4.66,4.5676,4.5594,0.0,4.5594,4.5594,0.0,0.0,0.0,0.0,0.0,0.0,4.5594,4.5594,4.5594,4.5594,4.5594,0.0,4.5594,4.5594,4.5594,4.5594,0.0,0.0,4.5594,0.0,0.0,4.5577,4.5543,0.0,4.4566,4.3862,4.3313,4.2548,4.1787,4.149,4.1292,4.129,4.1752,4.2249,4.28,4.3636,4.4415,0.0,0.0,4.6094,0.0,4.7039,0.0,0.0,0.0,0.0,0.0,0.0,0.0,0.0,0.0,0.0,0.0,0.0,4.9407,0.0,0.0,0.0,0.0,0.0,0.0,5.0812,4.9958,4.915,4.8453,0.0,0.0,4.8003,4.8296,4.8296,4.8296,4.8296,4.7489,4.6966,4.6682,4.6966,4.7012,4.6838,4.7923,4.8532,4.8688,4.8751,4.8919,4.9119,4.9252,4.9551,5.0071,5.1961,5.2815,5.3234,5.5055,5.678,5.8544,0.0,0.0,0.0,0.0,4.8398,0.0,0.0,0.0,5.0445,0.0,5.1154,5.0717,4.9879,4.9586,4.879,4.7159,4.6882,0.0,4.5633,4.5594,0.0,0.0,4.5594,4.5594,4.5594,0.0,0.0,0.0,0.0,0.0,4.5594,4.5594,4.5594,4.5594,4.5594,0.0,4.5594,4.5594,4.5594,4.5594,4.5594,4.559,4.5586,4.5537,0.0,4.5419,4.4563,4.4111,4.3724,4.2682,4.2071,4.173,4.1393,4.1189,4.1077,4.1054,4.1022,4.1213,4.2021,4.2837,4.3616,4.4406,0.0,0.0,0.0,0.0,4.7259,0.0,0.0,0.0,0.0,0.0,0.0,0.0,0.0,0.0,0.0,0.0,0.0,0.0,0.0,0.0,0.0,5.0078,4.9233,4.8379,4.7562,4.7113,0.0,0.0,4.7489,4.826,4.8296,4.8296,4.8296,4.7489,4.6718,4.5957,4.6718,4.6718,4.5993,4.7572,4.8354,4.8476,4.8476,4.8597,4.8796,4.8933,4.918,4.9679,5.1712,5.2724,5.3248,5.5149,5.6896,5.8544,4.7148,4.8476,4.953,0.0,4.9643,4.9873,0.0,0.0,0.0,0.0,5.0578,5.0028,4.9687,4.8527,4.7507,4.6959,4.636,0.0,0.0,0.0,0.0,4.5594,4.5594,4.5594,4.5594,4.5594,0.0,4.5594,0.0,0.0,4.5594,4.5594,4.5594,4.5594,0.0,4.5594,4.5594,4.5594,4.5594,4.5594,4.5594,4.5573,0.0,0.0,4.5007,4.4374,4.4168,4.3196,4.1988,4.1563,4.0839,4.0064,3.9777,3.9615,3.9571,4.005,4.0194,4.0377,4.1177,4.1984,4.2653,4.2873,4.3966,4.5067,0.0,0.0,0.0,0.0,0.0,0.0,0.0,0.0,0.0,0.0,0.0,0.0,0.0,0.0,0.0,4.7709,0.0,0.0,5.0692,5.0031,4.9187,4.837,4.7562,0.0,0.0,0.0,0.0,4.826,4.8296,4.8296,4.8296,4.7489,4.7003,4.6792,4.7003,4.7003,4.6828,4.7856,4.8316,4.8335,4.8335,4.8447,4.8587,4.8778,4.9044,4.9549,5.162,5.3436,5.5126,5.6978,5.7929,5.8544,4.8008,0.0,0.0,5.0606,0.0,0.0,5.0629,0.0,0.0,5.1076,5.0252,0.0,4.9024,4.7798,4.6839,4.6369,4.5903,0.0,4.5594,0.0,0.0,4.5594,4.5594,4.5594,4.5594,4.5594,0.0,4.5594,0.0,0.0,4.5594,4.5594,4.5594,4.5594,0.0,4.5594,4.5594,4.5594,4.5594,4.559,4.5568,0.0,0.0,4.492,4.4169,4.3264,4.2819,4.2048,4.1184,4.0651,4.0025,3.9376,3.911,3.8964,3.8929,3.9278,3.9386,3.9533,4.0377,4.0928,4.1332,4.169,4.2718,4.3746,4.4085,4.4819,4.548,0.0,0.0,0.0,0.0,0.0,0.0,0.0,0.0,0.0,0.0,0.0,0.0,0.0,4.7819,0.0,4.9627,4.926,4.8636,4.7856,4.7369,0.0,0.0,0.0,0.0,4.826,4.8296,4.8296,4.8296,4.7489,4.6929,4.6571,4.6571,4.6388,4.6085,4.7269,4.7783,4.7783,4.815,4.8335,4.8438,4.8597,4.9052,4.9886,5.2099,5.3995,5.5738,5.7591,5.8252,5.8544,0.0,0.0,0.0,0.0,0.0,0.0,0.0,5.1172,0.0,5.0847,0.0,4.902,4.8124,4.7267,4.6432,4.5667,0.0,4.5594,4.5594,4.5594,4.5594,4.5594,4.5594,4.5594,4.5594,4.5594,0.0,0.0,0.0,0.0,4.5594,4.5594,4.5594,4.5594,0.0,0.0,0.0,4.5586,4.5581,4.5577,4.5523,4.5429,4.5241,4.4243,4.3265,4.2284,4.1248,4.0863,4.0764,3.9914,3.9477,3.9239,3.905,3.8892,3.8803,3.8712,3.8681,3.8836,3.9541,3.9835,4.0092,4.0773,4.1544,4.2323,4.3029,4.3718,4.4443,4.5149,4.4709,0.0,0.0,0.0,0.0,0.0,0.0,0.0,0.0,0.0,0.0,0.0,0.0,0.0,0.0,4.8223,4.7966,4.7149,4.7113,0.0,0.0,0.0,0.0,4.826,4.8296,0.0,4.8296,0.0,4.6865,4.6067,4.6067,4.5626,4.492,4.6415,4.7113,4.7149,4.7966,4.8296,4.8306,4.8447,4.9205,5.0554,5.2802,5.4368,5.5618,5.7483,5.8224,5.8544,0.0,0.0,0.0,0.0,0.0,5.1946,5.1166,5.1016,5.0727,4.9867,4.899,4.8081,4.7219,4.6364,4.5782,4.5594,4.5594,0.0,0.0,0.0,0.0,4.5594,4.5594,4.5594,4.5594,4.5594,4.5594,0.0,0.0,0.0,4.5594,4.5594,4.5594,4.5594,0.0,0.0,4.559,4.555,0.0,4.5523,4.5434,4.5334,4.511,4.4062,4.3017,4.1951,4.1014,4.029,3.9739,3.9388,3.9212,3.9096,3.8964,3.8855,3.8803,3.8712,3.8681,3.8718,3.8865,3.9386,3.9945,4.0092,4.0708,4.136,4.1507,4.1617,4.1764,4.1911,4.1837,4.1719,4.1719,0.0,0.0,0.0,0.0,0.0,0.0,0.0,0.0,0.0,0.0,0.0,0.0,0.0,0.0,0.0,0.0,0.0,0.0,0.0,0.0,0.0,0.0,0.0,0.0,0.0,0.0,4.6902,4.6902,4.6461,4.5736,4.6672,4.7113,4.7149,4.7966,4.8296,4.8306,4.8447,4.9684,5.1628,5.3074,5.43,5.5549,5.7503,5.8224,5.8544,0.0,0.0,0.0,0.0,0.0,0.0,0.0,5.0506,0.0,4.9551,4.8693,4.7844,4.7009,4.6124,4.5594,4.5594,4.5594,4.5594,4.5594,4.5594,4.5594,4.5594,4.5594,0.0,4.5594,4.5594,4.5594,4.5594,0.0,0.0,0.0,0.0,0.0,4.559,0.0,4.5555,0.0,0.0,0.0,4.5351,4.5246,4.4853,4.4195,4.3145,4.2101,4.1095,4.0088,3.9482,3.9124,3.912,3.9036,3.8935,3.8862,3.8818,3.8742,3.8696,3.8681,3.8681,3.8681,3.8982,3.9276,3.9276,3.9863,4.0487,4.0487,4.081,4.1095,4.1095,4.1095,4.1095,4.1095,4.1434,0.0,0.0,0.0,0.0,0.0,0.0,0.0,0.0,0.0,0.0,0.0,0.0,0.0,0.0,0.0,0.0,0.0,0.0,0.0,0.0,0.0,0.0,0.0,0.0,0.0,4.6461,4.6058,4.5434,4.4718,4.592,4.6461,4.6535,4.7783,4.8296,4.8379,4.934,5.0731,5.2326,5.3502,5.4436,5.534,5.6856,5.7769,5.8504,0.0,5.1836,0.0,0.0,5.1136,0.0,5.0589,4.9949,4.9412,4.9219,4.8417,4.7543,4.6697,4.6013,4.5594,4.5594,4.5594,4.5594,4.5594,4.5594,4.5594,4.5594,4.5594,4.5594,4.5594,4.5594,4.5594,0.0,0.0,0.0,0.0,0.0,0.0,0.0,0.0,0.0,0.0,0.0,4.5262,4.5115,4.4954,4.4278,4.3316,4.2234,4.125,4.027,3.9246,3.8818,3.8773,3.8884,3.8885,3.8795,3.8795,3.8742,3.8681,3.8681,3.8681,3.8681,3.8681,3.8681,3.8681,3.8681,3.9166,3.9651,3.9651,4.0157,4.0589,4.0589,4.0589,4.0589,4.0589,4.0736,0.0,0.0,0.0,0.0,0.0,0.0,0.0,0.0,0.0,0.0,0.0,0.0,0.0,0.0,0.0,0.0,0.0,0.0,0.0,0.0,0.0,4.8223,4.8039,0.0,4.6608,0.0,4.4993,4.4378,4.38,4.5223,4.5993,4.625,4.7672,4.8416,4.8719,5.0453,5.17,5.267,5.3824,5.4573,5.509,5.6268,5.7224,5.8162,0.0,0.0,0.0,0.0,0.0,0.0,0.0,4.9509,4.9134,4.8322,4.7509,4.6697,4.5821,4.5629,4.5594,4.5594,4.5594,4.5594,4.5594,4.5594,4.5594,4.5594,4.5594,4.5594,4.5594,4.5594,4.5594,0.0,0.0,0.0,0.0,0.0,0.0,0.0,0.0,0.0,0.0,4.5081,4.501,4.4888,4.459,4.3946,4.3032,4.2007,4.1007,4.0015,3.9128,3.8773,3.8696,3.8712,3.8712,3.8696,3.8696,3.8689,3.8681,3.8681,3.8681,3.8681,3.8681,3.8681,3.8681,3.8681,3.8755,3.8791,3.8791,3.8865,3.8901,3.8901,3.8901,3.8901,3.8901,3.9533,4.0267,0.0,0.0,0.0,0.0,0.0,0.0,0.0,0.0,0.0,0.0,4.5544,0.0,0.0,0.0,0.0,0.0,0.0,0.0,4.7113,0.0,4.7966,4.7223,4.7149,0.0,4.481,4.4737,4.4663,4.4626,4.5516,4.6315,4.7039,4.7929,4.8746,4.961,5.13,5.2178,5.2558,5.3755,5.4476,5.4965,5.6157,5.6766,5.7284,0.0,0.0,0.0,0.0,0.0,0.0,0.0,4.8211,4.7774,4.7428,4.7081,4.6586,4.5706,4.5594,4.5594,4.5594,4.5594,4.5594,4.5594,4.5594,4.5594,4.5594,4.5594,4.5594,4.5594,4.5594,4.5594,0.0,0.0,0.0,0.0,0.0,0.0,0.0,0.0,4.5125,4.5013,4.4745,4.4597,4.451,4.4257,4.3364,4.2091,4.1548,4.0509,3.9275,3.8883,3.8712,3.8681,3.8681,3.8681,3.8681,3.8681,3.8681,3.8681,3.8681,3.8681,3.8681,3.8681,3.8681,3.8681,3.8681,3.8681,3.8681,3.8681,3.8681,3.8681,3.8681,3.8681,3.8681,3.8681,3.8946,3.9606,0.0,0.0,0.0,0.0,0.0,0.0,0.0,0.0,0.0,0.0,0.0,4.4599,0.0,0.0,0.0,0.0,0.0,0.0,4.5691,0.0,4.7195,4.6388,4.5911,4.536,4.47,4.4195,4.3975,4.4011,4.5296,4.6617,4.7856,4.871,4.9554,5.0408,5.1561,5.2397,5.3001,5.3683,5.4187,5.4589,5.5356,5.6121,5.6849,5.1908,0.0,5.0276,0.0,4.9253,4.8777,4.7894,4.7274,4.6812,4.6547,4.6509,4.6278,4.5667,4.5594,4.5594,4.5594,4.5594,4.5594,4.5594,4.5594,4.5594,4.5594,4.5594,0.0,4.5594,4.5594,4.5594,4.5594,4.5594,0.0,0.0,0.0,0.0,0.0,4.4954,4.4808,4.4713,4.4414,4.4243,4.4155,4.3963,4.2881,4.1376,4.122,4.017,3.8773,3.8712,3.8681,3.8681,3.8681,3.8681,3.8681,3.8681,3.8681,3.8681,3.8681,3.8681,3.8681,3.8681,3.8681,3.8681,3.8681,3.8681,3.8681,3.8681,3.8681,3.8681,3.8681,3.8681,3.8681,3.8681,3.8909,3.9489,0.0,0.0,0.0,0.0,0.0,0.0,0.0,4.2653,4.2213,4.1984,4.2653,0.0,0.0,0.0,0.0,0.0,0.0,0.0,0.0,0.0,0.0,0.0,4.4993,4.459,4.4342,4.3763,4.3616,4.3901,4.5516,4.7021,4.837,4.949,5.0298,5.0875,5.1903,5.2737,5.3339,5.3639,5.3953,5.4334,5.4723,5.5406,5.6204,5.0997,5.0121,4.9493,4.9404,4.8702,4.7851,4.7043,4.6928,4.6581,4.5744,4.5633,4.5594,4.5594,4.5594,4.5594,4.5594,4.5594,4.5594,4.5594,4.5594,4.5594,0.0,0.0,4.5594,4.5594,4.5594,4.5594,4.5594,0.0,0.0,4.5518,0.0,4.5136,4.5004,4.4731,4.4486,4.4308,4.4102,4.3976,4.3881,4.3701,4.2631,4.1196,4.1136,4.0112,3.8681,3.8681,3.8681,3.8681,3.8681,3.8681,3.8681,3.8681,3.8681,3.8681,3.8681,3.8681,3.8681,3.8681,3.8681,3.8681,3.8681,3.8681,3.8681,3.8681,3.8681,3.8681,3.8681,3.8681,3.8681,3.8681,3.935,4.0157,4.0956,0.0,0.0,0.0,0.0,0.0,0.0,4.2323,4.1984,4.1177,0.0,0.0,0.0,0.0,0.0,0.0,0.0,0.0,4.4773,4.6269,0.0,4.4737,4.47,4.4305,4.3506,4.3506,4.391,4.4737,4.6342,4.7526,4.837,5.0068,5.0802,5.0902,5.2517,5.3241,5.3339,5.3524,5.3851,5.4222,5.4509,5.4814,5.5248,4.9962,4.9647,4.9221,4.8625,4.7812,4.7005,4.6124,4.6013,4.5898,4.5633,4.5594,4.5594,4.5594,4.5594,4.5594,0.0,4.5594,4.5594,0.0,4.5594,4.5594,4.5594,4.5594,4.5577,4.5546,4.5541,4.5528,4.5452,0.0,0.0,0.0,4.5103,4.4896,4.4635,4.4374,4.417,4.401,4.3804,4.3697,4.3701,4.3583,4.2916,4.1887,4.1332,4.0443,3.946,3.8909,3.8681,3.8681,3.8681,3.8681,3.8681,3.8681,3.8681,3.8681,3.8681,3.8681,3.8681,3.8681,3.8681,3.8681,3.8681,3.8681,3.8681,3.8681,3.8681,3.8681,3.8681,3.8681,3.8865,3.9423,3.9724,4.0349,4.1699,0.0,0.0,0.0,0.0,0.0,0.0,0.0,4.2213,0.0,4.2139,0.0,0.0,0.0,0.0,0.0,0.0,0.0,0.0,4.5727,0.0,4.47,4.4158,4.3763,4.3506,4.3506,4.3901,4.4737,4.5801,4.6718,4.7599,4.9838,5.0802,5.0902,5.2553,5.3198,5.3241,5.3359,5.3593,5.3963,5.4114,5.4397,5.4737,4.9402,4.9187,4.874,4.8197,4.7428,4.662,4.5744,4.5594,4.5594,4.5594,4.5594,4.5594,4.5594,4.5594,0.0,4.5594,4.5594,4.5586,4.5568,4.5564,4.555,4.5514,4.5509,4.5486,4.5434,0.0,0.0,4.5316,4.5255,4.5154,4.5051,4.4796,4.4568,4.4331,4.4086,4.3929,4.3783,4.3634,4.3575,4.3575,4.3523,4.3029,4.2249,4.1727,4.0855,3.9835,3.9313,3.8946,3.8681,3.8681,3.8681,3.8681,3.8681,3.8681,3.8681,3.8681,3.8681,3.8681,3.8681,3.8681,3.8681,3.8681,3.8681,3.8681,3.8681,3.8681,3.8681,3.8681,3.8946,3.9313,3.9798,4.0377,4.1111,4.2139,0.0,4.2919,0.0,0.0,0.0,0.0,0.0,0.0,0.0,4.2139,0.0,0.0,0.0,0.0,0.0,0.0,0.0,4.5177,4.5626,0.0,4.47,4.3901,4.3506,4.3506,4.3506,4.3901,4.4737,4.5516,4.6361,4.7223,4.9407,5.0508,5.0912,5.2223,5.292,5.3225,5.3266,5.3461,5.3698,5.3795,5.4016,5.4291,4.9163,4.8702,0.0,0.0,4.7466,0.0,4.5821,4.5633,4.5594,4.5594,4.559,4.5586,4.5586,4.5581,4.5577,4.5577,0.0,0.0,0.0,4.5466,4.5462,4.5398,4.5388,0.0,4.5262,4.5262,4.523,4.5164,4.4942,4.4814,4.4776,4.4428,4.4206,4.4071,4.3865,4.3701,4.36,4.354,4.3506,4.3506,4.3506,4.3065,4.2396,4.2323,4.1332,3.9981,3.9908,3.9386,3.8681,3.8681,3.8681,3.8681,3.8681,3.8681,3.8681,3.8681,3.8681,3.8681,3.8681,3.8681,3.8681,3.8681,3.8726,3.8799,3.8865,3.8865,3.8865,3.8865,3.946,4.0018,4.0055,4.1295,4.2323,4.2359,4.3029,4.3506,4.3506,0.0,0.0,0.0,0.0,0.0,0.0,4.1947,4.2396,0.0,0.0,0.0,0.0,0.0,4.6682,4.592,4.5883,4.5516,4.47,4.3901,4.3506,4.3506,4.3506,4.391,4.4663,4.5516,4.6315,4.7113,4.8866,5.0078,5.0875,5.1693,5.2454,5.3225,5.3256,5.3369,5.3491,5.3553,5.3709,5.3889,0.0,0.0,4.9086,4.9086,4.7889,4.6812,4.662,4.6013,4.5594,4.5594,4.5559,4.5537,4.5537,4.5472,4.5462,4.5462,4.5495,4.55,4.5448,4.5326,4.527,4.524,4.5192,4.512,4.501,4.5004,4.495,4.4827,4.4603,4.449,4.4414,4.4199,4.3986,4.3849,4.3709,4.3609,4.3532,4.3515,4.3506,4.3506,4.3506,4.3396,4.3139,4.2543,4.1699,4.0736,4.0128,3.9386,3.8681,3.8681,3.8681,3.8681,3.8681,3.8681,3.8681,3.8681,3.8681,3.8681,3.8681,3.8681,3.8681,3.8681,3.9166,3.979,4.0406,4.0508,4.0508,4.0508,4.07,4.0993,4.1625,4.2029,4.2506,4.3139,4.3396,4.3506,4.3506,0.0,0.0,0.0,4.3212,4.3139,4.2947,4.3102,4.3212,0.0,0.0,0.0,0.0,0.0,4.6104,4.592,4.5883,4.5516,4.47,4.3901,4.3506,4.3506,4.3506,4.3616,4.3828,4.5259,4.5993,4.6324,4.8609,5.0078,5.0875,5.1693,5.2454,5.3214,5.3209,5.3282,5.3359,5.338,5.3481,5.362,4.8043,4.8793,4.9356,4.9356,4.826,4.7285,4.6858,4.6061,4.5518,4.5495,4.5467,4.5434,4.5385,4.5324,4.5256,4.5181,4.5298,4.5334,4.5219,4.5115,4.4981,4.4832,4.4789,4.4707,4.4564,4.4595,4.4541,4.4423,4.4236,4.414,4.4124,4.3908,4.3792,4.3693,4.3609,4.354,4.3506,4.3506,4.3506,4.3506,4.3506,4.3506,4.3433,4.3029,4.2139,4.1022,4.0598,3.9717,3.8681,3.8681,3.8681,3.8681,3.8681,3.8681,3.8762,3.9129,3.8982,3.8681,3.8681,3.8982,3.935,3.9709,4.0112,4.0553,4.0993,4.1095,4.1095,4.1095,4.1397,4.1764,4.2213,4.2616,4.2992,4.3433,4.3506,4.3506,4.3506,4.3506,0.0,4.3506,4.3506,4.3506,4.3506,4.3506,4.3506,4.3506,0.0,0.0,4.5847,4.6617,4.6828,4.6461,4.6104,4.5516,4.47,4.3901,4.3506,4.3506,4.3506,4.3506,4.3543,4.4782,4.5553,4.5993,4.7719,4.9334,5.0839,5.1279,5.216,5.3214,5.3214,5.3209,5.3235,5.3235,5.3314,5.3386,4.8111,4.8904,4.9473,4.9473,4.8746,4.7867,4.698,4.6137,4.5505,4.5388,4.5357,4.5267,4.517,4.5125,4.5001,4.4833,4.4942,4.499,4.4906,4.4839,4.4656,4.4355,4.4365,4.4294,4.4147,4.4125,4.4124,4.4056,4.3929,4.3849,4.3849,4.3676,4.36,4.36,4.354,4.3506,4.3506,4.3506,4.3506,4.3506,4.3506,4.3506,4.3506,4.3506,4.258,4.1287,4.1287,4.0333,3.9048,3.8901,3.8872,3.8872,3.8726,3.8791,3.9019,3.9688,3.9496,3.9048,3.9048,3.957,4.0267,4.1067,4.1287,4.1323,4.1434,4.147,4.147,4.147,4.2029,4.247,4.247,4.3029,4.3506,4.3506,4.3506,4.3506,4.3506,0.0,4.3506,4.3506,4.3506,4.3506,4.3506,4.3506,4.3506,4.3506,4.4754,0.0,0.0,4.7095,4.7489,4.6929,4.625,4.5443,4.4516,4.3836,4.3506,4.3506,4.3506,4.3506,4.3543,4.4333,4.514,4.5957,4.6755,4.8443,5.0618,5.0765,5.1673,5.3031,5.3141,5.3214,5.3214,5.3214,5.3214,5.3198,4.8937,4.9733,5.0238,5.0238,4.9461,4.858,4.7739,4.6822,4.5993,4.5339,4.5091,4.498,4.4962,4.4688,4.4499,4.4496,4.4351,4.4329,4.4465,4.4441,4.4322,4.414,4.4102,4.4017,4.3953,4.3881,4.3878,4.3861,4.3718,4.3659,4.3659,4.3566,4.3523,4.3523,4.3515,4.3506,4.3506,4.3506,4.3506,4.3506,4.3506,4.3506,4.3506,4.3506,4.291,4.2094,4.2094,4.1507,4.0626,3.9937,3.9724,3.9614,3.8909,3.9166,3.9761,3.9871,4.0304,4.0736,4.0736,4.081,4.1103,4.1911,4.2094,4.2286,4.2955,4.3139,4.3139,4.3139,4.3212,4.3322,4.3322,4.3433,4.3506,4.3506,4.3506,4.3506,4.3506,0.0,4.3506,4.3506,4.3506,4.3506,4.3506,4.3506,4.3506,4.3506,4.3726,4.4461,4.581,4.548,4.5507,4.6067,4.5957,4.5186,4.369,4.3543,4.3506,4.3506,4.3506,4.3506,4.3543,4.4333,4.514,4.5957,4.6755,4.8113,4.9821,5.0508,5.1353,5.2234,5.292,5.3214,5.3214,5.3214,5.3214,5.3198,4.8985,4.9698,5.0157,5.0082,4.9303,4.8397,4.7568,4.6702,4.5817,4.489,4.4682,4.4577,4.45,4.4322,4.4206,4.4155,4.4041,4.3986,4.3972,4.4026,4.4017,4.3836,4.3795,4.3738,4.3693,4.3651,4.3625,4.3625,4.3583,4.3558,4.3558,4.3523,4.3506,4.3506,4.3506,4.3506,4.3506,4.3506,4.3506,4.3506,4.3506,4.3506,4.3506,4.3506,4.2992,4.2286,4.2286,4.1764,4.1022,4.0663,4.0267,3.9908,3.9966,3.9937,4.0055,4.0928,4.1148,4.1177,4.1617,4.1764,4.1947,4.2763,4.2947,4.3029,4.3433,4.3506,4.3506,4.3506,4.3506,4.3506,4.3506,4.3506,4.3506,4.3506,4.3506,0.0,0.0,4.3506,4.3506,4.3506,4.3506,4.3506,4.3506,4.3506,4.3506,4.3506,4.3901,4.4488,4.5214,4.5296,4.5324,4.525,4.4819,4.424,4.3506,4.3506,4.3506,4.3506,4.3506,4.3506,4.3506,4.3864,4.4488,4.5296,4.6094,4.7379,4.8967,4.9821,5.0886,5.206,5.2417,5.2821,5.3214,5.3214,5.3214,5.3177,4.9011,4.9556,4.9845,4.9714,4.9081,4.8219,4.7172,4.6466,4.5658,4.447,4.4315,4.4228,4.4071,4.4017,4.3939,4.3841,4.3816,4.3742,4.36,4.3726,4.3742,4.36,4.3592,4.3566,4.3506,4.3506,4.3506,4.3506,4.3506,4.3506,4.3506,4.3506,4.3506,4.3506,4.3506,4.3506,4.3506,4.3506,4.3506,4.3506,4.3506,4.3506,4.3506,4.3506,4.3139,4.258,4.258,4.2176,4.1617,4.1434,4.0965,4.0524,4.0956,4.081,4.0716,4.1956,4.1984,4.1801,4.2396,4.258,4.2727,4.3359,4.3506,4.3506,4.3506,4.3506,4.3506,4.3506,4.3506,4.3506,4.3506,4.3506,4.3506,4.3506,0.0,0.0,0.0,4.3506,4.3506,4.3506,4.3506,4.3506,4.3506,4.3506,4.3506,4.3506,4.4085,4.4516,4.47,4.5112,4.5076,4.4443,4.3836,4.3506,4.3506,4.3506,4.3506,4.3506,4.369,4.369,4.3506,4.369,4.4232,4.4993,4.5626,4.6801,4.8379,4.9233,5.0345,5.1473,5.1657,5.2197,5.292,5.292,5.3031,5.3214,4.9433,4.9594,4.9453,4.9446,4.9238,4.8528,4.695,4.6626,4.5974,4.4326,4.4002,4.3929,4.3913,4.3759,4.3614,4.3634,4.3575,4.3532,4.3515,4.3532,4.3532,4.3515,4.3515,4.3515,4.3506,4.3506,4.3506,4.3506,4.3506,4.3506,4.3506,4.3506,4.3506,4.3506,4.3506,4.3506,4.3506,4.3506,4.3506,4.3506,4.3506,4.3506,4.3506,4.3506,4.3469,4.3396,4.3396,4.3359,4.3212,4.247,4.2176,4.1992,4.1323,4.158,4.2139,4.2286,4.2808,4.3322,4.3396,4.3396,4.3433,4.3506,4.3506,4.3506,4.3506,4.3506,4.3506,4.3506,4.3506,4.3506,4.3506,4.3506,4.3506,4.3506,0.0,0.0,4.3506,4.3506,4.3506,4.3506,4.3506,4.3506,4.3506,4.3506,4.3506,4.3506,4.3543,4.3901,4.4663,4.4048,4.3653,4.3579,4.3543,4.3506,4.3506,4.3506,4.3506,4.3506,4.4268,4.4232,4.3543,4.4268,4.5039,4.581,4.5883,4.6801,4.8379,4.9233,4.9684,4.9858,5.0582,5.1389,5.2097,5.2097,5.2564,5.3214,4.916,4.926,4.9077,4.9027,4.8916,4.8235,4.6632,4.6384,4.5749,4.4017,4.3767,4.3709,4.3659,4.3592,4.3549,4.3549,4.3523,4.3506,4.3506,4.3506,4.3506,4.3506,4.3506,4.3506,4.3506,4.3506,4.3506,4.3506,4.3506,4.3506,4.3506,4.3506,4.3506,4.3506,4.3506,4.3506,4.3506,4.3506,4.3506,4.3506,4.3506,4.3506,4.3506,4.3506,4.3506,4.3506,4.3506,4.3506,4.3433,4.3139,4.2727,4.2323,4.2543,4.247,4.2396,4.2919,4.3249,4.3506,4.3506,4.3506,4.3506,4.3506,4.3506,4.3506,4.3506,4.3506,4.3506,4.3506,4.3506,4.3506,4.3506,4.3506,4.3506,4.3506,0.0,4.3506,4.3506,4.3506,4.3506,4.3506,4.3506,4.3506,4.3506,4.3506,4.3506,4.3506,4.3506,4.3616,4.3938,4.3653,4.3506,4.3506,4.3506,4.3506,4.3506,4.3506,4.3763,4.4268,4.4553,4.481,4.5011,4.5296,4.5626,4.592,4.6425,4.6975,4.7636,4.8453,4.9123,4.9647,4.9931,5.0849,5.1987,5.1987,5.2527,5.3214,4.8845,4.8925,4.8769,4.8706,4.8587,4.8034,4.6698,4.6265,4.5575,4.4135,4.373,4.3558,4.3515,4.3506,4.3506,4.3506,4.3506,4.3506,4.3506,4.3506,4.3506,4.3506,4.3506,4.3506,4.3506,4.3506,4.3506,4.3506,4.3506,4.3506,4.3506,4.3506,4.3506,4.3506,4.3506,4.3506,4.3506,4.3506,4.3506,4.3506,4.3506,4.3506,4.3506,4.3506,4.3506,4.3506,4.3506,4.3506,4.3506,4.3506,4.3139,4.2763,4.3322,4.3139,4.2808,4.3322,4.3506,4.3506,4.3506,4.3506,4.3506,4.3506,4.3506,4.3506,4.3506,4.3506,4.3506,4.3506,4.3506,4.3506,4.3506,4.3506,4.3506,4.3506,4.3506,4.3506,4.3506,4.3506,4.3506,4.3506,4.3506,4.3506,4.3506,4.3506,4.3506,4.3506,4.3506,4.3506,4.3506,4.3506,4.3506,4.3506,4.3506,4.3506,4.3506,4.3506,4.3901,4.47,4.4957,4.5369,4.592,4.6177,4.6278,4.6315,4.6856,4.7223,4.7516,4.8076,4.8636,4.9197,4.9197,5.0041,5.1289,5.1536,5.2123,5.2847,4.8471,4.8624,4.8485,4.8485,4.84,4.8039,4.7223,4.6425,4.5626,4.481,4.4011,4.3506,4.3506,4.3506,4.3506,4.3506,4.3506,4.3506,4.3506,4.3506,4.3506,4.3506,4.3506,4.3506,4.3506,4.3506,4.3506,4.3506,4.3506,4.3506,4.3506,4.3506,4.3506,4.3506,4.3506,4.3506,4.3506,4.3506,4.3506,4.3506,4.3506,4.3506,4.3506,4.3506,4.3506,4.3506,4.3506,4.3506,4.3506,4.3506,4.3506,4.3506,4.3506,4.3506,4.3506,4.3506,4.3506,4.3506,4.3506,4.3506,4.3506,4.3506,4.3506,4.3506,4.3506,4.3506,4.3506,4.3506,4.3506,4.3506,4.3506,4.3506,4.3506,4.3506,4.3506,4.3506,4.3506,4.3506,4.3506,4.3506,4.3506,4.3506,4.3506,4.3506,4.3506,4.3506,4.3506,4.3506,4.3506,4.3506,4.3506,4.3506,4.3506,4.3506,4.3506,4.3506,4.3901,4.4737,4.5516,4.592,4.5957,4.6755,4.7113,4.7113,4.7113,4.7562,4.8296,4.8296,4.8296,4.8296,4.8296,4.882,4.9721,5.0508,5.1316,5.2134,4.7526,4.808,4.8344,4.8344,4.8316,4.8039,4.7223,4.6425,4.5626,4.481,4.4011,4.3506,4.3506,4.3506,4.3506,4.3506,4.3506,4.3506,4.3506,4.3506,4.3506,4.3506,4.3506,4.3506,4.3506,4.3506,4.3506,4.3506,4.3506,4.3506,4.3506,4.3506,4.3506,4.3506,4.3437,4.3447,4.3438,4.3296,4.3233,4.3196,4.3133,4.3069,4.3069,4.3069,4.3069,4.3069,4.3069,4.3069,4.3069,4.3069,4.3069,4.3078,4.3178,4.3233,4.326,4.3403,4.3447,4.3419,4.3489,4.3506,4.3506,4.3506,4.3506,4.3506,4.3506,4.3506,4.3506,4.3506,4.3506,4.3506,4.3506,4.3506,4.3506,4.3506,4.3506,4.3506,4.3506,4.3506,4.3506,4.3506,4.3506,4.3506,4.3506,4.3506,4.3506,4.3506,4.3506,4.3506,4.3506,4.3506,4.3506,4.3506,4.3506,4.3506,4.3506,4.3506,4.4204,4.5553,4.5773,4.6507,4.7609,4.7819,4.7929,4.7929,4.7929,4.8076,4.8296,4.8296,4.8296,4.8296,4.8296,4.9187,5.0472,5.0729,5.1683,5.2884,4.7077,4.7793,4.8296,4.8296,4.8296,4.815,4.7636,4.6617,4.5736,4.525,4.4204,4.3506,4.3506,4.3506,4.3506,4.3506,4.3506,4.3506,4.3506,4.3506,4.3506,4.3506,4.3506,4.3506,4.3506,4.3506,4.3506,4.3506,4.3506,4.3506,4.3506,4.3471,4.3454,4.3445,4.3341,4.3269,4.3187,4.3022,4.2918,4.2917,4.2823,4.2768,4.2768,4.2768,4.2768,4.2768,4.2768,4.2768,4.2768,4.2768,4.2768,4.2814,4.2871,4.2909,4.2975,4.3096,4.3187,4.3296,4.3322,4.3393,4.3454,4.3454,4.348,4.3506,4.3506,4.3506,4.3506,4.3506,4.3506,4.3506,4.3506,4.3506,4.3506,4.3506,4.3506,4.3506,4.3506,4.3506,4.3506,4.3506,4.3506,4.3506,4.3506,4.3506,4.3506,4.3506,4.3506,4.3506,4.3506,4.3506,4.3506,4.3506,4.3506,4.3506,4.3506,4.3836,4.4599,4.5883,4.5883,4.6728,4.8296,4.8296,4.8296,4.8296,4.8296,4.8296,4.8296,4.8296,4.8296,4.8333,4.8673,4.9444,5.0398,5.1022,5.1903,5.2784,4.6819,4.7636,4.8223,4.8296,4.8296,4.8296,4.8296,4.6948,4.5883,4.5883,4.4497,4.3506,4.3506,4.3506,4.3506,4.3506,4.3506,4.3506,4.3506,4.3506,4.3506,4.3506,4.3506,4.3506,4.3497,4.3497,4.3497,4.3497,4.348,4.3471,4.3471,4.3375,4.3359,4.3341,4.3141,4.2956,4.2835,4.2582,4.2465,4.2422,4.2331,4.2321,4.2392,4.2392,4.2428,4.2454,4.2454,4.2454,4.2454,4.2454,4.2454,4.249,4.251,4.2544,4.2596,4.2635,4.2816,4.3039,4.3067,4.3205,4.3359,4.3376,4.3402,4.3471,4.3497,4.3506,4.3506,4.3506,4.3506,4.3506,4.3506,4.3506,4.3506,4.3506,4.3506,4.3506,4.3506,4.3506,4.3506,4.3506,4.3506,4.3506,4.3506,4.3579,4.3616,4.3616,4.3653,4.369,4.3616,4.3616,4.3579,4.3506,4.3506,4.3543,4.3616,4.4333,4.5104,4.5883,4.5957,4.6801,4.8296,4.8296,4.8296,4.8296,4.8296,4.8296,4.8296,4.8296,4.8343,4.8489,4.9197,4.9564,4.9858,5.1363,5.195,5.2134,4.5993,4.6828,4.7562,4.8186,4.8296,4.8296,4.8296,4.6948,4.5883,4.5883,4.4497,4.3506,4.3506,4.3506,4.3506,4.3506,4.3506,4.3506,4.3506,4.3506,4.3506,4.3506,4.3506,4.3471,4.3438,4.3438,4.3438,4.3438,4.3278,4.3196,4.3196,4.3068,4.2948,4.2854,4.2652,4.2458,4.2302,4.1313,4.0898,4.0796,4.0074,4.014,4.0656,4.0656,4.0986,4.1479,4.1479,4.1479,4.1479,4.1479,4.1479,4.1547,4.1734,4.1845,4.1906,4.2216,4.2348,4.2438,4.272,4.2825,4.2901,4.3123,4.3178,4.3224,4.3454,4.3506,4.3506,4.3506,4.3506,4.3506,4.3506,4.3506,4.3506,4.3506,4.3506,4.3506,4.3506,4.3506,4.3506,4.3506,4.3506,4.3506,4.3506,4.4085,4.4443,4.4443,4.5039,4.5112,4.448,4.4443,4.4158,4.3506,4.3506,4.3791,4.4443,4.4626,4.5104,4.592,4.6535,4.7342,4.8296,4.8296,4.8296,4.8296,4.8296,4.8296,4.8296,4.8296,4.871,4.927,4.8783,4.937,5.0582,5.0949,5.1463,5.2134,4.5736,4.6535,4.7333,4.815,4.8296,4.8296,4.8296,4.6948,4.5883,4.5883,4.4497,4.3506,4.3506,4.3506,4.3506,4.3506,4.3506,4.3506,4.3506,4.3506,4.3489,4.3437,4.3437,4.3375,4.326,4.3133,4.3114,4.316,4.3003,4.289,4.2842,4.2661,4.2527,4.2448,4.2133,4.1757,4.1241,4.0486,3.9927,3.9489,3.8997,3.9046,3.9428,3.9787,4.0157,4.0481,4.0481,4.0481,4.0551,4.0932,4.1082,4.1059,4.1221,4.1301,4.1357,4.1567,4.1763,4.197,4.2138,4.2307,4.2488,4.2642,4.2777,4.3012,4.3366,4.3437,4.3454,4.3497,4.3506,4.3506,4.3506,4.3506,4.3506,4.3506,4.3506,4.3506,4.3506,4.3506,4.3506,4.3506,4.3506,4.3653,4.4048,4.4443,4.4847,4.525,4.5663,4.5736,4.5287,4.5259,4.5076,4.4644,4.4644,4.4864,4.5259,4.5654,4.6058,4.6461,4.6892,4.7516,4.8296,4.8296,4.8296,4.8296,4.8296,4.8296,4.8333,4.8746,4.9197,4.961,4.9517,5.0031,5.0802,5.0802,5.1059,5.1499,4.5553,4.6351,4.7159,4.7966,4.8223,4.826,4.8113,4.6838,4.5847,4.57,4.4424,4.3506,4.3506,4.3506,4.3497,4.3489,4.348,4.3471,4.3437,4.3428,4.3393,4.3332,4.3277,4.3178,4.2965,4.2729,4.2681,4.2816,4.2616,4.2478,4.243,4.2144,4.2029,4.1952,4.1495,4.0877,4.0138,3.9615,3.8973,3.8308,3.8148,3.8172,3.8344,3.8975,3.9376,3.9571,3.9445,3.9468,3.9686,4.0351,4.066,4.0764,4.0787,4.0847,4.0884,4.0931,4.1163,4.1459,4.1493,4.1755,4.2029,4.2081,4.2307,4.2616,4.3105,4.3251,4.3359,4.341,4.3428,4.3445,4.348,4.348,4.3489,4.3506,4.3506,4.3506,4.3506,4.3506,4.3506,4.3506,4.3616,4.3983,4.4626,4.4957,4.5397,4.6067,4.6214,4.625,4.6104,4.6104,4.603,4.5883,4.5883,4.5957,4.6104,4.6755,4.7186,4.7296,4.7296,4.7636,4.8296,4.8296,4.8296,4.8296,4.8296,4.8296,4.837,4.9087,4.9454,4.9647,5.0178,5.0472,5.0582,5.0582,5.0692,5.0802,4.47,4.5507,4.6324,4.7113,4.7856,4.8076,4.7369,4.6498,4.5663,4.4957,4.4085,4.3506,4.3506,4.3506,4.348,4.3429,4.3421,4.335,4.3169,4.316,4.3087,4.2957,4.2863,4.272,4.2514,4.2292,4.2282,4.2458,4.205,4.1785,4.1736,4.1469,4.1254,4.114,4.032,3.9848,3.9606,3.8037,3.7342,3.7138,3.6344,3.6401,3.7069,3.7136,3.7973,3.9013,3.8357,3.856,3.9115,3.9229,3.967,4.0238,4.0337,4.0387,4.0436,4.0667,4.0764,4.0847,4.1024,4.1128,4.1255,4.158,4.1736,4.1852,4.2267,4.2691,4.3012,4.3141,4.316,4.3215,4.3394,4.3421,4.341,4.3497,4.3506,4.3506,4.3506,4.3506,4.3506,4.3506,4.4121,4.459,4.47,4.5948,4.6819,4.6929,4.7599,4.7672,4.6966,4.6929,4.6608,4.592,4.5883,4.625,4.6929,4.7039,4.7443,4.815,4.815,4.8186,4.8296,4.8296,4.8296,4.8296,4.8296,4.8296,4.8296,4.8416,4.894,4.9537,4.8893,4.9114,4.9747,4.9747,5.0188,5.0802,4.4553,4.5369,4.614,4.6966,4.7369,4.7516,4.7149,4.6058,4.5104,4.4737,4.4011,4.3506,4.3506,4.3463,4.3393,4.3286,4.3187,4.3059,4.2899,4.2842,4.2736,4.2508,4.2458,4.2267,4.197,4.1799,4.1633,4.1499,4.1445,4.1357,4.1209,4.1012,4.0665,4.0204,3.9649,3.8961,3.8094,3.7262,3.6627,3.6164,3.5757,3.5814,3.6197,3.6615,3.7461,3.8464,3.8949,3.9085,3.9051,3.9491,3.9842,4.0125,4.0175,4.0188,4.0213,4.0325,4.0412,4.0485,4.0595,4.0728,4.0883,4.1047,4.1186,4.1312,4.149,4.1753,4.2113,4.2707,4.2852,4.2882,4.2985,4.3123,4.3251,4.3251,4.3358,4.3428,4.3428,4.348,4.3653,4.4121,4.448,4.5067,4.5938,4.6672,4.7296,4.7746,4.8113,4.815,4.7783,4.7783,4.7599,4.7241,4.7241,4.7425,4.7783,4.8269,4.8673,4.905,4.9481,4.9214,4.8296,4.8296,4.8296,4.8296,4.8296,4.8296,4.8333,4.882,4.9233,4.9527,4.916,4.8976,4.8857,4.8857,4.9114,4.9397]}]]